[[{"header":{"parameterUnit":"m.s-1","parameterCategory":1,"la1":31.0,"la2":29.5877,"lo1":-88.7671,"lo2":-86.6584,"dy":0.0162,"dx":0.0185,"nx":115,"ny":88,"refTime":"2026-03-26T12:00:00:Z","depth":0,"parameterNumber":2,"parameterNumberName":"U-component_of_WINDS"},"data":[0.0,0.0,0.0,0.0,0.0,0.0,0.0,0.0,0.0,0.0,0.0,0.0,0.0,0.0,0.0,0.0,0.0,0.0,0.0,0.0,0.0,0.0,0.0,0.0,0.0,0.0,0.0,0.0,0.0,0.0,0.0,0.0,0.0,0.0,0.0,0.0,0.0,0.0,0.0,0.0,0.0,0.0,0.0,0.0,0.0,0.0,0.0,0.0,0.0,0.0,0.0,0.0,0.0,0.0,0.0,0.0,0.0,0.0,0.0,0.0,0.0,0.0,0.0,0.0,0.0,0.0,0.0,0.0,0.0,0.0,0.0,0.0,0.0,0.0,0.0,0.0,0.0,0.0,0.0,0.0,0.0,0.0,0.0,0.0,0.0,0.0,0.0,0.0,0.0,0.0,0.0,0.0,0.0,0.0,0.0,0.0,0.0,0.0,0.0,0.0,0.0,0.0,0.0,0.0,0.0,0.0,0.0,0.0,0.0,0.0,0.0,0.0,0.0,0.0,0.0,0.0,0.0,0.0,0.0,0.0,0.0,0.0,0.0,0.0,0.0,0.0,0.0,0.0,0.0,0.0,0.0,0.0,0.0,0.0,0.0,0.0,0.0,0.0,0.0,0.0,0.0,0.0,0.0,0.0,0.0,0.0,0.0,0.0,0.0,0.0,0.0,0.0,0.0,0.0,0.0,0.0,0.0,0.0,0.0,0.0,0.0,0.0,0.0,0.0,0.0,0.0,0.0,0.0,0.0,0.0,0.0,0.0,0.0,0.0,0.0,0.0,0.0,0.0,0.0,0.0,0.0,0.0,0.0,0.0,0.0,0.0,0.0,0.0,0.0,0.0,0.0,0.0,0.0,0.0,0.0,0.0,0.0,0.0,0.0,0.0,0.0,0.0,0.0,0.0,0.0,0.0,0.0,0.0,0.0,0.0,0.0,0.0,0.0,0.0,0.0,0.0,0.0,0.0,0.0,0.0,0.0,0.0,0.0,0.0,0.0,0.0,0.0,0.0,0.0,0.0,0.0,0.0,0.0,0.0,0.0,0.0,0.0,0.0,0.0,0.0,0.0,0.0,0.0,0.0,0.0,0.0,0.0,0.0,0.0,0.0,0.0,0.0,0.0,0.0,0.0,0.0,0.0,0.0,0.0,0.0,0.0,0.0,0.0,0.0,0.0,0.0,0.0,0.0,0.0,0.0,0.0,0.0,0.0,0.0,0.0,0.0,0.0,0.0,0.0,0.0,0.0,0.0,0.0,0.0,0.0,0.0,0.0,0.0,0.0,0.0,0.0,0.0,0.0,0.0,0.0,0.0,0.0,0.0,0.0,0.0,0.0,0.0,0.0,0.0,0.0,0.0,0.0,0.0,0.0,0.0,0.0,0.0,0.0,0.0,0.0,0.0,0.0,0.0,0.0,0.0,0.0,0.0,0.0,0.0,0.0,0.0,0.0,0.0,0.0,0.0,0.0,0.0,0.0,0.0,0.0,0.0,0.0,0.0,0.0,0.0,0.0,0.0,0.0,0.0,0.0,0.0,0.0,0.0,0.0,0.0,0.0,0.0,0.0,0.0,0.0,0.0,0.0,0.0,0.0,0.0,0.0,0.0,0.0,0.0,0.0,0.0,0.0,0.0,0.0,0.0,0.0,0.0,0.0,0.0,0.0,0.0,0.0,0.0,0.0,0.0,0.0,0.0,0.0,0.0,0.0,0.0,0.0,0.0,0.0,0.0,0.0,0.0,0.0,0.0,0.0,0.0,0.0,0.0,0.0,0.0,0.0,0.0,0.0,0.0,0.0,0.0,0.0,0.0,0.0,0.0,0.0,0.0,0.0,0.0,0.0,0.0,0.0,0.0,0.0,0.0,0.0,0.0,0.0,0.0,0.0,0.0,0.0,0.0,0.0,0.0,0.0,0.0,0.0,0.0,0.0,0.0,0.0,0.0,0.0,0.0,0.0,0.0,0.0,0.0,0.0,0.0,0.0,0.0,0.0,0.0,0.0,0.0,0.0,0.0,0.0,0.0,0.0,0.0,0.0,0.0,0.0,0.0,0.0,0.0,0.0,0.0,0.0,0.0,0.0,0.0,0.0,0.0,0.0,0.0,0.0,0.0,0.0,0.0,0.0,0.0,0.0,0.0,0.0,0.0,0.0,0.0,0.0,0.0,0.0,0.0,0.0,0.0,0.0,0.0,0.0,0.0,0.0,0.0,0.0,0.0,0.0,0.0,0.0,0.0,0.0,0.0,0.0,0.0,0.0,0.0,0.0,0.0,0.0,0.0,0.0,0.0,0.0,0.0,0.0,0.0,0.0,0.0,0.0,0.0,0.0,0.0,0.0,0.0,0.0,0.0,0.0,0.0,0.0,0.0,0.0,0.0,0.0,0.0,0.0,0.0,0.0,0.0,0.0,0.0,0.0,0.0,0.0,0.0,0.0,0.0,0.0,0.0,0.0,0.0,0.0,0.0,0.0,0.0,0.0,0.0,0.0,0.0,0.0,0.0,0.0,0.0,0.0,0.0,0.0,0.0,0.0,0.0,0.0,0.0,0.0,0.0,0.0,0.0,0.0,0.0,0.0,0.0,0.0,0.0,0.0,0.0,0.0,0.0,0.0,0.0,0.0,0.0,0.0,0.0,0.0,0.0,0.0,0.0,0.0,0.0,0.0,0.0,0.0,0.0,0.0,0.0,0.0,0.0,0.0,0.0,0.0,0.0,0.0,0.0,0.0,0.0,0.0,0.0,0.0,0.0,0.0,0.0,0.0,0.0,0.0,0.0,0.0,0.0,0.0,0.0,0.0,0.0,0.0,0.0,0.0,0.0,0.0,0.0,0.0,0.0,0.0,0.0,0.0,0.0,0.0,0.0,0.0,0.0,0.0,0.0,0.0,0.0,0.0,0.0,0.0,0.0,0.0,0.0,0.0,0.0,0.0,0.0,0.0,0.0,0.0,0.0,0.0,0.0,0.0,0.0,0.0,0.0,0.0,0.0,0.0,0.0,0.0,0.0,0.0,0.0,0.0,0.0,0.0,0.0,0.0,0.0,0.0,0.0,0.0,0.0,0.0,0.0,0.0,0.0,0.0,0.0,0.0,0.0,0.0,0.0,0.0,0.0,0.0,0.0,0.0,0.0,0.0,0.0,0.0,0.0,0.0,0.0,0.0,0.0,0.0,0.0,0.0,0.0,0.0,0.0,0.0,0.0,0.0,0.0,0.0,0.0,0.0,0.0,0.0,0.0,0.0,0.0,0.0,0.0,0.0,0.0,0.0,0.0,0.0,0.0,0.0,0.0,0.0,0.0,0.0,0.0,0.0,0.0,0.0,0.0,0.0,0.0,0.0,0.0,0.0,0.0,0.0,0.0,0.0,0.0,0.0,0.0,0.0,0.0,0.0,0.0,0.0,0.0,0.0,0.0,0.0,0.0,0.0,0.0,0.0,0.0,0.0,0.0,0.0,0.0,0.0,0.0,0.0,0.0,0.0,0.0,0.0,0.0,0.0,0.0,0.0,0.0,0.0,0.0,0.0,0.0,0.0,0.0,0.0,0.0,0.0,0.0,0.0,0.0,0.0,0.0,0.0,0.0,0.0,0.0,0.0,0.0,0.0,0.0,0.0,0.0,0.0,0.0,0.0,0.0,0.0,0.0,0.0,0.0,0.0,0.0,0.0,0.0,0.0,0.0,0.0,0.0,0.0,0.0,0.0,0.0,0.0,0.0,0.0,0.0,0.0,0.0,0.0,0.0,0.0,0.0,0.0,0.0,0.0,0.0,0.0,0.0,0.0,0.0,0.0,0.0,0.0,0.0,0.0,0.0,0.0,0.0,0.0,0.0,0.0,0.0,0.0,0.0,0.0,0.0,0.0,0.0,0.0,0.0,0.0,0.0,0.0,0.0,0.0,0.0,0.0,0.0,0.0,0.0,0.0,0.0,0.0,0.0,0.0,0.0,0.0,0.0,0.0,0.0,0.0,0.0,0.0,0.0,0.0,0.0,0.0,0.0,0.0,0.0,0.0,0.0,0.0,0.0,0.0,0.0,0.0,0.0,0.0,0.0,0.0,0.0,0.0,0.0,0.0,0.0,0.0,0.0,0.0,0.0,0.0,0.0,0.0,0.0,0.0,0.0,0.0,0.0,0.0,0.0,0.0,0.0,0.0,0.0,0.0,0.0,0.0,0.0,0.0,0.0,0.0,0.0,0.0,0.0,0.0,0.0,0.0,0.0,0.0,0.0,0.0,0.0,0.0,0.0,0.0,0.0,0.0,0.0,0.0,0.0,0.0,0.0,-2.3735,0.0,0.0,0.0,0.0,0.0,0.0,0.0,0.0,0.0,0.0,0.0,0.0,0.0,0.0,0.0,0.0,0.0,0.0,0.0,0.0,0.0,0.0,0.0,0.0,0.0,0.0,0.0,0.0,0.0,0.0,0.0,0.0,0.0,0.0,0.0,0.0,0.0,0.0,0.0,0.0,0.0,0.0,0.0,0.0,0.0,0.0,0.0,0.0,0.0,0.0,0.0,0.0,0.0,0.0,0.0,0.0,0.0,0.0,0.0,0.0,0.0,0.0,0.0,0.0,0.0,0.0,0.0,0.0,0.0,0.0,0.0,0.0,0.0,0.0,0.0,0.0,0.0,0.0,0.0,0.0,0.0,0.0,0.0,0.0,0.0,0.0,0.0,0.0,0.0,0.0,0.0,0.0,0.0,0.0,0.0,0.0,0.0,0.0,0.0,0.0,0.0,0.0,0.0,0.0,0.0,0.0,0.0,0.0,0.0,0.0,-2.4059,-2.4561,-2.4482,-2.4296,-2.3988,0.0,0.0,0.0,0.0,0.0,0.0,0.0,0.0,0.0,0.0,0.0,0.0,0.0,0.0,0.0,0.0,0.0,0.0,0.0,0.0,0.0,0.0,0.0,0.0,0.0,0.0,0.0,0.0,0.0,0.0,0.0,0.0,0.0,0.0,0.0,0.0,0.0,0.0,0.0,0.0,0.0,0.0,0.0,0.0,0.0,0.0,0.0,0.0,0.0,0.0,0.0,0.0,0.0,0.0,0.0,0.0,0.0,0.0,0.0,0.0,0.0,0.0,0.0,0.0,0.0,0.0,0.0,0.0,0.0,0.0,0.0,0.0,0.0,0.0,0.0,0.0,0.0,0.0,0.0,0.0,0.0,0.0,0.0,0.0,0.0,0.0,0.0,0.0,0.0,0.0,0.0,0.0,0.0,0.0,0.0,0.0,0.0,0.0,0.0,0.0,0.0,0.0,0.0,0.0,0.0,0.0,0.0,0.0,0.0,0.0,0.0,0.0,-2.5414,-2.5028,-2.4361,0.0,0.0,0.0,0.0,0.0,0.0,0.0,0.0,0.0,0.0,0.0,0.0,0.0,0.0,0.0,0.0,0.0,0.0,0.0,0.0,0.0,0.0,0.0,0.0,0.0,0.0,0.0,0.0,0.0,0.0,0.0,0.0,0.0,0.0,0.0,0.0,0.0,0.0,0.0,0.0,0.0,0.0,0.0,0.0,0.0,0.0,0.0,0.0,0.0,0.0,0.0,0.0,0.0,0.0,0.0,0.0,0.0,0.0,0.0,0.0,0.0,0.0,0.0,0.0,0.0,0.0,0.0,0.0,0.0,0.0,0.0,0.0,0.0,0.0,0.0,0.0,0.0,0.0,0.0,0.0,0.0,0.0,0.0,0.0,0.0,0.0,0.0,0.0,0.0,0.0,0.0,0.0,0.0,0.0,0.0,0.0,0.0,0.0,0.0,0.0,0.0,0.0,0.0,0.0,0.0,0.0,0.0,0.0,0.0,0.0,-2.5803,-2.7558,-2.7182,0.0,-2.5511,0.0,0.0,0.0,0.0,0.0,0.0,0.0,0.0,0.0,0.0,0.0,0.0,0.0,0.0,0.0,0.0,0.0,0.0,0.0,0.0,0.0,0.0,0.0,0.0,0.0,0.0,0.0,0.0,0.0,0.0,0.0,0.0,0.0,0.0,0.0,0.0,0.0,0.0,0.0,0.0,0.0,0.0,0.0,0.0,0.0,0.0,0.0,0.0,0.0,0.0,0.0,0.0,0.0,0.0,0.0,0.0,0.0,0.0,0.0,0.0,0.0,0.0,0.0,0.0,0.0,0.0,0.0,0.0,0.0,0.0,0.0,0.0,0.0,0.0,0.0,0.0,0.0,0.0,0.0,0.0,0.0,0.0,0.0,0.0,0.0,0.0,0.0,0.0,0.0,0.0,0.0,0.0,0.0,0.0,0.0,0.0,0.0,0.0,0.0,0.0,0.0,0.0,0.0,0.0,0.0,0.0,0.0,0.0,0.0,0.0,-2.7086,-2.789,-2.7485,-2.673,0.0,0.0,0.0,0.0,0.0,0.0,0.0,0.0,0.0,0.0,0.0,0.0,0.0,0.0,0.0,0.0,0.0,0.0,0.0,0.0,0.0,0.0,0.0,0.0,0.0,0.0,0.0,0.0,0.0,0.0,0.0,0.0,0.0,0.0,0.0,0.0,0.0,0.0,0.0,0.0,0.0,0.0,0.0,0.0,0.0,0.0,0.0,0.0,0.0,0.0,0.0,0.0,0.0,0.0,0.0,0.0,0.0,0.0,0.0,0.0,0.0,0.0,0.0,0.0,0.0,0.0,0.0,0.0,0.0,0.0,0.0,0.0,0.0,0.0,0.0,0.0,0.0,0.0,0.0,0.0,0.0,0.0,0.0,0.0,0.0,0.0,0.0,0.0,0.0,0.0,0.0,0.0,0.0,0.0,0.0,0.0,0.0,0.0,0.0,0.0,0.0,0.0,0.0,0.0,0.0,0.0,0.0,0.0,0.0,0.0,-2.7192,-2.8057,-2.8364,-2.8305,-2.7436,-2.5679,0.0,0.0,0.0,0.0,0.0,0.0,0.0,0.0,0.0,0.0,0.0,0.0,0.0,0.0,0.0,0.0,0.0,0.0,0.0,0.0,0.0,0.0,0.0,0.0,0.0,0.0,0.0,0.0,0.0,0.0,0.0,0.0,0.0,0.0,0.0,0.0,0.0,0.0,0.0,0.0,0.0,0.0,0.0,0.0,0.0,0.0,0.0,0.0,0.0,0.0,0.0,0.0,0.0,0.0,0.0,0.0,0.0,0.0,0.0,0.0,0.0,0.0,0.0,0.0,0.0,0.0,0.0,0.0,0.0,0.0,0.0,0.0,0.0,0.0,0.0,0.0,0.0,0.0,0.0,0.0,0.0,0.0,0.0,0.0,0.0,0.0,0.0,0.0,0.0,0.0,0.0,0.0,0.0,0.0,0.0,0.0,0.0,0.0,0.0,0.0,0.0,0.0,0.0,0.0,0.0,0.0,0.0,0.0,-2.9196,-2.8441,-2.8447,-2.9616,-3.0283,-2.9063,0.0,0.0,0.0,0.0,0.0,0.0,0.0,0.0,0.0,0.0,0.0,0.0,0.0,0.0,0.0,0.0,0.0,0.0,0.0,0.0,0.0,0.0,0.0,0.0,0.0,0.0,0.0,0.0,0.0,0.0,0.0,0.0,0.0,0.0,0.0,0.0,0.0,0.0,0.0,0.0,0.0,0.0,0.0,0.0,0.0,0.0,0.0,0.0,0.0,0.0,0.0,0.0,0.0,0.0,0.0,0.0,0.0,0.0,0.0,0.0,0.0,0.0,0.0,0.0,0.0,0.0,0.0,0.0,0.0,0.0,0.0,0.0,0.0,0.0,0.0,0.0,0.0,0.0,0.0,0.0,0.0,0.0,0.0,0.0,0.0,0.0,0.0,0.0,0.0,0.0,0.0,0.0,0.0,0.0,0.0,0.0,0.0,0.0,0.0,0.0,0.0,0.0,0.0,0.0,0.0,0.0,0.0,0.0,0.0,-2.6499,-2.7445,-2.9224,-3.1808,-2.9792,-2.8364,0.0,0.0,0.0,0.0,0.0,0.0,0.0,0.0,0.0,0.0,0.0,0.0,0.0,0.0,0.0,0.0,0.0,0.0,0.0,0.0,0.0,0.0,0.0,0.0,0.0,0.0,0.0,0.0,0.0,0.0,0.0,0.0,0.0,0.0,0.0,0.0,0.0,0.0,0.0,0.0,0.0,0.0,0.0,0.0,0.0,0.0,0.0,0.0,0.0,0.0,0.0,0.0,0.0,0.0,0.0,0.0,0.0,0.0,0.0,0.0,0.0,0.0,0.0,0.0,0.0,0.0,0.0,0.0,0.0,0.0,0.0,0.0,0.0,0.0,0.0,0.0,0.0,0.0,0.0,0.0,0.0,0.0,0.0,0.0,0.0,0.0,0.0,0.0,0.0,0.0,0.0,0.0,0.0,0.0,0.0,0.0,0.0,0.0,0.0,0.0,0.0,0.0,0.0,0.0,0.0,0.0,0.0,0.0,0.0,-2.6977,0.0,-3.1092,-3.2411,-3.0203,-2.8404,0.0,0.0,0.0,0.0,0.0,0.0,0.0,0.0,0.0,0.0,0.0,0.0,0.0,0.0,0.0,0.0,0.0,0.0,0.0,0.0,0.0,0.0,0.0,0.0,0.0,0.0,0.0,0.0,0.0,0.0,0.0,0.0,0.0,0.0,0.0,0.0,0.0,0.0,0.0,0.0,0.0,0.0,0.0,0.0,0.0,0.0,0.0,0.0,0.0,0.0,0.0,0.0,0.0,0.0,0.0,0.0,0.0,0.0,0.0,0.0,0.0,0.0,0.0,0.0,0.0,0.0,0.0,0.0,0.0,0.0,0.0,0.0,0.0,0.0,0.0,0.0,0.0,0.0,0.0,0.0,0.0,0.0,0.0,0.0,0.0,0.0,0.0,0.0,0.0,0.0,0.0,0.0,0.0,0.0,0.0,0.0,0.0,0.0,0.0,0.0,0.0,0.0,0.0,0.0,0.0,0.0,0.0,0.0,-2.642,-3.1392,-3.3955,-3.3925,-3.1324,-3.1749,-2.9336,0.0,0.0,0.0,0.0,0.0,0.0,0.0,0.0,0.0,0.0,0.0,0.0,0.0,0.0,0.0,0.0,0.0,0.0,0.0,0.0,0.0,0.0,0.0,0.0,0.0,0.0,0.0,0.0,0.0,0.0,0.0,0.0,0.0,0.0,0.0,0.0,0.0,0.0,0.0,0.0,0.0,0.0,0.0,0.0,0.0,0.0,0.0,0.0,0.0,0.0,0.0,0.0,0.0,0.0,0.0,0.0,0.0,0.0,0.0,0.0,0.0,0.0,0.0,0.0,0.0,0.0,0.0,0.0,0.0,0.0,0.0,0.0,0.0,0.0,0.0,0.0,0.0,0.0,0.0,0.0,0.0,0.0,0.0,0.0,0.0,0.0,0.0,0.0,0.0,0.0,0.0,0.0,0.0,0.0,0.0,0.0,0.0,0.0,0.0,0.0,0.0,0.0,0.0,0.0,0.0,0.0,0.0,0.0,0.0,-2.9729,-3.2321,-3.419,-3.5015,-3.2147,-3.0081,0.0,0.0,0.0,0.0,0.0,0.0,0.0,0.0,0.0,0.0,0.0,0.0,0.0,0.0,0.0,0.0,0.0,0.0,0.0,0.0,0.0,0.0,0.0,0.0,0.0,0.0,0.0,0.0,0.0,0.0,0.0,0.0,0.0,0.0,0.0,0.0,0.0,0.0,0.0,0.0,0.0,0.0,0.0,0.0,0.0,0.0,0.0,0.0,0.0,0.0,0.0,0.0,0.0,0.0,0.0,0.0,0.0,0.0,0.0,0.0,0.0,0.0,0.0,0.0,0.0,0.0,0.0,0.0,0.0,0.0,0.0,0.0,0.0,0.0,0.0,0.0,0.0,0.0,0.0,0.0,0.0,0.0,0.0,0.0,0.0,0.0,0.0,0.0,0.0,0.0,0.0,0.0,0.0,0.0,0.0,0.0,0.0,0.0,0.0,0.0,0.0,0.0,0.0,0.0,0.0,0.0,0.0,0.0,0.0,-3.1657,-3.4592,-3.6485,-3.7068,-3.3545,-3.1075,-2.9876,0.0,0.0,0.0,0.0,0.0,0.0,0.0,0.0,0.0,0.0,0.0,0.0,0.0,0.0,0.0,0.0,0.0,0.0,0.0,0.0,0.0,0.0,0.0,0.0,0.0,0.0,0.0,0.0,0.0,0.0,0.0,0.0,0.0,0.0,0.0,0.0,0.0,0.0,0.0,0.0,0.0,0.0,0.0,0.0,0.0,0.0,0.0,0.0,0.0,0.0,0.0,0.0,0.0,0.0,0.0,0.0,0.0,0.0,0.0,0.0,0.0,0.0,0.0,0.0,0.0,0.0,0.0,0.0,0.0,0.0,0.0,0.0,0.0,0.0,0.0,0.0,0.0,0.0,0.0,0.0,0.0,0.0,0.0,0.0,0.0,0.0,0.0,0.0,0.0,0.0,0.0,0.0,0.0,0.0,0.0,0.0,0.0,0.0,0.0,0.0,0.0,0.0,0.0,0.0,0.0,0.0,0.0,0.0,-3.6205,-3.996,-4.0557,-3.7724,-3.591,-3.254,0.0,0.0,0.0,0.0,0.0,0.0,0.0,0.0,0.0,0.0,0.0,0.0,0.0,0.0,0.0,0.0,0.0,0.0,0.0,0.0,0.0,0.0,0.0,0.0,0.0,0.0,0.0,0.0,0.0,0.0,0.0,0.0,0.0,0.0,0.0,0.0,0.0,0.0,0.0,0.0,0.0,0.0,0.0,0.0,0.0,0.0,0.0,0.0,0.0,0.0,0.0,0.0,0.0,0.0,0.0,0.0,0.0,0.0,0.0,0.0,0.0,0.0,0.0,0.0,0.0,0.0,0.0,0.0,0.0,0.0,0.0,0.0,0.0,0.0,0.0,0.0,0.0,0.0,0.0,0.0,0.0,0.0,0.0,0.0,0.0,0.0,0.0,0.0,0.0,0.0,0.0,0.0,0.0,0.0,0.0,0.0,0.0,0.0,0.0,0.0,0.0,0.0,0.0,0.0,0.0,0.0,0.0,0.0,0.0,-3.7856,-4.175,-4.3297,-4.2184,-3.8883,-3.5528,0.0,0.0,0.0,0.0,0.0,0.0,0.0,0.0,0.0,0.0,0.0,0.0,0.0,0.0,0.0,0.0,0.0,0.0,0.0,0.0,0.0,0.0,0.0,0.0,0.0,0.0,0.0,0.0,0.0,0.0,0.0,0.0,0.0,0.0,0.0,0.0,0.0,0.0,0.0,0.0,0.0,0.0,0.0,0.0,0.0,0.0,0.0,0.0,0.0,0.0,0.0,0.0,0.0,0.0,0.0,0.0,0.0,0.0,0.0,0.0,0.0,0.0,0.0,0.0,0.0,0.0,0.0,0.0,0.0,0.0,0.0,0.0,0.0,0.0,0.0,0.0,0.0,0.0,0.0,0.0,0.0,0.0,0.0,0.0,0.0,0.0,0.0,0.0,0.0,0.0,0.0,0.0,0.0,0.0,0.0,0.0,0.0,0.0,0.0,0.0,0.0,0.0,0.0,0.0,0.0,0.0,0.0,0.0,-3.5869,-3.9452,-4.3481,-4.5486,-4.5312,-4.1526,-3.7579,0.0,0.0,0.0,0.0,0.0,0.0,0.0,0.0,0.0,0.0,0.0,0.0,0.0,0.0,0.0,0.0,0.0,0.0,0.0,0.0,0.0,0.0,0.0,0.0,0.0,0.0,0.0,0.0,0.0,0.0,0.0,0.0,0.0,0.0,0.0,0.0,0.0,0.0,0.0,0.0,0.0,0.0,0.0,0.0,0.0,0.0,0.0,0.0,0.0,0.0,0.0,0.0,0.0,0.0,0.0,0.0,0.0,0.0,0.0,0.0,0.0,0.0,0.0,0.0,0.0,0.0,0.0,0.0,0.0,0.0,0.0,0.0,0.0,0.0,0.0,0.0,0.0,0.0,0.0,0.0,0.0,0.0,0.0,0.0,0.0,0.0,0.0,0.0,0.0,0.0,0.0,0.0,0.0,0.0,0.0,0.0,0.0,0.0,0.0,0.0,0.0,0.0,0.0,0.0,0.0,0.0,0.0,0.0,-3.7166,-4.094,-4.4919,-4.7019,-4.7003,-4.3582,-3.9043,0.0,0.0,0.0,0.0,0.0,0.0,0.0,0.0,0.0,0.0,0.0,0.0,0.0,0.0,0.0,0.0,0.0,0.0,0.0,0.0,0.0,0.0,0.0,0.0,0.0,0.0,0.0,0.0,0.0,0.0,0.0,0.0,0.0,0.0,0.0,0.0,0.0,0.0,0.0,0.0,0.0,0.0,0.0,0.0,0.0,0.0,0.0,0.0,0.0,0.0,0.0,0.0,0.0,0.0,0.0,0.0,0.0,0.0,0.0,0.0,0.0,0.0,0.0,0.0,0.0,0.0,0.0,0.0,0.0,0.0,0.0,0.0,0.0,0.0,0.0,0.0,0.0,0.0,0.0,0.0,0.0,0.0,0.0,0.0,0.0,0.0,0.0,0.0,0.0,0.0,0.0,0.0,0.0,0.0,0.0,0.0,0.0,0.0,0.0,0.0,0.0,0.0,0.0,0.0,0.0,0.0,0.0,0.0,-3.7998,-4.17,-4.4813,-4.6633,-4.7075,-4.3894,-4.0364,0.0,0.0,0.0,0.0,0.0,0.0,0.0,0.0,0.0,0.0,0.0,0.0,0.0,0.0,0.0,0.0,0.0,0.0,0.0,0.0,0.0,0.0,0.0,0.0,0.0,0.0,0.0,0.0,0.0,0.0,0.0,0.0,0.0,0.0,0.0,0.0,0.0,0.0,0.0,0.0,0.0,0.0,0.0,0.0,0.0,0.0,0.0,0.0,-3.2476,0.0,0.0,0.0,0.0,0.0,0.0,0.0,0.0,0.0,0.0,0.0,0.0,0.0,0.0,0.0,0.0,0.0,0.0,0.0,0.0,0.0,0.0,0.0,0.0,0.0,0.0,0.0,0.0,0.0,0.0,0.0,0.0,0.0,0.0,0.0,0.0,0.0,0.0,0.0,0.0,0.0,0.0,0.0,0.0,0.0,0.0,0.0,0.0,0.0,0.0,0.0,0.0,0.0,0.0,0.0,0.0,0.0,0.0,0.0,-3.8729,-4.2062,-4.5129,-4.6771,-4.6705,-4.4356,-4.127,0.0,0.0,0.0,0.0,0.0,0.0,0.0,0.0,0.0,0.0,0.0,0.0,0.0,0.0,0.0,0.0,0.0,0.0,0.0,0.0,0.0,0.0,0.0,0.0,0.0,0.0,0.0,0.0,0.0,0.0,0.0,0.0,0.0,0.0,0.0,0.0,0.0,0.0,0.0,0.0,0.0,0.0,0.0,0.0,0.0,0.0,0.0,0.0,0.0,0.0,0.0,0.0,0.0,0.0,0.0,0.0,0.0,0.0,0.0,0.0,0.0,0.0,0.0,0.0,0.0,0.0,0.0,0.0,0.0,0.0,0.0,0.0,0.0,0.0,0.0,0.0,0.0,0.0,0.0,0.0,0.0,0.0,0.0,0.0,0.0,0.0,0.0,0.0,0.0,0.0,0.0,0.0,0.0,0.0,0.0,0.0,0.0,0.0,0.0,0.0,0.0,0.0,0.0,0.0,0.0,0.0,0.0,-3.5124,-3.9097,-4.2332,-4.5453,-4.6793,-4.6218,-4.465,-4.1841,-3.7607,0.0,0.0,0.0,0.0,0.0,0.0,0.0,0.0,0.0,0.0,0.0,0.0,0.0,0.0,0.0,0.0,0.0,0.0,0.0,0.0,0.0,0.0,0.0,0.0,0.0,0.0,0.0,0.0,0.0,0.0,0.0,0.0,0.0,0.0,0.0,0.0,0.0,0.0,-1.9579,-2.6825,0.0,0.0,0.0,0.0,0.0,0.0,0.0,0.0,-3.2827,0.0,0.0,0.0,0.0,0.0,0.0,0.0,0.0,0.0,0.0,0.0,0.0,0.0,0.0,0.0,0.0,0.0,0.0,0.0,0.0,0.0,0.0,0.0,0.0,0.0,0.0,0.0,0.0,0.0,0.0,0.0,0.0,0.0,0.0,0.0,0.0,0.0,0.0,0.0,0.0,0.0,0.0,0.0,0.0,0.0,0.0,0.0,0.0,0.0,0.0,0.0,0.0,0.0,0.0,0.0,0.0,-3.308,-3.5217,-3.8497,-4.3031,-4.4896,-4.5698,-4.5439,-4.4115,-4.1618,-3.7766,0.0,0.0,0.0,0.0,0.0,0.0,0.0,0.0,0.0,0.0,0.0,0.0,0.0,0.0,0.0,0.0,0.0,0.0,0.0,0.0,0.0,0.0,0.0,0.0,0.0,0.0,0.0,0.0,0.0,0.0,0.0,0.0,0.0,0.0,0.0,0.0,0.0,0.0,0.0,-2.5568,-3.0211,0.0,0.0,0.0,0.0,0.0,0.0,0.0,0.0,-3.274,0.0,0.0,0.0,0.0,0.0,0.0,0.0,0.0,0.0,0.0,0.0,0.0,0.0,0.0,0.0,0.0,0.0,0.0,0.0,0.0,0.0,0.0,0.0,0.0,0.0,0.0,0.0,0.0,0.0,0.0,0.0,0.0,0.0,0.0,0.0,0.0,0.0,0.0,0.0,0.0,0.0,0.0,0.0,0.0,0.0,0.0,0.0,0.0,0.0,0.0,0.0,0.0,0.0,0.0,0.0,-3.2644,-3.5603,-3.8916,-4.2689,-4.4198,-4.4732,-4.4298,-4.2129,-3.9658,0.0,0.0,0.0,0.0,0.0,0.0,0.0,0.0,0.0,0.0,0.0,0.0,0.0,0.0,0.0,0.0,0.0,0.0,0.0,0.0,0.0,0.0,0.0,0.0,0.0,0.0,0.0,0.0,0.0,0.0,0.0,0.0,0.0,0.0,0.0,0.0,0.0,0.0,0.0,0.0,-3.029,-3.4881,-4.0424,0.0,0.0,0.0,0.0,0.0,0.0,-3.5582,-3.3665,0.0,0.0,0.0,0.0,0.0,0.0,0.0,0.0,0.0,0.0,0.0,0.0,0.0,0.0,0.0,0.0,0.0,0.0,0.0,0.0,0.0,0.0,0.0,0.0,0.0,0.0,0.0,0.0,0.0,0.0,0.0,0.0,0.0,0.0,0.0,0.0,0.0,0.0,0.0,0.0,0.0,0.0,0.0,0.0,0.0,0.0,0.0,0.0,0.0,0.0,0.0,0.0,0.0,0.0,0.0,-3.1598,-3.5428,-3.8832,-4.1752,-4.3254,-4.3631,-4.2912,-4.0439,-3.794,0.0,0.0,0.0,0.0,0.0,0.0,0.0,0.0,0.0,0.0,0.0,0.0,0.0,0.0,0.0,0.0,0.0,0.0,0.0,0.0,0.0,0.0,0.0,0.0,0.0,0.0,0.0,0.0,0.0,0.0,0.0,0.0,0.0,0.0,0.0,0.0,0.0,0.0,0.0,0.0,0.0,-4.0972,-4.411,-4.0488,0.0,0.0,0.0,0.0,-3.8452,-3.712,0.0,0.0,0.0,0.0,0.0,0.0,0.0,0.0,0.0,0.0,0.0,0.0,0.0,0.0,0.0,0.0,0.0,0.0,0.0,0.0,0.0,0.0,0.0,0.0,0.0,0.0,0.0,0.0,0.0,0.0,0.0,0.0,0.0,0.0,0.0,0.0,0.0,0.0,0.0,0.0,0.0,0.0,0.0,0.0,0.0,0.0,0.0,0.0,0.0,0.0,0.0,0.0,0.0,0.0,0.0,0.0,-3.0738,-3.3806,-3.6971,-4.0194,-4.1786,-4.2206,-4.1474,-4.0476,-3.8096,0.0,0.0,0.0,0.0,0.0,0.0,0.0,0.0,0.0,0.0,0.0,0.0,0.0,0.0,0.0,0.0,0.0,0.0,0.0,0.0,0.0,0.0,0.0,0.0,0.0,0.0,0.0,0.0,0.0,0.0,0.0,0.0,0.0,0.0,0.0,0.0,0.0,0.0,0.0,0.0,0.0,-4.4989,-4.7961,-4.268,-3.7752,0.0,0.0,-3.7762,-3.9389,-3.9758,0.0,0.0,0.0,0.0,0.0,0.0,0.0,0.0,0.0,0.0,0.0,0.0,0.0,0.0,0.0,0.0,0.0,0.0,0.0,0.0,0.0,0.0,0.0,0.0,0.0,0.0,0.0,0.0,0.0,0.0,0.0,0.0,0.0,0.0,0.0,0.0,0.0,0.0,0.0,0.0,0.0,0.0,0.0,0.0,0.0,0.0,0.0,0.0,0.0,0.0,0.0,0.0,0.0,0.0,0.0,-2.6518,-3.0139,-3.409,-3.7367,-4.0001,-4.0745,-4.0742,-4.0007,-3.7283,-3.4431,0.0,0.0,0.0,0.0,0.0,0.0,0.0,0.0,0.0,0.0,0.0,0.0,0.0,0.0,0.0,0.0,0.0,0.0,0.0,0.0,0.0,0.0,0.0,0.0,0.0,0.0,0.0,0.0,0.0,0.0,0.0,0.0,0.0,0.0,0.0,0.0,0.0,0.0,0.0,0.0,0.0,0.0,-4.8187,-4.4235,0.0,0.0,0.0,-3.9412,-3.9642,0.0,0.0,0.0,0.0,0.0,0.0,0.0,0.0,0.0,0.0,0.0,0.0,0.0,0.0,0.0,0.0,0.0,0.0,0.0,0.0,0.0,0.0,0.0,0.0,0.0,0.0,0.0,0.0,0.0,0.0,0.0,0.0,0.0,0.0,0.0,0.0,0.0,0.0,0.0,0.0,0.0,0.0,0.0,0.0,0.0,0.0,0.0,0.0,0.0,0.0,0.0,0.0,0.0,0.0,0.0,0.0,0.0,-2.9419,-3.3988,-3.7263,-3.9162,-3.9413,-3.9182,-3.8482,-3.4952,0.0,0.0,0.0,0.0,0.0,0.0,0.0,0.0,0.0,0.0,0.0,0.0,0.0,0.0,0.0,0.0,0.0,0.0,0.0,0.0,0.0,0.0,0.0,0.0,0.0,0.0,0.0,-1.0862,0.0,0.0,0.0,0.0,0.0,0.0,0.0,0.0,0.0,0.0,0.0,0.0,0.0,0.0,-4.0443,-4.7928,-4.5223,-4.1319,0.0,0.0,-4.025,-3.9859,-4.0427,-3.9456,0.0,0.0,0.0,0.0,0.0,0.0,0.0,0.0,0.0,0.0,0.0,0.0,0.0,0.0,0.0,0.0,0.0,0.0,0.0,0.0,0.0,0.0,0.0,0.0,0.0,0.0,0.0,0.0,0.0,0.0,0.0,0.0,0.0,0.0,0.0,0.0,0.0,0.0,0.0,0.0,0.0,0.0,0.0,0.0,0.0,0.0,0.0,0.0,0.0,0.0,0.0,0.0,0.0,0.0,-2.61,-2.8726,-3.2736,-3.5506,-3.6798,-3.7578,-3.7648,-3.6966,-3.5364,-3.2692,0.0,0.0,0.0,0.0,0.0,0.0,0.0,0.0,0.0,0.0,0.0,0.0,0.0,0.0,0.0,0.0,0.0,0.0,0.0,0.0,0.0,0.0,0.0,0.0,0.0,0.0,0.0,0.0,0.0,0.0,0.0,0.0,0.0,0.0,0.0,0.0,0.0,0.0,0.0,0.0,0.0,-4.1273,-4.8065,-4.5309,-4.1781,0.0,-3.9346,-3.9667,-4.0274,-4.2406,-4.182,-3.5559,0.0,0.0,0.0,0.0,0.0,0.0,0.0,0.0,0.0,0.0,0.0,0.0,0.0,0.0,0.0,0.0,0.0,0.0,0.0,0.0,0.0,0.0,0.0,0.0,0.0,0.0,0.0,0.0,0.0,0.0,0.0,0.0,0.0,0.0,0.0,0.0,0.0,0.0,0.0,0.0,0.0,0.0,0.0,0.0,0.0,0.0,0.0,0.0,0.0,0.0,0.0,0.0,0.0,-2.5063,-2.6865,-3.1236,-3.4125,-3.5388,-3.5743,-3.5587,-3.492,-3.3075,-3.0615,0.0,0.0,0.0,0.0,0.0,0.0,0.0,0.0,0.0,0.0,0.0,0.0,0.0,0.0,0.0,0.0,0.0,0.0,0.0,0.0,0.0,0.0,0.0,0.0,0.0,0.0,0.0,0.0,-1.7422,-1.8879,-1.9912,0.0,0.0,0.0,0.0,0.0,0.0,0.0,0.0,0.0,0.0,-3.9424,-4.4204,-4.3638,0.0,0.0,-4.1175,-4.1219,-4.1025,-4.116,-3.9888,-3.5774,-3.3336,0.0,0.0,0.0,0.0,0.0,0.0,0.0,0.0,0.0,0.0,0.0,0.0,0.0,0.0,0.0,0.0,0.0,0.0,0.0,0.0,0.0,0.0,0.0,0.0,0.0,0.0,0.0,0.0,0.0,0.0,0.0,0.0,0.0,0.0,0.0,0.0,0.0,0.0,0.0,0.0,0.0,0.0,0.0,0.0,0.0,0.0,0.0,0.0,0.0,0.0,0.0,0.0,-2.4312,-2.5785,-3.0137,-3.2988,-3.4324,-3.4355,-3.4017,-3.331,-3.166,-2.9471,0.0,0.0,0.0,0.0,0.0,0.0,0.0,0.0,0.0,0.0,0.0,0.0,0.0,0.0,0.0,0.0,0.0,0.0,0.0,0.0,0.0,0.0,0.0,0.0,0.0,0.0,0.0,0.0,-1.9568,-2.0256,-1.9947,0.0,0.0,0.0,0.0,0.0,0.0,0.0,0.0,0.0,0.0,-3.7594,-4.0608,-4.1474,-4.1541,-4.0919,-4.0949,-4.104,-4.0831,-4.0023,-3.8441,-3.5548,0.0,0.0,0.0,0.0,0.0,0.0,0.0,0.0,0.0,0.0,0.0,0.0,0.0,0.0,0.0,0.0,0.0,0.0,0.0,0.0,0.0,0.0,0.0,0.0,0.0,0.0,0.0,-1.6547,0.0,0.0,-1.6522,0.0,0.0,0.0,0.0,0.0,0.0,0.0,0.0,0.0,0.0,0.0,0.0,0.0,0.0,0.0,0.0,0.0,0.0,0.0,0.0,0.0,0.0,-2.3893,-2.5799,-2.9514,-3.2138,-3.3471,-3.3546,-3.3201,-3.2556,-3.1854,-2.9903,-2.6539,0.0,0.0,0.0,0.0,0.0,0.0,0.0,0.0,0.0,0.0,0.0,0.0,0.0,0.0,0.0,0.0,0.0,0.0,0.0,0.0,0.0,0.0,0.0,0.0,0.0,0.0,-2.0871,-2.0454,-1.9421,0.0,0.0,0.0,0.0,0.0,0.0,0.0,0.0,0.0,-3.1091,-3.3834,-3.6217,-3.7968,-3.8954,-3.9254,-3.8427,-3.8288,-3.8546,-3.9394,-3.9409,-3.8213,0.0,0.0,0.0,0.0,0.0,0.0,0.0,0.0,0.0,0.0,0.0,0.0,0.0,0.0,0.0,0.0,0.0,0.0,0.0,0.0,0.0,0.0,0.0,0.0,0.0,0.0,0.0,-1.8869,-1.8157,0.0,0.0,0.0,0.0,0.0,0.0,0.0,0.0,0.0,0.0,0.0,-2.3849,-2.3823,0.0,0.0,0.0,0.0,0.0,0.0,0.0,0.0,0.0,0.0,0.0,0.0,-2.2793,-2.5199,-2.8001,-3.035,-3.2079,-3.2198,-3.2078,-3.1854,-3.0661,-2.8269,-2.4573,0.0,0.0,0.0,0.0,0.0,0.0,0.0,0.0,0.0,0.0,0.0,0.0,0.0,0.0,0.0,0.0,0.0,0.0,0.0,0.0,0.0,0.0,0.0,0.0,0.0,-1.7888,0.0,0.0,0.0,0.0,0.0,0.0,0.0,0.0,0.0,0.0,0.0,-2.8975,-3.2408,-3.4852,-3.685,-3.8098,-3.8451,-3.8781,0.0,0.0,0.0,0.0,0.0,0.0,0.0,0.0,0.0,0.0,0.0,0.0,0.0,0.0,-2.8013,-2.5281,-2.5078,-2.514,-2.4381,0.0,0.0,0.0,0.0,0.0,0.0,0.0,0.0,0.0,0.0,0.0,0.0,0.0,0.0,-1.9955,-1.9288,-1.9508,0.0,0.0,0.0,0.0,0.0,0.0,0.0,0.0,-2.3206,-2.4261,-2.5289,-2.5082,-2.4416,0.0,-2.3124,-2.1714,0.0,0.0,0.0,0.0,0.0,0.0,0.0,0.0,-2.1992,-2.4169,-2.6731,-2.8941,-3.0659,-3.0748,-3.0866,-3.1058,-2.9397,-2.6982,-2.3864,-2.2204,-2.045,0.0,0.0,0.0,0.0,0.0,0.0,0.0,0.0,0.0,0.0,0.0,0.0,0.0,0.0,0.0,0.0,0.0,0.0,0.0,0.0,0.0,0.0,0.0,-1.7904,0.0,0.0,0.0,0.0,0.0,0.0,0.0,0.0,0.0,-2.4546,-2.7055,-2.9979,-3.3064,-3.5103,-3.6426,-3.6675,0.0,0.0,0.0,0.0,0.0,0.0,0.0,-3.4939,-3.3802,-3.1933,-3.0551,-3.0556,-3.0912,-3.0904,-2.9967,0.0,0.0,-2.7523,-2.7564,-2.7803,-2.6949,-2.7557,-2.7996,-2.7457,-2.8348,-2.8723,0.0,0.0,0.0,0.0,0.0,0.0,0.0,0.0,-2.1952,-2.1126,0.0,-2.0581,0.0,0.0,0.0,0.0,-1.9258,-2.1794,0.0,0.0,-2.4886,-2.5651,-2.5861,-2.5218,-2.4582,-2.4142,-2.5046,-2.413,-2.1612,-1.9962,0.0,0.0,0.0,0.0,0.0,0.0,-2.1605,-2.2938,-2.5865,-2.8051,-2.9261,-2.9275,-2.9518,-3.0079,-2.8029,-2.6043,-2.4416,-2.3013,-2.1317,-1.9208,-1.8581,0.0,0.0,0.0,0.0,0.0,0.0,0.0,0.0,0.0,0.0,0.0,0.0,0.0,0.0,0.0,0.0,0.0,0.0,0.0,0.0,-1.5685,0.0,0.0,0.0,0.0,0.0,0.0,0.0,0.0,0.0,0.0,-2.6143,-2.8241,-3.0623,-3.3059,0.0,0.0,0.0,0.0,-3.5364,-3.5166,-3.5844,-3.6413,-3.6086,-3.5884,-3.5142,-3.3143,0.0,0.0,-3.0199,-3.0498,-3.0885,-3.0093,-3.0016,-3.0204,-3.1217,-3.1055,-3.0829,-3.0524,-3.0118,-3.0068,-3.0532,-3.0896,-3.0996,-2.955,0.0,0.0,0.0,0.0,-2.6106,-2.6175,-2.6778,-2.5874,-2.4738,-2.3331,-2.3165,0.0,0.0,0.0,0.0,0.0,0.0,-2.322,-2.4391,-2.4886,-2.5492,-2.6286,-2.611,-2.5699,-2.5159,-2.5448,-2.4795,-2.3301,-2.2397,-2.0548,-1.8028,0.0,0.0,0.0,0.0,-2.1835,-2.3867,-2.5216,-2.651,-2.786,-2.7902,-2.769,-2.7291,-2.6283,-2.5219,-2.4157,-2.2942,-2.1832,-2.0828,-1.9861,0.0,0.0,0.0,0.0,0.0,0.0,0.0,0.0,0.0,0.0,0.0,0.0,0.0,0.0,0.0,0.0,0.0,0.0,0.0,-1.7232,-1.8981,-2.018,0.0,0.0,0.0,0.0,0.0,0.0,0.0,0.0,0.0,-2.8499,-2.9581,-3.0858,0.0,0.0,-3.2969,-3.339,-3.3988,-3.4699,-3.5662,-3.5941,0.0,-3.6582,-3.5347,-3.4084,-3.3555,-3.3191,-3.2663,-3.1719,-3.2453,-3.298,-3.224,-3.2193,-3.2284,-3.2528,-3.2536,-3.2162,-3.141,-3.1336,-3.1549,-3.175,-3.2202,-3.2214,-3.2362,-3.0821,-2.9226,-2.8895,-2.9405,-2.8767,-2.892,-2.9538,-2.8278,-2.7315,-2.6557,-2.547,-2.4354,-2.3251,-2.2401,0.0,0.0,0.0,-2.4702,-2.5627,-2.5858,-2.6133,-2.6496,-2.6521,-2.6345,-2.595,-2.5937,-2.5485,-2.4619,-2.4079,-2.2472,-1.9899,0.0,-1.9685,-1.9698,-2.0552,-2.186,-2.354,-2.4432,-2.54,-2.644,-2.6685,-2.6411,-2.5584,-2.5247,-2.4728,-2.3991,-2.3339,-2.2623,-2.1845,-2.0953,-1.9974,0.0,0.0,0.0,0.0,0.0,0.0,0.0,0.0,0.0,0.0,0.0,-1.3574,-1.3164,0.0,0.0,0.0,-1.5079,-1.6994,-2.0169,-2.1875,0.0,0.0,0.0,0.0,0.0,0.0,0.0,-2.5699,-2.7017,-2.8285,-2.9616,-3.0369,-3.1211,-3.2269,-3.1843,-3.1714,-3.2455,0.0,-3.4238,-3.506,-3.55,-3.5705,-3.5967,-3.4912,-3.3986,-3.3519,-3.3242,-3.2968,-3.2667,-3.3268,-3.3582,-3.3181,-3.3081,-3.3081,-3.3081,-3.3094,-3.2918,-3.221,-3.2328,-3.2541,-3.2566,-3.283,-3.2884,-3.4562,-3.4397,-3.2602,-3.1693,-3.1445,-3.1445,-3.1347,-3.1149,-2.9713,-2.9309,-2.9537,-2.7712,-2.7074,-2.7394,-2.5394,0.0,-2.6773,-2.7058,-2.7125,-2.7139,-2.7512,-2.7351,-2.6726,-2.6589,-2.6533,-2.6589,-2.6533,-2.6189,-2.5661,-2.5084,-2.4029,-2.251,-2.1405,-2.0869,-2.0819,-2.128,-2.182,-2.2372,-2.3567,-2.4471,-2.5031,-2.5585,-2.5454,-2.4669,-2.4644,-2.4368,-2.3879,-2.3853,-2.3364,-2.2297,-2.1757,-2.0966,-1.9861,0.0,0.0,0.0,0.0,0.0,0.0,0.0,0.0,0.0,0.0,0.0,0.0,0.0,0.0,0.0,-1.6113,0.0,-2.2698,-2.4197,0.0,0.0,0.0,-2.2209,-2.3401,-2.4418,-2.5448,-2.659,0.0,0.0,-2.998,-3.0834,-3.1662,-3.2202,-3.1509,-3.1104,-3.1392,-3.2843,-3.3776,-3.3802,-3.4606,-3.5087,-3.4888,-3.4669,-3.423,-3.3275,-3.3081,-3.3068,-3.3043,-3.3068,-3.3093,-3.3081,-3.3081,-3.3081,-3.3081,-3.3142,-3.3081,-3.3031,-3.3043,-3.3068,-3.3043,-3.3068,-3.3081,-3.5265,-3.5235,-3.4756,-3.4211,-3.3728,-3.3728,-3.3542,-3.3225,-3.2492,-3.1836,-3.1199,-3.031,-2.9709,-2.9408,-2.8862,-2.8839,-2.9233,-2.927,-2.9278,-2.9186,-2.8185,-2.792,-2.8376,-2.7095,-2.685,-2.7351,-2.6769,-2.6458,-2.6214,-2.5285,-2.4619,-2.418,-2.31,-2.2121,-2.1343,-2.1832,-2.2385,-2.2865,-2.3242,-2.3488,-2.3603,-2.3742,-2.3697,-2.3466,-2.3138,-2.2849,-2.2711,-2.2711,-2.2385,-2.1732,-2.1556,-2.0991,-1.9849,-1.9116,0.0,0.0,0.0,0.0,0.0,0.0,0.0,0.0,0.0,-1.4316,-1.3564,0.0,-1.5005,0.0,-1.7552,-1.9862,-2.2809,-2.493,0.0,0.0,-2.4682,-2.4782,-2.6703,-2.6791,-2.7281,-2.8837,-2.9465,-3.0269,-3.1486,-3.1863,-3.2227,-3.2767,-3.1968,-3.141,-3.1818,-3.2659,-3.331,-3.3354,-3.4155,-3.4827,-3.4691,-3.4374,-3.3868,-3.323,-3.3081,-3.3081,-3.3081,-3.3081,-3.3081,-3.3081,-3.3081,-3.3081,-3.3081,-3.3081,-3.3068,-3.3081,-3.3081,-3.3081,-3.3081,-3.3081,-3.3081,-3.5489,-3.5489,-3.5489,-3.528,-3.4921,-3.4936,-3.4857,-3.4581,-3.3868,-3.3523,-3.3413,-3.2435,-3.1599,-3.1047,-3.0643,-3.0749,-3.1157,-3.0736,-3.039,-3.0059,-2.9281,-2.8939,-2.8939,-2.804,-2.7655,-2.7683,-2.7275,-2.6671,-2.605,-2.5222,-2.4707,-2.4443,-2.3565,-2.2824,-2.2259,-2.2523,-2.2836,-2.3125,-2.3125,-2.3125,-2.3125,-2.3125,-2.2965,-2.2774,-2.2472,-2.2196,-2.1945,-2.1945,-2.1807,-2.1506,-2.1481,-2.1091,-2.0238,-1.9889,-1.8963,0.0,0.0,0.0,0.0,0.0,0.0,0.0,0.0,0.0,0.0,0.0,-1.597,-1.7385,-1.9188,-2.1261,-2.3745,-2.5906,-2.7242,-2.7188,-2.6653,-2.6866,-2.8323,-2.8197,-2.8473,-2.9654,-3.0206,-3.0834,-3.1738,-3.2277,-3.2704,-3.3031,-3.2541,-3.224,-3.2419,-3.2867,-3.3156,-3.3171,-3.3621,-3.3997,-3.3997,-3.3734,-3.3432,-3.3156,-3.3081,-3.3081,-3.3081,-3.3081,-3.3081,-3.3081,-3.3081,-3.3081,-3.3068,-3.2669,-3.2409,-3.2641,-3.2491,-3.2528,-3.298,-3.3081,-3.3018,-3.5489,-3.5489,-3.5489,-3.5489,-3.5489,-3.5489,-3.5489,-3.5439,-3.4543,-3.4691,-3.5394,-3.4105,-3.3137,-3.2478,-3.1786,-3.1861,-3.2572,-3.1743,-3.1072,-3.058,-3.0372,-2.995,-2.9331,-2.9123,-2.8644,-2.8078,-2.7811,-2.7053,-2.5785,-2.5136,-2.4556,-2.3991,-2.3414,-2.3125,-2.3125,-2.3125,-2.3125,-2.3125,-2.3125,-2.3125,-2.3125,-2.3125,-2.2874,-2.2334,-2.2246,-2.1945,-2.1418,-2.138,-2.1355,-2.128,-2.133,-2.1129,-2.0643,-2.0629,-1.9976,0.0,-1.8067,0.0,0.0,0.0,0.0,0.0,0.0,0.0,0.0,-1.6348,-1.7306,-1.9316,-2.0614,-2.2425,-2.485,-2.7015,-2.827,-2.821,-2.821,-2.8423,-2.8963,-2.9038,-2.9252,-2.9842,-3.0783,-3.1411,-3.1562,-3.2428,-3.3081,-3.3081,-3.3031,-3.298,-3.3056,-3.3068,-3.3093,-3.3081,-3.3081,-3.3219,-3.3181,-3.3131,-3.3106,-3.3081,-3.2968,-3.2968,-3.293,-3.3016,-3.3089,-3.294,-3.294,-3.3076,-3.2965,-3.2025,-3.1593,-3.1981,-3.1775,-3.1775,-3.2528,-3.2754,-3.2692,-3.5489,-3.5489,-3.5489,-3.5489,-3.5489,-3.5489,-3.5489,-3.5504,-3.5279,-3.5359,-3.5504,-3.5225,-3.4713,-3.4103,-3.3947,-3.3654,-3.3275,-3.2541,-3.2169,-3.205,-3.0877,-3.0584,-3.0896,-2.9623,-2.9296,-2.9704,-2.8379,-2.7315,-2.6608,-2.5383,-2.4544,-2.3991,-2.3414,-2.3125,-2.3125,0.0,0.0,0.0,-2.3125,-2.3125,-2.3125,-2.3125,-2.2874,-2.2334,-2.1882,0.0,-2.0907,-2.0882,-2.0602,-2.0162,-2.0577,0.0,0.0,0.0,0.0,0.0,0.0,0.0,0.0,0.0,0.0,0.0,-1.6877,-1.6348,-1.6621,-1.7871,-1.9193,-2.0271,-2.0596,-2.2093,-2.5163,-2.7875,-2.9305,-2.8837,-2.8775,-2.8988,-2.9541,-2.9616,-2.9842,-3.0394,-3.0997,-3.1562,-3.1989,-3.2667,-3.3056,-3.3043,-3.3081,-3.3081,-3.3056,-3.3056,-3.3081,-3.3081,-3.3056,-3.3068,-3.3081,-3.3043,-3.2968,-3.3031,-3.2654,-3.2403,-3.2378,-3.2759,-3.2708,-3.2016,-3.2428,-3.272,-3.1883,-3.1492,-3.1392,-3.1537,-3.1449,-3.1449,-3.1662,-3.1712,-3.1675,-3.5489,-3.5489,-3.5489,-3.5489,0.0,-3.5489,-3.5489,-3.5489,-3.5489,-3.5489,-3.5489,-3.5489,-3.513,-3.4472,-3.4472,-3.3933,-3.2991,-3.2662,-3.2332,-3.1959,-3.1235,-3.1087,-3.1467,-3.0658,-3.0025,-2.9614,-2.8466,-2.7218,-2.5833,-2.4861,-2.4117,-2.3577,-2.3288,-2.3125,-2.3125,-2.3125,-2.3125,-2.3125,-2.3125,-2.3125,-2.3125,-2.3125,-2.2874,-2.2322,-2.1769,0.0,0.0,0.0,0.0,0.0,0.0,0.0,0.0,0.0,0.0,-2.0238,-2.0501,-2.0246,-1.9341,-1.9137,-1.905,-1.8944,-1.8983,-1.8741,-1.8086,-1.918,-2.0226,-2.0813,-2.1088,-2.2495,-2.5444,-2.816,-2.9707,-2.9352,-2.9352,-2.949,-2.9729,-2.9779,-2.9905,-3.0193,-3.067,-3.121,-3.1738,-3.229,-3.2629,-3.2679,-3.2905,-3.2978,-3.2685,-3.2877,-3.3081,-3.3068,-3.2805,-3.2641,-3.2616,-3.239,-3.2252,-3.219,-3.2001,-3.1825,-3.18,-3.2022,-3.2059,-3.1505,-3.1493,-3.1373,-3.1468,-3.1029,-3.071,-3.0866,-3.0783,-3.0608,-3.0633,-3.1009,-3.1298,-3.5489,-3.5489,-3.5489,-3.5489,-3.5489,-3.5489,-3.5489,-3.5489,-3.5489,0.0,0.0,-3.5489,-3.5055,-3.4322,-3.4307,-3.3589,-3.2362,-3.2347,-3.2048,-3.1482,-3.1467,-3.1467,-3.1467,-3.1467,-3.0747,-2.9463,-2.8602,-2.7086,-2.5052,-2.4318,-2.3703,-2.3188,-2.3125,-2.3125,-2.3125,-2.3125,-2.3125,-2.3125,-2.3125,-2.3125,-2.3125,-2.3125,-2.2815,-2.2334,-2.1882,-2.138,-2.0882,-2.0351,-2.01,-2.01,-2.0087,-2.0313,-2.0832,-2.0869,-2.1058,-2.1468,-2.2008,-2.1915,-2.0921,-2.0908,-2.0673,-1.998,-2.1062,-2.1073,-1.9507,-2.0328,-2.1164,-2.161,-2.183,-2.3047,-2.5915,-2.8355,-2.9779,-2.9779,-2.9779,-2.9779,-2.9779,-2.9779,-2.9792,-2.9842,-3.0306,-3.0771,-3.1198,-3.1725,-3.2077,-3.2127,-3.2416,-3.2626,-3.2149,-3.2298,-3.2654,-3.2764,-3.2424,-3.2064,-3.2014,-3.175,-3.1399,-3.1474,-3.1361,-3.126,-3.1248,-3.1173,-3.1122,-3.1022,-3.0381,-3.0344,-3.0891,-3.0448,-2.9965,-3.0353,-3.0118,-2.9779,-2.9854,-3.0482,-3.0909,-3.5489,-3.5489,-3.5489,-3.5489,-3.5489,-3.5489,-3.5489,-3.5489,-3.5489,-3.5489,-3.5489,-3.5489,-3.4816,-3.3634,-3.3634,-3.2916,-3.1646,-3.1616,-3.1556,-3.1467,-3.1467,-3.1467,-3.1467,-3.1467,-3.1353,-3.0974,-2.9161,-2.7371,-2.5769,-2.4531,-2.369,-2.3128,-2.3125,-2.3125,-2.3125,-2.3125,-2.3125,-2.3125,-2.3125,-2.3125,-2.3125,-2.3125,-2.2815,-2.2347,-2.2234,-2.1945,-2.1393,-2.1292,-2.1255,-2.1255,-2.1255,-2.1292,-2.1368,-2.138,-2.1418,-2.1506,-2.2008,-2.2414,-2.2695,-2.2525,-2.2399,-2.2428,-2.2922,-2.2262,-2.0118,-2.1436,-2.26,-2.3106,-2.2482,-2.3572,-2.7207,-2.8978,-2.9779,-2.9779,-2.9779,-2.9779,-2.9779,-2.9779,-2.9779,-2.9804,-3.0281,-3.0608,-3.0783,-3.1185,-3.1512,-3.1524,-3.1587,-3.1562,-3.1568,-3.1354,-3.148,-3.1915,-3.1814,-3.1512,-3.1486,-3.1461,-3.1286,-3.1386,-3.0984,-3.0721,-3.0721,-3.0419,-3.0168,-3.0055,-2.9886,-2.9939,-3.008,-2.9955,-2.9827,-2.9955,-2.9842,-2.9779,-2.9779,-2.9993,-3.0043,-3.5489,-3.5489,-3.5489,-3.5489,-3.5489,-3.5489,-3.5489,-3.5459,-3.51,-3.5175,-3.5459,-3.5115,-3.4412,-3.3499,-3.3125,-3.2437,-3.1467,-3.1467,-3.1467,-3.1467,-3.1467,-3.1467,-3.1467,-3.1467,-3.1191,-3.0488,-2.8615,-2.6783,-2.5032,-2.3988,-2.3328,-2.3138,-2.3125,-2.3125,-2.3125,-2.3125,-2.3125,-2.3125,-2.3125,-2.3125,-2.3125,-2.3125,-2.3012,-2.2749,-2.2485,-2.2209,-2.1945,-2.1644,-2.1481,-2.1481,-2.1481,-2.1619,-2.1907,-2.1933,-2.2083,-2.2359,-2.2623,-2.3012,-2.3577,-2.3523,-2.3419,-2.3266,-2.391,-2.3654,-2.1967,-2.3101,-2.4048,-2.4277,-2.4339,-2.5405,-2.7829,-2.9118,-2.9779,-2.9779,-2.9779,-2.9779,-2.9779,-2.9779,-2.9779,-2.9804,-3.0018,-3.0281,-3.0583,-3.0834,-3.0972,-3.0947,-3.0746,-3.075,-3.1289,-3.0733,-3.0448,-3.0779,-3.0991,-3.1103,-3.0959,-3.0696,-3.0545,-3.052,-3.0331,-3.0181,-3.0168,-2.993,-2.9817,-2.9779,-2.9779,-2.9779,-2.9779,-2.9779,-2.9779,-2.9779,-2.9779,-2.9779,-2.9779,-2.9779,-2.9779,-3.5489,-3.5489,-3.5489,-3.5415,-3.528,-3.528,-3.519,-3.4996,-3.4472,-3.4562,-3.4936,-3.4487,-3.3888,-3.326,-3.2736,-3.2168,-3.1526,-3.1467,-3.1467,-3.1467,-3.1467,-3.1467,-3.1437,-3.1375,-3.0793,-2.9729,-2.797,-2.6161,-2.4413,-2.3487,-2.3125,-2.3125,-2.3125,-2.3125,-2.3125,-2.3125,-2.3125,-2.3125,-2.3125,-2.3125,-2.3125,-2.3125,-2.3125,-2.31,-2.2736,-2.2498,-2.2472,-2.2083,-2.1857,-2.187,-2.1857,-2.2058,-2.246,-2.2498,-2.2698,-2.3015,-2.3125,-2.3378,-2.4092,-2.4511,-2.4576,-2.4207,-2.4921,-2.4992,-2.4394,-2.5102,-2.5612,-2.5515,-2.6006,-2.6931,-2.8354,-2.9275,-2.9779,-2.9779,-2.9779,-2.9779,-2.9779,-2.9779,-2.9779,-2.9779,-2.9779,-2.998,-3.0306,-3.0432,-3.0419,-3.0357,-3.0055,-3.0159,-3.0811,-3.03,-2.982,-2.9856,-3.0281,-3.0574,-3.0419,-3.0118,-2.988,-2.9779,-2.9804,-2.9829,-2.9829,-2.9804,-2.9779,-2.9779,-2.9779,-2.9779,-2.9779,-2.9779,-2.9779,-2.9779,-2.9779,-2.9779,-2.9779,-2.9779,-2.9779,-3.5489,-3.5489,-3.5474,-3.513,-3.4592,-3.4562,-3.4247,-3.3739,-3.3604,-3.3619,-3.3694,-3.3604,-3.3215,-3.2662,-3.2527,-3.2123,-3.1497,-3.1467,-3.1467,-3.1467,-3.1467,-3.1467,-3.1435,-3.0908,-3.0461,-2.9827,-2.7711,-2.5877,-2.458,-2.3568,-2.3125,-2.3125,-2.3125,-2.3125,-2.3125,-2.3125,-2.3125,-2.3125,-2.3125,-2.3125,-2.3125,-2.3125,-2.3125,-2.3125,-2.3088,-2.3062,-2.2965,-2.2952,-2.2975,-2.2975,-2.2949,-2.2927,-2.2977,-2.299,-2.3075,-2.3125,-2.309,-2.3602,-2.4682,-2.5695,-2.6171,-2.622,-2.6233,-2.6233,-2.6201,-2.7157,-2.7397,-2.6709,-2.65,-2.7557,-2.9303,-2.9702,-2.9779,-2.9779,-2.9779,-2.9779,-2.9779,-2.9779,-2.9779,-2.9779,-2.9779,-2.9829,-2.9905,-2.993,-2.9905,-2.9942,-2.988,-2.9829,-3.0045,-3.0007,-2.9792,-2.9802,-2.9892,-2.9917,-2.9905,-2.9854,-2.9779,-2.9779,-2.9779,-2.9779,-2.9779,-2.9779,-2.9779,-2.9779,-2.9819,-2.9806,-2.9716,-2.9779,-2.9716,-2.9553,-2.9591,-2.9729,-2.9767,-2.9729,-2.9716,-3.5489,-3.5459,-3.507,-3.4517,-3.3933,-3.3888,-3.3754,-3.3469,-3.308,-3.2916,-3.2856,-3.2512,-3.2377,-3.2482,-3.2123,-3.1764,-3.1482,-3.1467,-3.1467,-3.1467,-3.1467,-3.1315,-3.0896,-3.0627,-3.016,-2.9327,-2.7808,-2.6216,-2.4694,-2.3586,-2.3125,-2.3125,-2.3125,-2.3125,-2.3125,-2.3125,-2.3125,-2.3125,-2.3125,-2.3125,-2.3125,-2.3125,-2.3125,-2.3125,-2.3125,-2.3125,-2.3125,-2.3125,-2.3125,-2.3125,-2.3125,-2.3125,-2.3125,-2.3125,-2.3125,-2.3115,-2.3778,-2.4469,-2.5234,-2.6025,-2.6521,-2.6521,-2.6521,-2.6521,-2.6571,-2.7469,-2.7865,-2.7656,-2.8065,-2.8868,-2.9677,-2.9779,-2.9779,-2.9779,-2.9779,-2.9779,-2.9779,-2.9779,-2.9779,-2.9779,-2.9779,-2.9779,-2.9779,-2.9779,-2.9779,-2.9779,-2.9779,-2.9779,-2.9779,-2.9779,-2.9779,-2.9779,-2.9779,-2.9779,-2.9779,-2.9779,-2.9779,-2.9779,-2.9779,-2.9779,-2.9741,-2.9779,-2.9779,-2.9754,-2.9732,-2.9542,-2.9151,-2.9114,-2.9076,-2.8975,-2.8837,-2.8875,-2.9202,-2.9277,-2.939,-3.4951,-3.4876,-3.4397,-3.3844,-3.323,-3.323,-3.311,-3.2901,-3.2437,-3.2258,-3.2183,-3.1734,-3.1794,-3.2123,-3.1676,-3.1467,-3.1467,-3.1467,-3.1467,-3.1467,-3.1467,-3.1165,-3.0537,-3.0313,-2.9739,-2.8754,-2.7719,-2.6259,-2.4629,-2.3806,-2.3305,-2.3138,-2.3125,-2.3125,-2.3125,-2.3305,-2.3305,-2.3125,-2.3305,-2.3292,-2.3138,-2.3125,-2.3125,-2.3125,-2.3125,-2.3125,-2.3125,-2.3125,-2.3125,-2.3125,-2.3125,-2.3125,-2.3125,-2.3125,-2.3201,-2.3427,-2.428,-2.5046,-2.5573,-2.6138,-2.6521,-2.6521,-2.6521,-2.6521,-2.664,-2.7482,-2.8072,-2.8185,-2.9139,-2.9689,-2.9779,-2.9779,-2.9779,-2.9779,-2.9779,-2.9779,-2.9779,-2.9779,-2.9779,-2.9779,-2.9779,-2.9779,-2.9779,-2.9779,-2.9754,-2.9553,-2.9666,-2.9806,-2.9768,-2.9781,-2.9741,-2.9566,-2.9515,-2.9603,-2.9729,-2.9779,-2.9767,-2.9566,-2.9503,-2.944,-2.9402,-2.9416,-2.9454,-2.9252,-2.9352,-2.9138,-2.8587,-2.836,-2.8442,-2.822,-2.8122,-2.821,-2.8637,-2.8699,-2.8863,-3.3589,-3.3604,-3.3544,-3.3155,-3.2557,-3.2557,-3.2228,-3.1749,-3.1629,-3.1541,-3.1571,-3.1497,-3.1482,-3.1541,-3.1497,-3.1467,-3.1467,-3.1467,-3.1467,-3.1467,-3.1452,-3.115,-3.0492,-2.9909,-2.928,-2.8487,-2.7354,-2.5921,-2.4421,-2.4234,-2.3884,-2.3125,-2.3125,-2.3125,-2.3245,-2.3826,-2.3826,-2.3305,-2.3826,-2.3884,-2.3185,-2.3125,-2.3125,-2.3125,-2.3125,-2.3125,-2.3125,-2.3125,-2.3125,-2.3125,-2.3125,-2.3125,-2.3125,-2.3125,-2.3376,-2.3941,-2.4494,-2.5059,-2.5598,-2.6151,-2.6521,-2.6521,-2.6521,-2.6521,-2.6584,-2.7419,-2.8021,-2.8122,-2.9101,-2.9819,-2.9779,-2.9779,-2.9779,-2.9779,-2.9779,-2.9779,-2.9779,-2.9779,-2.9779,-2.9779,-2.9779,-2.9779,-2.9779,-2.9779,-2.9553,-2.9302,-2.9453,-2.9705,-2.9656,-2.9681,-2.9453,-2.9038,-2.8825,-2.9013,-2.9616,-2.9515,-2.9352,-2.9164,-2.8925,-2.885,-2.8573,-2.8432,-2.8619,-2.8743,-2.8581,-2.8296,-2.7875,-2.7703,-2.7811,-2.7773,-2.7846,-2.7984,-2.8097,-2.8134,-2.8298,-3.3245,-3.2871,-3.2856,-3.2497,-3.1913,-3.1825,-3.1691,-3.1482,-3.1467,-3.1467,-3.1467,-3.1467,-3.1467,-3.1467,-3.1467,-3.1467,-3.1467,-3.1467,-3.1467,-3.1422,-3.1091,-3.0537,-2.9909,-2.9265,-2.8592,-2.7927,-2.7424,-2.6443,-2.5063,-2.4509,-2.3884,-2.3245,-2.3125,-2.3305,-2.3826,-2.4176,-2.4118,-2.3943,-2.4176,-2.3943,-2.3173,-2.3125,-2.3125,-2.3125,-2.3125,-2.3125,-2.3125,-2.3125,-2.3125,-2.3125,-2.3125,-2.3125,-2.3125,-2.3125,-2.3565,-2.4418,-2.4707,-2.5209,-2.6013,-2.6339,-2.6521,-2.6521,-2.6521,-2.6521,-2.6647,-2.7143,-2.7708,-2.816,-2.9138,-2.9745,-2.9819,-2.9779,-2.9779,-2.9779,-2.9779,-2.9779,-2.9779,-2.9779,-2.9779,-2.9779,-2.9779,-2.9779,-2.9716,-2.9779,-2.9705,-2.9492,-2.9366,-2.9101,-2.8836,-2.8886,-2.9012,-2.8712,-2.8301,-2.8251,-2.9063,-2.8875,-2.8612,-2.8499,-2.8373,-2.8348,-2.8195,-2.8094,-2.8255,-2.8167,-2.8015,-2.7704,-2.7313,-2.7089,-2.7172,-2.711,-2.7205,-2.7431,-2.7507,-2.7557,-2.7758,-3.2602,-3.2228,-3.2198,-3.1943,-3.1497,-3.1467,-3.1467,-3.1467,-3.1467,-3.1467,-3.1467,-3.1467,-3.1467,-3.1422,-3.1258,-3.1287,-3.1452,-3.1467,-3.1467,-3.1407,-3.0821,-3.0178,-2.9564,-2.8906,-2.8248,-2.7664,-2.756,-2.6864,-2.5508,-2.4894,-2.4105,-2.3185,-2.3305,-2.3767,-2.4234,-2.4523,-2.458,-2.4381,-2.4323,-2.3918,-2.3237,-2.2954,-2.2878,-2.2845,-2.2879,-2.2902,-2.3113,-2.3125,-2.3125,-2.3125,-2.3125,-2.3125,-2.3125,-2.3125,-2.3552,-2.4431,-2.472,-2.5209,-2.6038,-2.642,-2.6521,-2.6521,-2.6521,-2.6521,-2.6559,-2.7037,-2.7431,-2.7968,-2.8621,-2.9264,-2.9429,-2.9504,-2.9591,-2.9729,-2.9779,-2.9779,-2.9779,-2.9779,-2.9691,-2.9515,-2.9465,-2.9415,-2.9302,-2.9366,-2.9302,-2.9134,-2.8686,-2.8299,-2.7751,-2.8132,-2.8381,-2.8224,-2.7826,-2.7663,-2.7959,-2.772,-2.7833,-2.7795,-2.7821,-2.7808,-2.7708,-2.7682,-2.7645,-2.7641,-2.7477,-2.713,-2.6879,-2.6546,-2.6515,-2.6465,-2.6603,-2.6879,-2.6942,-2.7005,-2.7193,-3.1569,-3.1511,-3.1482,-3.1584,-3.1467,-3.1467,-3.1467,-3.1467,-3.1467,-3.1467,-3.1467,-3.1467,-3.1495,-3.1302,-3.0851,-3.0881,-3.127,-3.1317,-3.1362,-3.1302,-3.0746,-3.0088,-2.9475,-2.8786,-2.8173,-2.764,-2.756,-2.6864,-2.5563,-2.5398,-2.4724,-2.359,-2.4002,-2.4297,-2.431,-2.4898,-2.4925,-2.4326,-2.4204,-2.3974,-2.3329,-2.2659,-2.2408,-2.2434,-2.2394,-2.2623,-2.31,-2.3125,-2.3125,-2.3125,-2.3125,-2.3125,-2.3125,-2.3125,-2.3401,-2.4017,-2.4531,-2.5059,-2.5598,-2.6163,-2.6521,-2.6521,-2.6521,-2.6521,-2.6596,-2.6917,-2.7256,-2.7444,-2.7821,-2.8296,-2.872,-2.8824,-2.9164,-2.9666,-2.9754,-2.9779,-2.9779,-2.9767,-2.9566,-2.9114,-2.8963,-2.8699,-2.8422,-2.8545,-2.853,-2.81,-2.7808,-2.7516,-2.6959,-2.746,-2.7733,-2.7532,-2.7331,-2.7268,-2.6879,-2.6609,-2.6866,-2.7118,-2.7205,-2.7231,-2.7005,-2.6904,-2.6967,-2.6987,-2.7012,-2.6703,-2.6716,-2.649,-2.649,-2.6521,-2.6533,-2.6546,-2.6659,-2.676,-2.6684,-3.1467,-3.1467,-3.1467,-3.1467,-3.1467,-3.1467,-3.1467,-3.1467,-3.1467,-3.1467,-3.1467,-3.1467,-3.1285,-3.0866,-3.0582,-3.0387,-3.0238,-3.0597,-3.0821,-3.0702,-3.0163,-2.9549,-2.8891,-2.8233,-2.7769,-2.7604,-2.756,-2.7137,-2.6283,-2.6108,-2.5605,-2.4951,-2.4908,-2.4831,-2.4546,-2.5057,-2.4783,-2.3352,-2.3593,-2.3285,-2.221,-2.189,-2.1967,-2.2293,-2.2337,-2.2573,-2.3015,-2.3125,-2.3125,-2.3125,-2.3125,-2.3125,-2.3125,-2.3125,-2.3401,-2.3966,-2.4519,-2.5059,-2.5561,-2.6113,-2.6496,-2.6521,-2.6521,-2.6521,-2.6521,-2.6615,-2.6904,-2.7193,-2.7469,-2.7808,-2.8473,-2.8461,-2.8749,-2.9682,-2.9795,-2.9716,-2.9641,-2.9415,-2.9151,-2.8925,-2.8599,-2.8298,-2.8147,-2.822,-2.8138,-2.7926,-2.7553,-2.7172,-2.6784,-2.6822,-2.7251,-2.7397,-2.71,-2.6936,-2.6848,-2.6659,-2.6615,-2.6791,-2.6829,-2.6866,-2.659,-2.6521,-2.6521,-2.6521,-2.6521,-2.6521,-2.6521,-2.6521,-2.6521,-2.6521,-2.6533,-2.6533,-2.6521,-2.6521,-2.6521,-3.1467,-3.1467,-3.1467,-3.1467,-3.1495,-3.127,-3.115,-3.1049,-3.0911,-3.0806,-3.0791,-3.0791,-3.0582,-3.0178,-2.9909,-2.9729,-2.9579,-2.9774,-2.9789,-2.9819,-2.9729,-2.922,-2.8577,-2.7889,-2.756,-2.756,-2.756,-2.7188,-2.6496,-2.6443,-2.6122,-2.5508,-2.5673,-2.5669,-2.5272,-2.536,-2.4709,-2.3511,-2.3272,-2.2769,-2.2009,-2.1493,-2.1665,-2.2285,-2.2153,-2.2326,-2.2842,-2.3093,-2.3328,-2.35,-2.3543,-2.3424,-2.3125,-2.3078,-2.324,-2.3678,-2.4205,-2.4732,-2.5272,-2.5799,-2.6251,-2.6402,-2.6521,-2.6521,-2.6521,-2.6521,-2.671,-2.6892,-2.6979,-2.7243,-2.7686,-2.7921,-2.8082,-2.8434,-2.8912,-2.9126,-2.9114,-2.885,-2.8511,-2.8285,-2.7984,-2.7758,-2.7557,-2.7494,-2.749,-2.7487,-2.7208,-2.6917,-2.6622,-2.6477,-2.6836,-2.7056,-2.681,-2.681,-2.7056,-2.681,-2.6559,-2.6571,-2.654,-2.6578,-2.6546,-2.6521,-2.6521,-2.6521,-2.6521,-2.6521,-2.6521,-2.6521,-2.6521,-2.6521,-2.6521,-2.6521,-2.6521,-2.6521,-2.6521,-3.148,-3.1377,-3.145,-3.1375,-3.1255,-3.0702,-3.0462,-3.0357,-2.9924,-2.9729,-2.9699,-2.9774,-2.9639,-2.9415,-2.9026,-2.8996,-2.928,-2.8996,-2.8727,-2.8831,-2.9086,-2.9071,-2.8397,-2.788,-2.7575,-2.756,-2.756,-2.724,-2.6721,-2.6669,-2.6215,-2.5837,-2.6197,-2.6381,-2.5969,-2.5675,-2.483,-2.3861,-2.2963,-2.2374,-2.2233,-2.1402,-2.1301,-2.2362,-2.2028,-2.2072,-2.2558,-2.3305,-2.3865,-2.4226,-2.4226,-2.3943,-2.3412,-2.3185,-2.315,-2.3299,-2.3752,-2.423,-2.477,-2.5372,-2.585,-2.6264,-2.6458,-2.6521,-2.6521,-2.6521,-2.6546,-2.654,-2.6609,-2.6565,-2.6753,-2.6979,-2.7097,-2.6822,-2.7701,-2.8235,-2.816,-2.8122,-2.7896,-2.7507,-2.7268,-2.708,-2.6747,-2.6684,-2.6659,-2.6634,-2.6622,-2.6596,-2.6559,-2.6521,-2.6521,-2.6546,-2.6584,-2.6634,-2.6798,-2.676,-2.6521,-2.6521,-2.6521,-2.6521,-2.6521,-2.6521,-2.6521,-2.6521,-2.6521,-2.6521,-2.6521,-2.6521,-2.6521,-2.6521,-2.6521,-2.6521,-2.6521,-2.6521,-2.6521,-3.0971,-3.0178,-3.0582,-3.0522,-3.0118,-2.9879,-2.9819,-2.9804,-2.9639,-2.949,-2.9564,-2.9594,-2.9265,-2.8861,-2.8682,-2.8442,-2.8278,-2.8457,-2.8278,-2.8008,-2.8547,-2.8457,-2.7949,-2.773,-2.756,-2.756,-2.756,-2.7509,-2.7306,-2.721,-2.7093,-2.7004,-2.6571,-2.6079,-2.522,-2.4621,-2.3572,-2.2533,-2.1731,-2.1332,-2.1318,-2.1014,-2.0933,-2.1185,-2.1904,-2.2288,-2.2628,-2.41,-2.4675,-2.4341,-2.434,-2.4523,-2.461,-2.3754,-2.3424,-2.3916,-2.3994,-2.4029,-2.4343,-2.5046,-2.5611,-2.5837,-2.6189,-2.6521,-2.6521,-2.6521,-2.6521,-2.6521,-2.6465,-2.6483,-2.6519,-2.6671,-2.6609,-2.6659,-2.736,-2.8009,-2.7971,-2.7745,-2.7419,-2.7268,-2.6929,-2.6722,-2.6584,-2.6521,-2.6521,-2.6521,-2.6521,-2.6521,-2.6521,-2.6521,-2.6521,-2.6521,-2.6533,-2.6533,-2.6546,-2.6546,-2.6521,-2.6521,-2.6521,-2.6521,-2.6521,-2.6521,-2.6521,-2.6521,-2.6521,-2.6521,-2.6521,-2.6521,-2.6521,-2.6521,-2.6521,-2.6521,-2.6521,-2.6521,-2.6521,-3.0268,-2.9609,-2.9968,-2.9924,-2.9549,-2.9295,-2.916,-2.9101,-2.8846,-2.8742,-2.8727,-2.8742,-2.8532,-2.8188,-2.8158,-2.7964,-2.7664,-2.7993,-2.7934,-2.7775,-2.7993,-2.7934,-2.77,-2.756,-2.756,-2.756,-2.756,-2.756,-2.75,-2.737,-2.7171,-2.6971,-2.6512,-2.5768,-2.5202,-2.4403,-2.3565,-2.2569,-2.1698,-2.1161,-2.1161,-2.0633,-2.0977,-2.1332,-2.2117,-2.2358,-2.3013,-2.433,-2.4991,-2.4908,-2.5039,-2.5287,-2.5287,-2.461,-2.4279,-2.4751,-2.44,-2.4192,-2.4451,-2.4798,-2.5121,-2.5536,-2.5963,-2.6189,-2.6445,-2.6521,-2.6521,-2.6521,-2.6521,-2.6483,-2.6514,-2.6496,-2.6477,-2.654,-2.7042,-2.7419,-2.7419,-2.7118,-2.6954,-2.6854,-2.6747,-2.6521,-2.6521,-2.6521,-2.6521,-2.6521,-2.6521,-2.6521,-2.6521,-2.6521,-2.6521,-2.6521,-2.6402,-2.6364,-2.6364,-2.6445,-2.6352,-2.6364,-2.6408,-2.642,-2.6314,-2.6339,-2.6521,-2.6521,-2.6521,-2.6521,-2.6521,-2.6521,-2.6521,-2.6521,-2.6521,-2.6521,-2.6521,-2.6521,-2.6521,-2.9505,-2.9385,-2.9445,-2.943,-2.9235,-2.8757,-2.8487,-2.8382,-2.7949,-2.7679,-2.7694,-2.7619,-2.7724,-2.756,-2.7694,-2.759,-2.756,-2.7649,-2.7619,-2.7575,-2.7649,-2.759,-2.759,-2.756,-2.756,-2.756,-2.756,-2.7485,-2.7305,-2.6856,-2.6572,-2.6363,-2.5839,-2.554,-2.5116,-2.4594,-2.4099,-2.3267,-2.2027,-2.1486,-2.1424,-2.0855,-2.1006,-2.1996,-2.2072,-2.2623,-2.3523,-2.4372,-2.4853,-2.538,-2.6034,-2.5994,-2.5604,-2.5618,-2.5342,-2.5175,-2.4691,-2.4393,-2.4666,-2.424,-2.4418,-2.5146,-2.541,-2.5762,-2.6151,-2.6332,-2.6314,-2.6521,-2.6521,-2.6477,-2.649,-2.6465,-2.6465,-2.6546,-2.6596,-2.6546,-2.6521,-2.6521,-2.6521,-2.6521,-2.6533,-2.6521,-2.6521,-2.6521,-2.6521,-2.6521,-2.6521,-2.6521,-2.6521,-2.6521,-2.6521,-2.6521,-2.6364,-2.6183,-2.6264,-2.6357,-2.6251,-2.6226,-2.6176,-2.6138,-2.6038,-2.6101,-2.6352,-2.6521,-2.6521,-2.6521,-2.6521,-2.6521,-2.6483,-2.6521,-2.6521,-2.6521,-2.6521,-2.6521,-2.6521,-2.8966,-2.8105,-2.8577,-2.8502,-2.8075,-2.7895,-2.7799,-2.7784,-2.7649,-2.756,-2.756,-2.756,-2.756,-2.756,-2.758,-2.756,-2.75,-2.747,-2.756,-2.756,-2.756,-2.756,-2.758,-2.752,-2.758,-2.7515,-2.7545,-2.7275,-2.6856,-2.6557,-2.6288,-2.5764,-2.5196,-2.4791,-2.4701,-2.3819,-2.3093,-2.2683,-2.1698,-2.1403,-2.171,-2.1459,-2.1424,-2.2039,-2.23,-2.3136,-2.4074,-2.4507,-2.4891,-2.5423,-2.5691,-2.6075,-2.6518,-2.604,-2.5618,-2.5398,-2.4781,-2.4125,-2.3713,-2.3912,-2.4067,-2.4393,-2.4808,-2.5222,-2.5699,-2.5812,-2.6025,-2.6314,-2.6521,-2.6521,-2.6521,-2.6521,-2.6521,-2.6521,-2.6521,-2.6521,-2.6521,-2.6521,-2.6521,-2.6521,-2.6521,-2.6521,-2.6521,-2.6521,-2.6521,-2.6521,-2.6508,-2.6508,-2.6389,-2.6327,-2.6201,-2.6076,-2.5727,-2.5473,-2.559,-2.5695,-2.5799,-2.5799,-2.5799,-2.5774,-2.5674,-2.5799,-2.6025,-2.6251,-2.6521,-2.6483,-2.6307,-2.6357,-2.6294,-2.6395,-2.6364,-2.6289,-2.6239,-2.6314,-2.6521,-2.8218,-2.767,-2.7979,-2.7904,-2.7604,-2.756,-2.756,-2.756,-2.756,-2.756,-2.756,-2.756,-2.756,-2.753,-2.7325,-2.7096,-2.7006,-2.6767,-2.6811,-2.6931,-2.6826,-2.6632,-2.6647,-2.6707,-2.6767,-2.6991,-2.6752,-2.6422,-2.6153,-2.5839,-2.545,-2.5136,-2.4492,-2.4178,-2.4148,-2.3422,-2.3231,-2.3038,-2.2221,-2.188,-2.21,-2.1852,-2.1899,-2.2239,-2.277,-2.3496,-2.4029,-2.4118,-2.4507,-2.5029,-2.5431,-2.6002,-2.6952,-2.6703,-2.6467,-2.6254,-2.5342,-2.4724,-2.4398,-2.3812,-2.3703,-2.3979,-2.4293,-2.4858,-2.5347,-2.5586,-2.5875,-2.6289,-2.6521,-2.6521,-2.6521,-2.6521,-2.6521,-2.6521,-2.6521,-2.6521,-2.6521,-2.6521,-2.6521,-2.6521,-2.6521,-2.6521,-2.6521,-2.6377,-2.6458,-2.6433,-2.6422,-2.6384,-2.5498,-2.5423,-2.5444,-2.5228,-2.4884,-2.4707,-2.4822,-2.5015,-2.5234,-2.5247,-2.5247,-2.5209,-2.5134,-2.5385,-2.5674,-2.5862,-2.6068,-2.6017,-2.5904,-2.6047,-2.5892,-2.569,-2.5598,-2.5787,-2.5912,-2.5832,-2.6151,-2.756,-2.756,-2.756,-2.756,-2.756,-2.756,-2.756,-2.756,-2.756,-2.756,-2.758,-2.7535,-2.732,-2.731,-2.6722,-2.6467,-2.6303,-2.6033,-2.6078,-2.6348,-2.6019,-2.5869,-2.5779,-2.5719,-2.5764,-2.6198,-2.5974,-2.5674,-2.536,-2.4896,-2.4732,-2.4433,-2.3954,-2.3744,-2.364,-2.361,-2.3421,-2.3187,-2.2785,-2.2512,-2.2558,-2.2146,-2.2253,-2.2815,-2.3231,-2.3523,-2.3699,-2.3729,-2.3909,-2.4462,-2.5196,-2.5839,-2.6437,-2.7205,-2.7509,-2.7342,-2.6108,-2.5398,-2.4724,-2.4054,-2.3571,-2.3915,-2.3866,-2.4318,-2.5008,-2.5259,-2.5573,-2.6063,-2.6408,-2.6521,-2.6521,-2.6521,-2.6521,-2.6521,-2.6521,-2.6521,-2.6521,-2.6521,-2.6521,-2.6521,-2.6508,-2.6483,-2.6289,-2.6176,-2.6226,-2.6269,-2.6311,-2.6044,-2.5219,-2.4657,-2.4636,-2.4613,-2.4322,-2.4275,-2.4377,-2.4466,-2.4669,-2.4682,-2.4682,-2.4582,-2.4519,-2.4494,-2.472,-2.5325,-2.5476,-2.5517,-2.5401,-2.5297,-2.5146,-2.4845,-2.4946,-2.5272,-2.5344,-2.5328,-2.556,-2.756,-2.756,-2.756,-2.756,-2.761,-2.761,-2.7565,-2.756,-2.7505,-2.761,-2.7455,-2.7006,-2.6752,-2.6587,-2.6063,-2.5779,-2.5704,-2.5495,-2.5555,-2.5734,-2.551,-2.5435,-2.5315,-2.4956,-2.4896,-2.5061,-2.5196,-2.5196,-2.4866,-2.4612,-2.4283,-2.3864,-2.3684,-2.3595,-2.3595,-2.3551,-2.3377,-2.3157,-2.2889,-2.2799,-2.274,-2.268,-2.277,-2.329,-2.3508,-2.3551,-2.3595,-2.3595,-2.3655,-2.3879,-2.4971,-2.554,-2.6004,-2.6871,-2.7164,-2.6878,-2.6472,-2.577,-2.4794,-2.4292,-2.376,-2.3444,-2.3326,-2.3602,-2.4142,-2.4393,-2.4921,-2.5636,-2.6257,-2.6508,-2.6521,-2.6364,-2.6414,-2.6427,-2.6339,-2.6339,-2.6339,-2.6314,-2.6289,-2.6214,-2.6332,-2.6357,-2.6063,-2.5824,-2.5661,-2.5615,-2.5519,-2.5407,-2.4883,-2.4261,-2.3882,-2.3924,-2.3889,-2.3928,-2.4004,-2.4029,-2.4117,-2.413,-2.4079,-2.3904,-2.3766,-2.3416,-2.3678,-2.4431,-2.4872,-2.5037,-2.4897,-2.4655,-2.4543,-2.4355,-2.453,-2.4795,-2.4598,-2.4398,-2.4256,-2.7527,-2.761,-2.756,-2.7549,-2.7507,-2.7491,-2.7263,-2.7022,-2.6959,-2.6831,-2.6564,-2.6228,-2.6078,-2.5899,-2.539,-2.5106,-2.5046,-2.4687,-2.4792,-2.4956,-2.4762,-2.4567,-2.4612,-2.4223,-2.4133,-2.4178,-2.4403,-2.4477,-2.4133,-2.4088,-2.3924,-2.3714,-2.3595,-2.3595,-2.3595,-2.3595,-2.3465,-2.3201,-2.3157,-2.3157,-2.3143,-2.3143,-2.3377,-2.3508,-2.3595,-2.3595,-2.3595,-2.3595,-2.3595,-2.3789,-2.4567,-2.5181,-2.5689,-2.6135,-2.6738,-2.6872,-2.6568,-2.5936,-2.4794,-2.4279,-2.3497,-2.3198,-2.3125,-2.3414,-2.3816,-2.413,-2.4469,-2.5401,-2.6101,-2.6481,-2.6496,-2.602,-2.5802,-2.5937,-2.5824,-2.5674,-2.5636,-2.5649,-2.5686,-2.5749,-2.5774,-2.5749,-2.5711,-2.5435,-2.5121,-2.4947,-2.4797,-2.4595,-2.4406,-2.3966,-2.3391,-2.343,-2.3542,-2.3517,-2.3591,-2.3665,-2.369,-2.3678,-2.364,-2.3452,-2.3339,-2.3153,-2.3228,-2.369,-2.4066,-2.4432,-2.4306,-2.4029,-2.3979,-2.3917,-2.3829,-2.3816,-2.3646,-2.3465,-2.314,-2.7411,-2.75,-2.7549,-2.7454,-2.7379,-2.7363,-2.7067,-2.6616,-2.6601,-2.6319,-2.5756,-2.5665,-2.5544,-2.5226,-2.4746,-2.4373,-2.4373,-2.3849,-2.4014,-2.4223,-2.3969,-2.3655,-2.3625,-2.3595,-2.3655,-2.3729,-2.3744,-2.3595,-2.3684,-2.3684,-2.3625,-2.3595,-2.3595,-2.3595,-2.3595,-2.3595,-2.3595,-2.3595,-2.3595,-2.3595,-2.3595,-2.3595,-2.3595,-2.3595,-2.3595,-2.3595,-2.3595,-2.3595,-2.3595,-2.3789,-2.4283,-2.4836,-2.5345,-2.5631,-2.6201,-2.6857,-2.6381,-2.5781,-2.4996,-2.4195,-2.3484,-2.3138,-2.3125,-2.3401,-2.3678,-2.3929,-2.4343,-2.5199,-2.6098,-2.6263,-2.5954,-2.5348,-2.5149,-2.5256,-2.5121,-2.487,-2.4958,-2.5008,-2.5059,-2.5121,-2.5197,-2.5134,-2.5008,-2.4883,-2.4531,-2.418,-2.4029,-2.3991,-2.3791,-2.359,-2.3193,-2.318,-2.319,-2.319,-2.3203,-2.324,-2.3326,-2.3351,-2.3351,-2.3263,-2.3201,-2.315,-2.3263,-2.3364,-2.3351,-2.359,-2.3527,-2.354,-2.3491,-2.3403,-2.3056,-2.2862,-2.2756,-2.2168,-2.1597,-2.7232,-2.7225,-2.7241,-2.7264,-2.7227,-2.7227,-2.7179,-2.7052,-2.6973,-2.6816,-2.6043,-2.5628,-2.5075,-2.4672,-2.4073,-2.3774,-2.3714,-2.3714,-2.367,-2.3804,-2.367,-2.3595,-2.3595,-2.3595,-2.3595,-2.3595,-2.3595,-2.3595,-2.3595,-2.3595,-2.3595,-2.3595,-2.3595,-2.3595,-2.3595,-2.3595,-2.3595,-2.3595,-2.3595,-2.3595,-2.3595,-2.3595,-2.3595,-2.3595,-2.3595,-2.3595,-2.3595,-2.3595,-2.3595,-2.3684,-2.4238,-2.4567,-2.4866,-2.5756,-2.592,-2.589,-2.5602,-2.5299,-2.4624,-2.419,-2.369,-2.3289,-2.31,-2.3163,-2.3376,-2.3703,-2.4017,-2.4192,-2.5409,-2.5909,-2.5365,-2.4893,-2.4831,-2.4768,-2.4707,-2.4644,-2.4669,-2.4356,-2.4418,-2.4406,-2.4456,-2.4318,-2.4192,-2.4079,-2.3916,-2.3577,-2.3314,-2.3314,-2.3301,-2.314,-2.3078,-2.3078,-2.3125,-2.3125,-2.3125,-2.3125,-2.3125,-2.3125,-2.3125,-2.3125,-2.3125,-2.3125,-2.3125,-2.3188,-2.3065,-2.3065,-2.3203,-2.3215,-2.309,-2.2823,-2.2445,-2.2187,-2.2049,-2.1232,-2.0291,-2.703,-2.7185,-2.7185,-2.7112,-2.7041,-2.7025,-2.6837,-2.649,-2.619,-2.5787,-2.5257,-2.4643,-2.4247,-2.3984,-2.3684,-2.361,-2.3595,-2.3595,-2.3595,-2.3595,-2.3595,-2.3595,-2.3595,-2.3595,-2.3595,-2.3595,-2.3595,-2.3595,-2.358,-2.3565,-2.3595,-2.3595,-2.3595,-2.3595,-2.3595,-2.3595,-2.3595,-2.3595,-2.3595,-2.3595,-2.3595,-2.3595,-2.3595,-2.3595,-2.3595,-2.3595,-2.3595,-2.3595,-2.3595,-2.364,-2.3954,-2.4238,-2.4448,-2.4732,-2.4747,-2.5075,-2.4582,-2.4397,-2.4441,-2.4297,-2.3874,-2.3412,-2.3162,-2.3138,-2.3188,-2.3364,-2.3715,-2.4017,-2.4293,-2.4557,-2.4619,-2.419,-2.4179,-2.4129,-2.4104,-2.4029,-2.3979,-2.3879,-2.374,-2.3715,-2.3715,-2.3678,-2.364,-2.359,-2.3552,-2.3401,-2.3213,-2.3213,-2.3213,-2.3163,-2.3078,-2.3138,-2.3125,-2.3125,-2.3125,-2.3125,-2.3125,-2.3125,-2.3125,-2.3125,-2.3125,-2.3125,-2.3125,-2.3065,-2.3053,-2.3065,-2.3065,-2.2763,-2.2506,-2.2137,-2.1753,-2.1365,-2.091,-2.042,-1.9533,-2.6859,-2.7089,-2.7066,-2.6977,-2.6825,-2.6862,-2.6634,-2.617,-2.5848,-2.5275,-2.4552,-2.3979,-2.3625,-2.3595,-2.361,-2.3595,-2.3595,-2.3595,-2.3595,-2.3595,-2.3595,-2.3595,-2.3595,-2.3595,-2.3595,-2.3565,-2.334,-2.3281,-2.3163,-2.3161,-2.3146,-2.3565,-2.3595,-2.3595,-2.3595,-2.3595,-2.3595,-2.3595,-2.3595,-2.3595,-2.3595,-2.3595,-2.3595,-2.3595,-2.3595,-2.3595,-2.3595,-2.3595,-2.3595,-2.361,-2.3625,-2.3909,-2.4178,-2.4029,-2.3999,-2.4268,-2.4095,-2.3974,-2.3964,-2.3849,-2.3745,-2.3436,-2.3173,-2.3125,-2.3138,-2.315,-2.3238,-2.3703,-2.3517,-2.3792,-2.3979,-2.3542,-2.3555,-2.3553,-2.3489,-2.3263,-2.315,-2.3314,-2.3341,-2.3401,-2.3389,-2.3301,-2.3263,-2.3201,-2.3175,-2.315,-2.3125,-2.3125,-2.3125,-2.3125,-2.3125,-2.3125,-2.3125,-2.3125,-2.3125,-2.3125,-2.3125,-2.3125,-2.3125,-2.3125,-2.3125,-2.3125,-2.3125,-2.3065,-2.2907,-2.2834,-2.2761,-2.2298,-2.1889,-2.169,-2.1302,-2.0333,-1.9683,-1.9299,-1.8931,-2.6725,-2.6741,-2.6741,-2.6741,-2.6742,-2.6708,-2.6691,-2.6521,-2.6505,-2.5855,-2.4816,-2.4101,-2.3595,-2.3595,-2.3595,-2.3595,-2.3595,-2.3595,-2.3595,-2.3595,-2.358,-2.349,-2.3445,-2.3415,-2.343,-2.337,-2.2996,-2.2626,-2.242,-2.2222,-2.2712,-2.34,-2.3251,-2.346,-2.352,-2.343,-2.3445,-2.3475,-2.3535,-2.3595,-2.3595,-2.3595,-2.3595,-2.3595,-2.3595,-2.3595,-2.3595,-2.3595,-2.3595,-2.3595,-2.3595,-2.361,-2.3774,-2.3684,-2.3729,-2.3776,-2.409,-2.3818,-2.3525,-2.3444,-2.3358,-2.3254,-2.3173,-2.3125,-2.3125,-2.3125,-2.3201,-2.3276,-2.3155,-2.3155,-2.329,-2.3153,-2.3228,-2.3215,-2.3251,-2.3213,-2.3125,-2.3138,-2.3201,-2.315,-2.3125,-2.3125,-2.3125,-2.3125,-2.3125,-2.3125,-2.3125,-2.3125,-2.3125,-2.3125,-2.3125,-2.3125,-2.3125,-2.3125,-2.3125,-2.3125,-2.3125,-2.3125,-2.3125,-2.3125,-2.3125,-2.3125,-2.3078,-2.2555,-2.2274,-2.2396,-2.2348,-2.1643,-2.1239,-2.1302,-2.0846,-1.9628,-1.8977,-1.8721,-1.8462,-2.6708,-2.6708,-2.6708,-2.6708,-2.6708,-2.6708,-2.6539,-2.6227,-2.5892,-2.5189,-2.4241,-2.3794,-2.3595,-2.358,-2.3595,-2.3595,-2.3595,-2.3595,-2.355,-2.3445,-2.3281,-2.3071,-2.2936,-2.2753,-2.2514,-2.263,-2.2289,-2.1868,-2.151,-2.1481,-2.1874,-2.2323,-2.2443,-2.2727,-2.2847,-2.3071,-2.3071,-2.3176,-2.34,-2.3595,-2.3595,-2.3595,-2.3595,-2.3595,-2.3595,-2.3595,-2.3595,-2.3595,-2.3595,-2.3595,-2.3595,-2.3595,-2.3595,-2.3595,-2.3595,-2.3595,-2.3939,-2.3674,-2.333,-2.3264,-2.3245,-2.2834,-2.2905,-2.3125,-2.3125,-2.3125,-2.3125,-2.3138,-2.3125,-2.3125,-2.3078,-2.309,-2.3103,-2.3138,-2.3125,-2.3125,-2.3125,-2.3125,-2.3125,-2.3125,-2.3125,-2.3125,-2.3125,-2.3125,-2.3125,-2.3125,-2.3125,-2.3125,-2.3125,-2.3125,-2.3125,-2.3125,-2.3125,-2.3125,-2.3125,-2.3125,-2.3113,-2.304,-2.2967,-2.2747,-2.2625,-2.3078,-2.2932,-2.2274,-2.1564,-2.1377,-2.1088,-2.0685,-2.0526,-2.0655,-1.9879,-1.8721,-1.8337,-1.8202,-1.8144,-2.6488,-2.6657,-2.6454,-2.6488,-2.6674,-2.6708,-2.6521,-2.6156,-2.5672,-2.4816,-2.3822,-2.3558,-2.3325,-2.3295,-2.3056,-2.2981,-2.2906,-2.2936,-2.2981,-2.2832,-2.2562,-2.2439,-2.2218,-2.2054,-2.1889,-2.1849,-2.1554,-2.1143,-2.0651,-2.095,-2.1216,-2.1291,-2.1261,-2.1575,-2.2293,-2.2634,-2.2667,-2.2832,-2.3236,-2.358,-2.3595,-2.3595,-2.3595,-2.3595,-2.3595,-2.3595,-2.3595,-2.3595,-2.3595,-2.3595,-2.3595,-2.3595,-2.3595,-2.3595,-2.3595,-2.3595,-2.3551,-2.3493,-2.3225,-2.3322,-2.3178,-2.2814,-2.2874,-2.304,-2.3125,-2.3125,-2.3125,-2.3125,-2.3125,-2.3125,-2.3125,-2.3125,-2.3125,-2.3125,-2.3125,-2.3125,-2.3125,-2.3125,-2.3125,-2.3125,-2.3125,-2.3125,-2.3125,-2.3113,-2.3088,-2.31,-2.3125,-2.3125,-2.3125,-2.3125,-2.3125,-2.3125,-2.3125,-2.3125,-2.3125,-2.2912,-2.2618,-2.2298,-2.2189,-2.1862,-2.1862,-2.2383,-2.225,-2.124,-2.0586,-2.031,-2.005,-1.9846,-1.9944,-2.0074,-1.911,-1.8144,-1.8144,-1.8144,-1.8076,-2.6015,-2.6573,-2.5913,-2.6015,-2.6505,-2.6657,-2.6556,-2.6116,-2.5711,-2.499,-2.3907,-2.31,-2.2697,-2.2634,-2.2218,-2.2069,-2.2039,-2.1964,-2.1949,-2.1964,-2.1844,-2.1739,-2.1665,-2.153,-2.1162,-2.0991,-2.0801,-2.0391,-1.9853,-2.0057,-2.0318,-2.0438,-2.0408,-2.0528,-2.1665,-2.2338,-2.2664,-2.2727,-2.3161,-2.3325,-2.334,-2.331,-2.3281,-2.3281,-2.34,-2.3415,-2.3415,-2.3565,-2.358,-2.3595,-2.3595,-2.3595,-2.3595,-2.3595,-2.3595,-2.3595,-2.3595,-2.3039,-2.2072,-2.2876,-2.3017,-2.2731,-2.2648,-2.2902,-2.3002,-2.3113,-2.3125,-2.3125,-2.3125,-2.3125,-2.3125,-2.3002,-2.2952,-2.31,-2.31,-2.3075,-2.3062,-2.3125,-2.3125,-2.3062,-2.3075,-2.304,-2.304,-2.31,-2.305,-2.3062,-2.3113,-2.3125,-2.31,-2.3065,-2.3065,-2.3037,-2.3025,-2.2887,-2.2799,-2.2485,-2.2197,-2.1801,-2.1475,-2.1153,-2.1056,-2.1463,-2.1014,-2.0115,-1.9558,-1.9148,-1.9188,-1.9222,-1.9233,-1.9177,-1.8721,-1.8076,-1.8008,-1.8008,-1.8008,-2.5,-2.5203,-2.4966,-2.5,-2.522,-2.522,-2.4912,-2.4235,-2.3528,-2.2948,-2.2601,-2.2124,-2.2024,-2.1919,-2.1799,-2.1605,-2.1635,-2.1695,-2.1695,-2.1605,-2.1246,-2.1081,-2.0961,-2.0677,-2.0356,-2.0169,-2.0049,-2.0012,-1.9745,-1.972,-1.9765,-1.9884,-1.9899,-1.9981,-2.0423,-2.0976,-2.1365,-2.1485,-2.1919,-2.2308,-2.2338,-2.2383,-2.2398,-2.2443,-2.2787,-2.2981,-2.3011,-2.3236,-2.3415,-2.343,-2.3415,-2.3445,-2.346,-2.3475,-2.3505,-2.355,-2.3537,-2.3228,-2.2592,-2.2693,-2.2349,-2.2082,-2.2209,-2.2548,-2.2585,-2.2962,-2.3062,-2.3088,-2.3085,-2.3037,-2.3125,-2.235,-2.225,-2.2852,-2.2987,-2.2937,-2.2937,-2.3062,-2.3113,-2.2975,-2.2937,-2.2686,-2.2585,-2.2585,-2.2585,-2.2686,-2.2723,-2.2924,-2.2962,-2.3075,-2.3053,-2.289,-2.2849,-2.2661,-2.2447,-2.1931,-2.1399,-2.0937,-2.0665,-2.0417,-2.0499,-2.0243,-1.9715,-1.87,-1.8396,-1.808,-1.8293,-1.8441,-1.8345,-1.8212,-1.8076,-1.8008,-1.8008,-1.8008,-1.8008,-2.4269,-2.4441,-2.4235,-2.4133,-2.4137,-2.4374,-2.4015,-2.3262,-2.2502,-2.2079,-2.1925,-2.1603,-2.135,-2.1291,-2.1111,-2.1006,-2.1006,-2.0991,-2.0976,-2.0946,-2.0587,-2.0393,-2.0183,-1.9944,-1.9899,-1.9705,-1.9705,-1.9705,-1.972,-1.9705,-1.9735,-1.9735,-1.9705,-1.9786,-2.0004,-2.0408,-2.0812,-2.1036,-2.147,-2.1829,-2.1814,-2.1784,-2.1754,-2.1874,-2.2099,-2.2379,-2.2443,-2.2682,-2.2966,-2.2981,-2.2966,-2.2966,-2.2966,-2.2966,-2.2951,-2.2936,-2.2891,-2.2653,-2.2337,-2.1934,-2.1416,-2.0648,-2.1473,-2.1945,-2.2058,-2.2284,-2.241,-2.251,-2.2841,-2.2791,-2.2523,-2.1659,-2.1803,-2.2389,-2.2447,-2.2385,-2.2422,-2.2523,-2.2548,-2.246,-2.2422,-2.2196,-2.202,-2.202,-2.202,-2.2159,-2.2297,-2.2485,-2.2732,-2.2799,-2.2689,-2.2393,-2.2301,-2.2088,-2.1674,-2.1168,-2.0592,-2.0053,-1.9611,-1.9194,-1.843,-1.7938,-1.7643,-1.746,-1.7139,-1.7027,-1.7465,-1.7644,-1.7821,-1.7978,-1.8008,-1.8008,-1.8008,-1.8008,-1.8008,-2.3782,-2.4286,-2.3663,-2.3359,-2.3477,-2.4002,-2.3991,-2.3539,-2.3063,-2.2602,-2.2161,-2.1069,-2.0813,-2.0655,-2.0107,-1.9927,-1.9987,-1.9936,-1.9929,-1.9936,-1.9914,-1.9824,-1.9809,-1.9735,-1.9705,-1.9705,-1.9705,-1.9705,-1.9705,-1.9705,-1.9705,-1.9705,-1.9705,-1.9705,-1.9914,-2.0168,-2.0483,-2.0662,-2.0917,-2.1186,-2.1186,-2.135,-2.1276,-2.135,-2.1515,-2.165,-2.1739,-2.1874,-2.1919,-2.1889,-2.1844,-2.1799,-2.1754,-2.171,-2.171,-2.1768,-2.1827,-2.1926,-2.168,-2.1245,-2.0751,-2.027,-2.0778,-2.1255,-2.1531,-2.1644,-2.1832,-2.2034,-2.2261,-2.2027,-2.1744,-2.1531,-2.1331,-2.1512,-2.1581,-2.1594,-2.1631,-2.1681,-2.1694,-2.1681,-2.1707,-2.1594,-2.1481,-2.1455,-2.1455,-2.1506,-2.1568,-2.1536,-2.1788,-2.2349,-2.2108,-2.1423,-2.1356,-2.1338,-2.0897,-2.0225,-1.9397,-1.8656,-1.7849,-1.7342,-1.6514,-1.6167,-1.6357,-1.6317,-1.5899,-1.6005,-1.6893,-1.7344,-1.7568,-1.7725,-1.7881,-1.8008,-1.8008,-1.8008,-1.8008,-2.2733,-2.2902,-2.2699,-2.2615,-2.2665,-2.2852,-2.2651,-2.2145,-2.1434,-2.1161,-2.1331,-2.0682,-2.0647,-2.0848,-2.0373,-2.0158,-2.0019,-1.9874,-1.9792,-1.9726,-1.9726,-1.9726,-1.9705,-1.9705,-1.9705,-1.9705,-1.9705,-1.9705,-1.9705,-1.9705,-1.9705,-1.9705,-1.9705,-1.9705,-1.9765,-1.9884,-1.9989,-2.0109,-2.0363,-2.0438,-2.0438,-2.0453,-2.0438,-2.0498,-2.0842,-2.0946,-2.1021,-2.138,-2.15,-2.1605,-2.165,-2.1665,-2.1695,-2.1695,-2.171,-2.1769,-2.2002,-2.212,-2.1328,-2.1287,-2.0939,-2.0029,-2.02,-2.0476,-2.0828,-2.1154,-2.1343,-2.1466,-2.1602,-2.1378,-2.1171,-2.0949,-2.0949,-2.1079,-2.1054,-2.1004,-2.1066,-2.1179,-2.1179,-2.1179,-2.1192,-2.1066,-2.0966,-2.0891,-2.0903,-2.0903,-2.0907,-2.0794,-2.0986,-2.1542,-2.1369,-2.0693,-2.0287,-2.0238,-1.9749,-1.9057,-1.8126,-1.7259,-1.6644,-1.6228,-1.5908,-1.5713,-1.5537,-1.5525,-1.5575,-1.6019,-1.666,-1.7031,-1.7197,-1.7529,-1.7715,-1.7881,-1.8008,-1.7988,-1.7998,-2.2388,-2.231,-2.2327,-2.2327,-2.2327,-2.2327,-2.2106,-2.1764,-2.1134,-2.1007,-2.115,-2.0812,-2.0731,-2.0942,-2.0714,-2.055,-2.0516,-2.0158,-1.9965,-1.9929,-1.9737,-1.9726,-1.9705,-1.966,-1.9705,-1.969,-1.9675,-1.9705,-1.9675,-1.969,-1.9705,-1.9705,-1.9705,-1.9705,-1.972,-1.975,-1.9735,-1.975,-1.975,-1.9705,-1.9705,-1.9705,-1.9705,-1.9779,-2.0213,-2.0288,-2.0363,-2.0842,-2.0902,-2.0917,-2.0902,-2.0887,-2.0872,-2.0857,-2.1111,-2.1186,-2.1491,-2.1396,-2.098,-2.1098,-2.0686,-2.0117,-1.9798,-1.9999,-2.0225,-2.0501,-2.0627,-2.0743,-2.0806,-2.0752,-2.0482,-2.0316,-2.0548,-2.0727,-2.0602,-2.0476,-2.0602,-2.074,-2.0765,-2.0752,-2.069,-2.0564,-2.0464,-2.0401,-2.0326,-2.0313,-2.03,-2.0238,-2.0467,-2.0961,-2.0543,-1.983,-1.9401,-1.9088,-1.8522,-1.8002,-1.7331,-1.6665,-1.6212,-1.5816,-1.5468,-1.543,-1.543,-1.5488,-1.5576,-1.6025,-1.6406,-1.6592,-1.6787,-1.7119,-1.7422,-1.7598,-1.7764,-1.793,-1.7949,-2.2527,-2.2327,-2.2327,-2.2327,-2.2327,-2.2327,-2.2282,-2.2254,-2.1794,-2.1658,-2.1598,-2.1213,-2.1086,-2.126,-2.1118,-2.1055,-2.091,-2.0583,-2.028,-2.0218,-1.9786,-1.9592,-1.9486,-1.9495,-1.9166,-1.9375,-1.945,-1.9226,-1.954,-1.9645,-1.9705,-1.969,-1.9705,-1.9705,-1.9705,-1.9705,-1.9705,-1.9705,-1.9705,-1.9705,-1.9705,-1.9705,-1.9705,-1.9705,-1.975,-1.9765,-1.975,-1.975,-1.9705,-1.972,-1.975,-1.9839,-1.9869,-1.9775,-2.0087,-2.0437,-2.0727,-2.0575,-2.0623,-2.0848,-2.0515,-2.0075,-1.9837,-1.99,-2.009,-2.0062,-2.0175,-2.02,-2.0263,-2.0263,-2.0097,-2.006,-2.0135,-2.0238,-2.0175,-2.0112,-2.0175,-2.0263,-2.0263,-2.0263,-2.0238,-2.0125,-2.0112,-2.0062,-2.0087,-1.9911,-1.9874,-1.9861,-1.9868,-2.036,-1.9887,-1.9018,-1.8147,-1.7731,-1.7579,-1.7121,-1.6648,-1.6104,-1.5806,-1.5642,-1.5468,-1.542,-1.542,-1.5478,-1.5537,-1.5664,-1.5937,-1.6182,-1.6426,-1.665,-1.6953,-1.7227,-1.7461,-1.7656,-1.79,-2.2377,-2.2327,-2.2327,-2.2327,-2.231,-2.2327,-2.2293,-2.2282,-2.2209,-2.2039,-2.2032,-2.1688,-2.1645,-2.184,-2.1486,-2.1362,-2.1256,-2.0687,-2.0585,-2.0087,-1.9602,-1.9148,-1.8906,-1.8583,-1.8358,-1.8194,-1.8268,-1.8583,-1.8942,-1.9331,-1.9675,-1.966,-1.9675,-1.9705,-1.9705,-1.9705,-1.9705,-1.9705,-1.9705,-1.9705,-1.9705,-1.9705,-1.9705,-1.9705,-1.9705,-1.9705,-1.9705,-1.9705,-1.9705,-1.9705,-1.9705,-1.972,-1.9705,-1.9332,-1.9406,-1.9812,-2.0024,-1.9895,-2.0021,-2.048,-2.0498,-2.007,-1.9862,-2.0003,-2.0016,-1.9901,-1.9798,-1.9798,-1.9798,-1.9798,-1.9798,-1.9798,-1.9798,-1.9798,-1.9786,-1.9786,-1.9786,-1.9761,-1.9761,-1.9761,-1.9761,-1.9773,-1.9773,-1.9773,-1.9798,-1.9811,-1.9811,-1.972,-1.9405,-1.9478,-1.9263,-1.8344,-1.6798,-1.6271,-1.6371,-1.6425,-1.6036,-1.5864,-1.5584,-1.5468,-1.542,-1.542,-1.542,-1.542,-1.5469,-1.5576,-1.5703,-1.5918,-1.6143,-1.6279,-1.6523,-1.6816,-1.7021,-1.7207,-1.7598,-2.1601,-2.1489,-2.1722,-2.16,-2.138,-2.1667,-2.1617,-2.1302,-2.1269,-2.1252,-2.1437,-2.168,-2.2044,-2.2175,-2.1685,-2.1267,-2.1068,-2.0326,-1.9751,-1.931,-1.9054,-1.8561,-1.8125,-1.7834,-1.7861,-1.7697,-1.7712,-1.8029,-1.8328,-1.8852,-1.9211,-1.9331,-1.945,-1.9675,-1.9675,-1.969,-1.966,-1.9705,-1.9696,-1.9666,-1.9666,-1.9675,-1.969,-1.9705,-1.9705,-1.9705,-1.9705,-1.9705,-1.9705,-1.9705,-1.9705,-1.9493,-1.9369,-1.908,-1.908,-1.9272,-1.9391,-1.9398,-1.9581,-2.0021,-2.055,-2.0134,-1.9811,-1.993,-2.0333,-2.0194,-1.985,-1.9798,-1.9798,-1.9798,-1.9798,-1.9798,-1.9798,-1.9798,-1.9748,-1.971,-1.9535,-1.9359,-1.9359,-1.9371,-1.9422,-1.9547,-1.9522,-1.9434,-1.9446,-1.9595,-1.9608,-1.9147,-1.8867,-1.8484,-1.8293,-1.7716,-1.6124,-1.5533,-1.582,-1.5806,-1.5642,-1.5468,-1.542,-1.542,-1.542,-1.542,-1.542,-1.542,-1.542,-1.5439,-1.5576,-1.5732,-1.5732,-1.5791,-1.6094,-1.6426,-1.6592,-1.6777,-1.7158,-2.0673,-2.0439,-2.0858,-2.067,-2.0154,-2.0737,-2.0703,-2.012,-2.0035,-2.0052,-2.0255,-2.1404,-2.1955,-2.1769,-2.1414,-2.091,-2.045,-1.9947,-1.9177,-1.8668,-1.8161,-1.7944,-1.7726,-1.7462,-1.7266,-1.7311,-1.7401,-1.7428,-1.7578,-1.8208,-1.8642,-1.8792,-1.9166,-1.9585,-1.963,-1.9555,-1.945,-1.9396,-1.9371,-1.9386,-1.9471,-1.9615,-1.9675,-1.9705,-1.9705,-1.9705,-1.9705,-1.9705,-1.9705,-1.9654,-1.9566,-1.9207,-1.8855,-1.8612,-1.8803,-1.886,-1.8874,-1.9073,-1.9427,-1.9846,-2.0147,-2.0188,-1.994,-1.9969,-2.0329,-2.0064,-1.9712,-1.9572,-1.9572,-1.9724,-1.9724,-1.9547,-1.9547,-1.9547,-1.9484,-1.9422,-1.9158,-1.887,-1.887,-1.887,-1.9032,-1.9171,-1.9158,-1.907,-1.9096,-1.9207,-1.8924,-1.8526,-1.8037,-1.747,-1.7118,-1.6537,-1.5413,-1.5137,-1.537,-1.5439,-1.5371,-1.542,-1.542,-1.542,-1.542,-1.542,-1.542,-1.542,-1.542,-1.542,-1.542,-1.5518,-1.5478,-1.5469,-1.5684,-1.5996,-1.6103,-1.6318,-1.6699,-2.0319,-2.0077,-2.0196,-2.0103,-2.0002,-2.0154,-2.012,-2.0002,-1.9934,-1.9985,-1.9968,-2.012,-2.0441,-2.0441,-2.0339,-2.0075,-1.985,-1.9429,-1.9431,-1.9191,-1.7972,-1.7613,-1.7255,-1.6774,-1.6278,-1.6383,-1.6712,-1.6876,-1.6995,-1.758,-1.8179,-1.8583,-1.8702,-1.9091,-1.9495,-1.9286,-1.8867,-1.8861,-1.8646,-1.8531,-1.8616,-1.8927,-1.9615,-1.9705,-1.9705,-1.9705,-1.9705,-1.9705,-1.9705,-1.9566,-1.9236,-1.8769,-1.8401,-1.8104,-1.8302,-1.8612,-1.8588,-1.8827,-1.9267,-1.9879,-2.0215,-1.981,-1.9615,-1.9687,-1.9681,-1.9149,-1.8887,-1.8744,-1.8844,-1.9257,-1.9294,-1.8843,-1.8681,-1.8681,-1.8643,-1.8581,-1.843,-1.8367,-1.8367,-1.8367,-1.8392,-1.8493,-1.8555,-1.8482,-1.8496,-1.8413,-1.787,-1.7408,-1.683,-1.6378,-1.5935,-1.537,-1.4617,-1.49,-1.5234,-1.5293,-1.5312,-1.5371,-1.542,-1.542,-1.542,-1.542,-1.542,-1.542,-1.542,-1.542,-1.542,-1.542,-1.542,-1.5439,-1.543,-1.5566,-1.5674,-1.5869,-1.625]},{"header":{"parameterUnit":"m.s-1","parameterCategory":1,"la1":31.0,"la2":29.5877,"lo1":-88.7671,"lo2":-86.6584,"dy":0.0162,"dx":0.0185,"nx":115,"ny":88,"refTime":"2026-03-26T12:00:00:Z","depth":0,"parameterNumber":3,"parameterNumberName":"V-component_of_WINDS"},"data":[0.0,0.0,0.0,0.0,0.0,0.0,0.0,0.0,0.0,0.0,0.0,0.0,0.0,0.0,0.0,0.0,0.0,0.0,0.0,0.0,0.0,0.0,0.0,0.0,0.0,0.0,0.0,0.0,0.0,0.0,0.0,0.0,0.0,0.0,0.0,0.0,0.0,0.0,0.0,0.0,0.0,0.0,0.0,0.0,0.0,0.0,0.0,0.0,0.0,0.0,0.0,0.0,0.0,0.0,0.0,0.0,0.0,0.0,0.0,0.0,0.0,0.0,0.0,0.0,0.0,0.0,0.0,0.0,0.0,0.0,0.0,0.0,0.0,0.0,0.0,0.0,0.0,0.0,0.0,0.0,0.0,0.0,0.0,0.0,0.0,0.0,0.0,0.0,0.0,0.0,0.0,0.0,0.0,0.0,0.0,0.0,0.0,0.0,0.0,0.0,0.0,0.0,0.0,0.0,0.0,0.0,0.0,0.0,0.0,0.0,0.0,0.0,0.0,0.0,0.0,0.0,0.0,0.0,0.0,0.0,0.0,0.0,0.0,0.0,0.0,0.0,0.0,0.0,0.0,0.0,0.0,0.0,0.0,0.0,0.0,0.0,0.0,0.0,0.0,0.0,0.0,0.0,0.0,0.0,0.0,0.0,0.0,0.0,0.0,0.0,0.0,0.0,0.0,0.0,0.0,0.0,0.0,0.0,0.0,0.0,0.0,0.0,0.0,0.0,0.0,0.0,0.0,0.0,0.0,0.0,0.0,0.0,0.0,0.0,0.0,0.0,0.0,0.0,0.0,0.0,0.0,0.0,0.0,0.0,0.0,0.0,0.0,0.0,0.0,0.0,0.0,0.0,0.0,0.0,0.0,0.0,0.0,0.0,0.0,0.0,0.0,0.0,0.0,0.0,0.0,0.0,0.0,0.0,0.0,0.0,0.0,0.0,0.0,0.0,0.0,0.0,0.0,0.0,0.0,0.0,0.0,0.0,0.0,0.0,0.0,0.0,0.0,0.0,0.0,0.0,0.0,0.0,0.0,0.0,0.0,0.0,0.0,0.0,0.0,0.0,0.0,0.0,0.0,0.0,0.0,0.0,0.0,0.0,0.0,0.0,0.0,0.0,0.0,0.0,0.0,0.0,0.0,0.0,0.0,0.0,0.0,0.0,0.0,0.0,0.0,0.0,0.0,0.0,0.0,0.0,0.0,0.0,0.0,0.0,0.0,0.0,0.0,0.0,0.0,0.0,0.0,0.0,0.0,0.0,0.0,0.0,0.0,0.0,0.0,0.0,0.0,0.0,0.0,0.0,0.0,0.0,0.0,0.0,0.0,0.0,0.0,0.0,0.0,0.0,0.0,0.0,0.0,0.0,0.0,0.0,0.0,0.0,0.0,0.0,0.0,0.0,0.0,0.0,0.0,0.0,0.0,0.0,0.0,0.0,0.0,0.0,0.0,0.0,0.0,0.0,0.0,0.0,0.0,0.0,0.0,0.0,0.0,0.0,0.0,0.0,0.0,0.0,0.0,0.0,0.0,0.0,0.0,0.0,0.0,0.0,0.0,0.0,0.0,0.0,0.0,0.0,0.0,0.0,0.0,0.0,0.0,0.0,0.0,0.0,0.0,0.0,0.0,0.0,0.0,0.0,0.0,0.0,0.0,0.0,0.0,0.0,0.0,0.0,0.0,0.0,0.0,0.0,0.0,0.0,0.0,0.0,0.0,0.0,0.0,0.0,0.0,0.0,0.0,0.0,0.0,0.0,0.0,0.0,0.0,0.0,0.0,0.0,0.0,0.0,0.0,0.0,0.0,0.0,0.0,0.0,0.0,0.0,0.0,0.0,0.0,0.0,0.0,0.0,0.0,0.0,0.0,0.0,0.0,0.0,0.0,0.0,0.0,0.0,0.0,0.0,0.0,0.0,0.0,0.0,0.0,0.0,0.0,0.0,0.0,0.0,0.0,0.0,0.0,0.0,0.0,0.0,0.0,0.0,0.0,0.0,0.0,0.0,0.0,0.0,0.0,0.0,0.0,0.0,0.0,0.0,0.0,0.0,0.0,0.0,0.0,0.0,0.0,0.0,0.0,0.0,0.0,0.0,0.0,0.0,0.0,0.0,0.0,0.0,0.0,0.0,0.0,0.0,0.0,0.0,0.0,0.0,0.0,0.0,0.0,0.0,0.0,0.0,0.0,0.0,0.0,0.0,0.0,0.0,0.0,0.0,0.0,0.0,0.0,0.0,0.0,0.0,0.0,0.0,0.0,0.0,0.0,0.0,0.0,0.0,0.0,0.0,0.0,0.0,0.0,0.0,0.0,0.0,0.0,0.0,0.0,0.0,0.0,0.0,0.0,0.0,0.0,0.0,0.0,0.0,0.0,0.0,0.0,0.0,0.0,0.0,0.0,0.0,0.0,0.0,0.0,0.0,0.0,0.0,0.0,0.0,0.0,0.0,0.0,0.0,0.0,0.0,0.0,0.0,0.0,0.0,0.0,0.0,0.0,0.0,0.0,0.0,0.0,0.0,0.0,0.0,0.0,0.0,0.0,0.0,0.0,0.0,0.0,0.0,0.0,0.0,0.0,0.0,0.0,0.0,0.0,0.0,0.0,0.0,0.0,0.0,0.0,0.0,0.0,0.0,0.0,0.0,0.0,0.0,0.0,0.0,0.0,0.0,0.0,0.0,0.0,0.0,0.0,0.0,0.0,0.0,0.0,0.0,0.0,0.0,0.0,0.0,0.0,0.0,0.0,0.0,0.0,0.0,0.0,0.0,0.0,0.0,0.0,0.0,0.0,0.0,0.0,0.0,0.0,0.0,0.0,0.0,0.0,0.0,0.0,0.0,0.0,0.0,0.0,0.0,0.0,0.0,0.0,0.0,0.0,0.0,0.0,0.0,0.0,0.0,0.0,0.0,0.0,0.0,0.0,0.0,0.0,0.0,0.0,0.0,0.0,0.0,0.0,0.0,0.0,0.0,0.0,0.0,0.0,0.0,0.0,0.0,0.0,0.0,0.0,0.0,0.0,0.0,0.0,0.0,0.0,0.0,0.0,0.0,0.0,0.0,0.0,0.0,0.0,0.0,0.0,0.0,0.0,0.0,0.0,0.0,0.0,0.0,0.0,0.0,0.0,0.0,0.0,0.0,0.0,0.0,0.0,0.0,0.0,0.0,0.0,0.0,0.0,0.0,0.0,0.0,0.0,0.0,0.0,0.0,0.0,0.0,0.0,0.0,0.0,0.0,0.0,0.0,0.0,0.0,0.0,0.0,0.0,0.0,0.0,0.0,0.0,0.0,0.0,0.0,0.0,0.0,0.0,0.0,0.0,0.0,0.0,0.0,0.0,0.0,0.0,0.0,0.0,0.0,0.0,0.0,0.0,0.0,0.0,0.0,0.0,0.0,0.0,0.0,0.0,0.0,0.0,0.0,0.0,0.0,0.0,0.0,0.0,0.0,0.0,0.0,0.0,0.0,0.0,0.0,0.0,0.0,0.0,0.0,0.0,0.0,0.0,0.0,0.0,0.0,0.0,0.0,0.0,0.0,0.0,0.0,0.0,0.0,0.0,0.0,0.0,0.0,0.0,0.0,0.0,0.0,0.0,0.0,0.0,0.0,0.0,0.0,0.0,0.0,0.0,0.0,0.0,0.0,0.0,0.0,0.0,0.0,0.0,0.0,0.0,0.0,0.0,0.0,0.0,0.0,0.0,0.0,0.0,0.0,0.0,0.0,0.0,0.0,0.0,0.0,0.0,0.0,0.0,0.0,0.0,0.0,0.0,0.0,0.0,0.0,0.0,0.0,0.0,0.0,0.0,0.0,0.0,0.0,0.0,0.0,0.0,0.0,0.0,0.0,0.0,0.0,0.0,0.0,0.0,0.0,0.0,0.0,0.0,0.0,0.0,0.0,0.0,0.0,0.0,0.0,0.0,0.0,0.0,0.0,0.0,0.0,0.0,0.0,0.0,0.0,0.0,0.0,0.0,0.0,0.0,0.0,0.0,0.0,0.0,0.0,0.0,0.0,0.0,0.0,0.0,0.0,0.0,0.0,0.0,0.0,0.0,0.0,0.0,0.0,0.0,0.0,0.0,0.0,0.0,0.0,0.0,0.0,0.0,0.0,0.0,0.0,0.0,0.0,0.0,0.0,0.0,0.0,0.0,0.0,0.0,0.0,0.0,0.0,0.0,0.0,0.0,0.0,0.0,0.0,0.0,0.0,0.0,0.0,0.0,0.0,0.0,0.0,0.0,0.0,0.0,0.0,0.0,0.0,0.0,0.0,0.0,0.0,-0.929,0.0,0.0,0.0,0.0,0.0,0.0,0.0,0.0,0.0,0.0,0.0,0.0,0.0,0.0,0.0,0.0,0.0,0.0,0.0,0.0,0.0,0.0,0.0,0.0,0.0,0.0,0.0,0.0,0.0,0.0,0.0,0.0,0.0,0.0,0.0,0.0,0.0,0.0,0.0,0.0,0.0,0.0,0.0,0.0,0.0,0.0,0.0,0.0,0.0,0.0,0.0,0.0,0.0,0.0,0.0,0.0,0.0,0.0,0.0,0.0,0.0,0.0,0.0,0.0,0.0,0.0,0.0,0.0,0.0,0.0,0.0,0.0,0.0,0.0,0.0,0.0,0.0,0.0,0.0,0.0,0.0,0.0,0.0,0.0,0.0,0.0,0.0,0.0,0.0,0.0,0.0,0.0,0.0,0.0,0.0,0.0,0.0,0.0,0.0,0.0,0.0,0.0,0.0,0.0,0.0,0.0,0.0,0.0,0.0,0.0,-0.7992,-0.7101,-0.7368,-0.7894,-0.8731,0.0,0.0,0.0,0.0,0.0,0.0,0.0,0.0,0.0,0.0,0.0,0.0,0.0,0.0,0.0,0.0,0.0,0.0,0.0,0.0,0.0,0.0,0.0,0.0,0.0,0.0,0.0,0.0,0.0,0.0,0.0,0.0,0.0,0.0,0.0,0.0,0.0,0.0,0.0,0.0,0.0,0.0,0.0,0.0,0.0,0.0,0.0,0.0,0.0,0.0,0.0,0.0,0.0,0.0,0.0,0.0,0.0,0.0,0.0,0.0,0.0,0.0,0.0,0.0,0.0,0.0,0.0,0.0,0.0,0.0,0.0,0.0,0.0,0.0,0.0,0.0,0.0,0.0,0.0,0.0,0.0,0.0,0.0,0.0,0.0,0.0,0.0,0.0,0.0,0.0,0.0,0.0,0.0,0.0,0.0,0.0,0.0,0.0,0.0,0.0,0.0,0.0,0.0,0.0,0.0,0.0,0.0,0.0,0.0,0.0,0.0,0.0,-0.6572,-0.7652,-0.9351,0.0,0.0,0.0,0.0,0.0,0.0,0.0,0.0,0.0,0.0,0.0,0.0,0.0,0.0,0.0,0.0,0.0,0.0,0.0,0.0,0.0,0.0,0.0,0.0,0.0,0.0,0.0,0.0,0.0,0.0,0.0,0.0,0.0,0.0,0.0,0.0,0.0,0.0,0.0,0.0,0.0,0.0,0.0,0.0,0.0,0.0,0.0,0.0,0.0,0.0,0.0,0.0,0.0,0.0,0.0,0.0,0.0,0.0,0.0,0.0,0.0,0.0,0.0,0.0,0.0,0.0,0.0,0.0,0.0,0.0,0.0,0.0,0.0,0.0,0.0,0.0,0.0,0.0,0.0,0.0,0.0,0.0,0.0,0.0,0.0,0.0,0.0,0.0,0.0,0.0,0.0,0.0,0.0,0.0,0.0,0.0,0.0,0.0,0.0,0.0,0.0,0.0,0.0,0.0,0.0,0.0,0.0,0.0,0.0,0.0,-0.5426,-0.5108,-0.6588,0.0,-1.1225,0.0,0.0,0.0,0.0,0.0,0.0,0.0,0.0,0.0,0.0,0.0,0.0,0.0,0.0,0.0,0.0,0.0,0.0,0.0,0.0,0.0,0.0,0.0,0.0,0.0,0.0,0.0,0.0,0.0,0.0,0.0,0.0,0.0,0.0,0.0,0.0,0.0,0.0,0.0,0.0,0.0,0.0,0.0,0.0,0.0,0.0,0.0,0.0,0.0,0.0,0.0,0.0,0.0,0.0,0.0,0.0,0.0,0.0,0.0,0.0,0.0,0.0,0.0,0.0,0.0,0.0,0.0,0.0,0.0,0.0,0.0,0.0,0.0,0.0,0.0,0.0,0.0,0.0,0.0,0.0,0.0,0.0,0.0,0.0,0.0,0.0,0.0,0.0,0.0,0.0,0.0,0.0,0.0,0.0,0.0,0.0,0.0,0.0,0.0,0.0,0.0,0.0,0.0,0.0,0.0,0.0,0.0,0.0,0.0,0.0,-0.5081,-0.4918,-0.6409,-0.8685,0.0,0.0,0.0,0.0,0.0,0.0,0.0,0.0,0.0,0.0,0.0,0.0,0.0,0.0,0.0,0.0,0.0,0.0,0.0,0.0,0.0,0.0,0.0,0.0,0.0,0.0,0.0,0.0,0.0,0.0,0.0,0.0,0.0,0.0,0.0,0.0,0.0,0.0,0.0,0.0,0.0,0.0,0.0,0.0,0.0,0.0,0.0,0.0,0.0,0.0,0.0,0.0,0.0,0.0,0.0,0.0,0.0,0.0,0.0,0.0,0.0,0.0,0.0,0.0,0.0,0.0,0.0,0.0,0.0,0.0,0.0,0.0,0.0,0.0,0.0,0.0,0.0,0.0,0.0,0.0,0.0,0.0,0.0,0.0,0.0,0.0,0.0,0.0,0.0,0.0,0.0,0.0,0.0,0.0,0.0,0.0,0.0,0.0,0.0,0.0,0.0,0.0,0.0,0.0,0.0,0.0,0.0,0.0,0.0,0.0,-0.5842,-0.52,-0.5771,-0.6926,-0.8849,-1.1567,0.0,0.0,0.0,0.0,0.0,0.0,0.0,0.0,0.0,0.0,0.0,0.0,0.0,0.0,0.0,0.0,0.0,0.0,0.0,0.0,0.0,0.0,0.0,0.0,0.0,0.0,0.0,0.0,0.0,0.0,0.0,0.0,0.0,0.0,0.0,0.0,0.0,0.0,0.0,0.0,0.0,0.0,0.0,0.0,0.0,0.0,0.0,0.0,0.0,0.0,0.0,0.0,0.0,0.0,0.0,0.0,0.0,0.0,0.0,0.0,0.0,0.0,0.0,0.0,0.0,0.0,0.0,0.0,0.0,0.0,0.0,0.0,0.0,0.0,0.0,0.0,0.0,0.0,0.0,0.0,0.0,0.0,0.0,0.0,0.0,0.0,0.0,0.0,0.0,0.0,0.0,0.0,0.0,0.0,0.0,0.0,0.0,0.0,0.0,0.0,0.0,0.0,0.0,0.0,0.0,0.0,0.0,0.0,-0.7551,-0.5786,-0.5852,-0.7797,-0.8398,-0.9654,0.0,0.0,0.0,0.0,0.0,0.0,0.0,0.0,0.0,0.0,0.0,0.0,0.0,0.0,0.0,0.0,0.0,0.0,0.0,0.0,0.0,0.0,0.0,0.0,0.0,0.0,0.0,0.0,0.0,0.0,0.0,0.0,0.0,0.0,0.0,0.0,0.0,0.0,0.0,0.0,0.0,0.0,0.0,0.0,0.0,0.0,0.0,0.0,0.0,0.0,0.0,0.0,0.0,0.0,0.0,0.0,0.0,0.0,0.0,0.0,0.0,0.0,0.0,0.0,0.0,0.0,0.0,0.0,0.0,0.0,0.0,0.0,0.0,0.0,0.0,0.0,0.0,0.0,0.0,0.0,0.0,0.0,0.0,0.0,0.0,0.0,0.0,0.0,0.0,0.0,0.0,0.0,0.0,0.0,0.0,0.0,0.0,0.0,0.0,0.0,0.0,0.0,0.0,0.0,0.0,0.0,0.0,0.0,0.0,-0.6977,-0.5584,-0.6145,-0.8672,-0.8122,-0.9216,0.0,0.0,0.0,0.0,0.0,0.0,0.0,0.0,0.0,0.0,0.0,0.0,0.0,0.0,0.0,0.0,0.0,0.0,0.0,0.0,0.0,0.0,0.0,0.0,0.0,0.0,0.0,0.0,0.0,0.0,0.0,0.0,0.0,0.0,0.0,0.0,0.0,0.0,0.0,0.0,0.0,0.0,0.0,0.0,0.0,0.0,0.0,0.0,0.0,0.0,0.0,0.0,0.0,0.0,0.0,0.0,0.0,0.0,0.0,0.0,0.0,0.0,0.0,0.0,0.0,0.0,0.0,0.0,0.0,0.0,0.0,0.0,0.0,0.0,0.0,0.0,0.0,0.0,0.0,0.0,0.0,0.0,0.0,0.0,0.0,0.0,0.0,0.0,0.0,0.0,0.0,0.0,0.0,0.0,0.0,0.0,0.0,0.0,0.0,0.0,0.0,0.0,0.0,0.0,0.0,0.0,0.0,0.0,0.0,-0.6352,0.0,-0.6467,-0.8609,-0.8022,-0.9092,0.0,0.0,0.0,0.0,0.0,0.0,0.0,0.0,0.0,0.0,0.0,0.0,0.0,0.0,0.0,0.0,0.0,0.0,0.0,0.0,0.0,0.0,0.0,0.0,0.0,0.0,0.0,0.0,0.0,0.0,0.0,0.0,0.0,0.0,0.0,0.0,0.0,0.0,0.0,0.0,0.0,0.0,0.0,0.0,0.0,0.0,0.0,0.0,0.0,0.0,0.0,0.0,0.0,0.0,0.0,0.0,0.0,0.0,0.0,0.0,0.0,0.0,0.0,0.0,0.0,0.0,0.0,0.0,0.0,0.0,0.0,0.0,0.0,0.0,0.0,0.0,0.0,0.0,0.0,0.0,0.0,0.0,0.0,0.0,0.0,0.0,0.0,0.0,0.0,0.0,0.0,0.0,0.0,0.0,0.0,0.0,0.0,0.0,0.0,0.0,0.0,0.0,0.0,0.0,0.0,0.0,0.0,0.0,-0.7701,-0.5747,-0.6064,-0.6748,-0.7737,-0.8285,-0.932,0.0,0.0,0.0,0.0,0.0,0.0,0.0,0.0,0.0,0.0,0.0,0.0,0.0,0.0,0.0,0.0,0.0,0.0,0.0,0.0,0.0,0.0,0.0,0.0,0.0,0.0,0.0,0.0,0.0,0.0,0.0,0.0,0.0,0.0,0.0,0.0,0.0,0.0,0.0,0.0,0.0,0.0,0.0,0.0,0.0,0.0,0.0,0.0,0.0,0.0,0.0,0.0,0.0,0.0,0.0,0.0,0.0,0.0,0.0,0.0,0.0,0.0,0.0,0.0,0.0,0.0,0.0,0.0,0.0,0.0,0.0,0.0,0.0,0.0,0.0,0.0,0.0,0.0,0.0,0.0,0.0,0.0,0.0,0.0,0.0,0.0,0.0,0.0,0.0,0.0,0.0,0.0,0.0,0.0,0.0,0.0,0.0,0.0,0.0,0.0,0.0,0.0,0.0,0.0,0.0,0.0,0.0,0.0,0.0,-0.6116,-0.599,-0.7112,-0.9382,-0.8539,-0.9557,0.0,0.0,0.0,0.0,0.0,0.0,0.0,0.0,0.0,0.0,0.0,0.0,0.0,0.0,0.0,0.0,0.0,0.0,0.0,0.0,0.0,0.0,0.0,0.0,0.0,0.0,0.0,0.0,0.0,0.0,0.0,0.0,0.0,0.0,0.0,0.0,0.0,0.0,0.0,0.0,0.0,0.0,0.0,0.0,0.0,0.0,0.0,0.0,0.0,0.0,0.0,0.0,0.0,0.0,0.0,0.0,0.0,0.0,0.0,0.0,0.0,0.0,0.0,0.0,0.0,0.0,0.0,0.0,0.0,0.0,0.0,0.0,0.0,0.0,0.0,0.0,0.0,0.0,0.0,0.0,0.0,0.0,0.0,0.0,0.0,0.0,0.0,0.0,0.0,0.0,0.0,0.0,0.0,0.0,0.0,0.0,0.0,0.0,0.0,0.0,0.0,0.0,0.0,0.0,0.0,0.0,0.0,0.0,0.0,-0.8705,-0.7195,-0.7589,-1.0019,-0.8753,-0.9649,-1.299,0.0,0.0,0.0,0.0,0.0,0.0,0.0,0.0,0.0,0.0,0.0,0.0,0.0,0.0,0.0,0.0,0.0,0.0,0.0,0.0,0.0,0.0,0.0,0.0,0.0,0.0,0.0,0.0,0.0,0.0,0.0,0.0,0.0,0.0,0.0,0.0,0.0,0.0,0.0,0.0,0.0,0.0,0.0,0.0,0.0,0.0,0.0,0.0,0.0,0.0,0.0,0.0,0.0,0.0,0.0,0.0,0.0,0.0,0.0,0.0,0.0,0.0,0.0,0.0,0.0,0.0,0.0,0.0,0.0,0.0,0.0,0.0,0.0,0.0,0.0,0.0,0.0,0.0,0.0,0.0,0.0,0.0,0.0,0.0,0.0,0.0,0.0,0.0,0.0,0.0,0.0,0.0,0.0,0.0,0.0,0.0,0.0,0.0,0.0,0.0,0.0,0.0,0.0,0.0,0.0,0.0,0.0,0.0,-1.291,-0.9501,-0.8344,-0.9756,-0.9203,-0.9871,0.0,0.0,0.0,0.0,0.0,0.0,0.0,0.0,0.0,0.0,0.0,0.0,0.0,0.0,0.0,0.0,0.0,0.0,0.0,0.0,0.0,0.0,0.0,0.0,0.0,0.0,0.0,0.0,0.0,0.0,0.0,0.0,0.0,0.0,0.0,0.0,0.0,0.0,0.0,0.0,0.0,0.0,0.0,0.0,0.0,0.0,0.0,0.0,0.0,0.0,0.0,0.0,0.0,0.0,0.0,0.0,0.0,0.0,0.0,0.0,0.0,0.0,0.0,0.0,0.0,0.0,0.0,0.0,0.0,0.0,0.0,0.0,0.0,0.0,0.0,0.0,0.0,0.0,0.0,0.0,0.0,0.0,0.0,0.0,0.0,0.0,0.0,0.0,0.0,0.0,0.0,0.0,0.0,0.0,0.0,0.0,0.0,0.0,0.0,0.0,0.0,0.0,0.0,0.0,0.0,0.0,0.0,0.0,0.0,-1.322,-1.1775,-1.1601,-1.2796,-1.1702,-1.206,0.0,0.0,0.0,0.0,0.0,0.0,0.0,0.0,0.0,0.0,0.0,0.0,0.0,0.0,0.0,0.0,0.0,0.0,0.0,0.0,0.0,0.0,0.0,0.0,0.0,0.0,0.0,0.0,0.0,0.0,0.0,0.0,0.0,0.0,0.0,0.0,0.0,0.0,0.0,0.0,0.0,0.0,0.0,0.0,0.0,0.0,0.0,0.0,0.0,0.0,0.0,0.0,0.0,0.0,0.0,0.0,0.0,0.0,0.0,0.0,0.0,0.0,0.0,0.0,0.0,0.0,0.0,0.0,0.0,0.0,0.0,0.0,0.0,0.0,0.0,0.0,0.0,0.0,0.0,0.0,0.0,0.0,0.0,0.0,0.0,0.0,0.0,0.0,0.0,0.0,0.0,0.0,0.0,0.0,0.0,0.0,0.0,0.0,0.0,0.0,0.0,0.0,0.0,0.0,0.0,0.0,0.0,0.0,-1.4401,-1.554,-1.476,-1.467,-1.5381,-1.3393,-1.3123,0.0,0.0,0.0,0.0,0.0,0.0,0.0,0.0,0.0,0.0,0.0,0.0,0.0,0.0,0.0,0.0,0.0,0.0,0.0,0.0,0.0,0.0,0.0,0.0,0.0,0.0,0.0,0.0,0.0,0.0,0.0,0.0,0.0,0.0,0.0,0.0,0.0,0.0,0.0,0.0,0.0,0.0,0.0,0.0,0.0,0.0,0.0,0.0,0.0,0.0,0.0,0.0,0.0,0.0,0.0,0.0,0.0,0.0,0.0,0.0,0.0,0.0,0.0,0.0,0.0,0.0,0.0,0.0,0.0,0.0,0.0,0.0,0.0,0.0,0.0,0.0,0.0,0.0,0.0,0.0,0.0,0.0,0.0,0.0,0.0,0.0,0.0,0.0,0.0,0.0,0.0,0.0,0.0,0.0,0.0,0.0,0.0,0.0,0.0,0.0,0.0,0.0,0.0,0.0,0.0,0.0,0.0,0.0,-1.6644,-1.8442,-1.7807,-1.7346,-1.7108,-1.4582,-1.373,0.0,0.0,0.0,0.0,0.0,0.0,0.0,0.0,0.0,0.0,0.0,0.0,0.0,0.0,0.0,0.0,0.0,0.0,0.0,0.0,0.0,0.0,0.0,0.0,0.0,0.0,0.0,0.0,0.0,0.0,0.0,0.0,0.0,0.0,0.0,0.0,0.0,0.0,0.0,0.0,0.0,0.0,0.0,0.0,0.0,0.0,0.0,0.0,0.0,0.0,0.0,0.0,0.0,0.0,0.0,0.0,0.0,0.0,0.0,0.0,0.0,0.0,0.0,0.0,0.0,0.0,0.0,0.0,0.0,0.0,0.0,0.0,0.0,0.0,0.0,0.0,0.0,0.0,0.0,0.0,0.0,0.0,0.0,0.0,0.0,0.0,0.0,0.0,0.0,0.0,0.0,0.0,0.0,0.0,0.0,0.0,0.0,0.0,0.0,0.0,0.0,0.0,0.0,0.0,0.0,0.0,0.0,0.0,-1.8328,-1.8894,-1.8792,-1.8252,-1.725,-1.5652,-1.5293,0.0,0.0,0.0,0.0,0.0,0.0,0.0,0.0,0.0,0.0,0.0,0.0,0.0,0.0,0.0,0.0,0.0,0.0,0.0,0.0,0.0,0.0,0.0,0.0,0.0,0.0,0.0,0.0,0.0,0.0,0.0,0.0,0.0,0.0,0.0,0.0,0.0,0.0,0.0,0.0,0.0,0.0,0.0,0.0,0.0,0.0,0.0,0.0,-1.6192,0.0,0.0,0.0,0.0,0.0,0.0,0.0,0.0,0.0,0.0,0.0,0.0,0.0,0.0,0.0,0.0,0.0,0.0,0.0,0.0,0.0,0.0,0.0,0.0,0.0,0.0,0.0,0.0,0.0,0.0,0.0,0.0,0.0,0.0,0.0,0.0,0.0,0.0,0.0,0.0,0.0,0.0,0.0,0.0,0.0,0.0,0.0,0.0,0.0,0.0,0.0,0.0,0.0,0.0,0.0,0.0,0.0,0.0,0.0,-2.0054,-2.0288,-1.974,-1.9373,-1.9227,-1.7584,-1.6674,0.0,0.0,0.0,0.0,0.0,0.0,0.0,0.0,0.0,0.0,0.0,0.0,0.0,0.0,0.0,0.0,0.0,0.0,0.0,0.0,0.0,0.0,0.0,0.0,0.0,0.0,0.0,0.0,0.0,0.0,0.0,0.0,0.0,0.0,0.0,0.0,0.0,0.0,0.0,0.0,0.0,0.0,0.0,0.0,0.0,0.0,0.0,0.0,0.0,0.0,0.0,0.0,0.0,0.0,0.0,0.0,0.0,0.0,0.0,0.0,0.0,0.0,0.0,0.0,0.0,0.0,0.0,0.0,0.0,0.0,0.0,0.0,0.0,0.0,0.0,0.0,0.0,0.0,0.0,0.0,0.0,0.0,0.0,0.0,0.0,0.0,0.0,0.0,0.0,0.0,0.0,0.0,0.0,0.0,0.0,0.0,0.0,0.0,0.0,0.0,0.0,0.0,0.0,0.0,0.0,0.0,0.0,-2.1104,-2.1561,-2.1803,-2.0834,-2.0711,-2.1552,-1.9763,-1.8193,-1.7138,0.0,0.0,0.0,0.0,0.0,0.0,0.0,0.0,0.0,0.0,0.0,0.0,0.0,0.0,0.0,0.0,0.0,0.0,0.0,0.0,0.0,0.0,0.0,0.0,0.0,0.0,0.0,0.0,0.0,0.0,0.0,0.0,0.0,0.0,0.0,0.0,0.0,0.0,-2.0813,-1.6926,0.0,0.0,0.0,0.0,0.0,0.0,0.0,0.0,-1.829,0.0,0.0,0.0,0.0,0.0,0.0,0.0,0.0,0.0,0.0,0.0,0.0,0.0,0.0,0.0,0.0,0.0,0.0,0.0,0.0,0.0,0.0,0.0,0.0,0.0,0.0,0.0,0.0,0.0,0.0,0.0,0.0,0.0,0.0,0.0,0.0,0.0,0.0,0.0,0.0,0.0,0.0,0.0,0.0,0.0,0.0,0.0,0.0,0.0,0.0,0.0,0.0,0.0,0.0,0.0,0.0,-2.2523,-2.2328,-2.2227,-2.2281,-2.2752,-2.2412,-2.1189,-2.1516,-2.075,-1.8933,0.0,0.0,0.0,0.0,0.0,0.0,0.0,0.0,0.0,0.0,0.0,0.0,0.0,0.0,0.0,0.0,0.0,0.0,0.0,0.0,0.0,0.0,0.0,0.0,0.0,0.0,0.0,0.0,0.0,0.0,0.0,0.0,0.0,0.0,0.0,0.0,0.0,0.0,0.0,-1.8238,-1.6318,0.0,0.0,0.0,0.0,0.0,0.0,0.0,0.0,-1.9189,0.0,0.0,0.0,0.0,0.0,0.0,0.0,0.0,0.0,0.0,0.0,0.0,0.0,0.0,0.0,0.0,0.0,0.0,0.0,0.0,0.0,0.0,0.0,0.0,0.0,0.0,0.0,0.0,0.0,0.0,0.0,0.0,0.0,0.0,0.0,0.0,0.0,0.0,0.0,0.0,0.0,0.0,0.0,0.0,0.0,0.0,0.0,0.0,0.0,0.0,0.0,0.0,0.0,0.0,0.0,-2.2226,-2.3565,-2.3965,-2.342,-2.3377,-2.3286,-2.306,-2.1814,-2.0976,0.0,0.0,0.0,0.0,0.0,0.0,0.0,0.0,0.0,0.0,0.0,0.0,0.0,0.0,0.0,0.0,0.0,0.0,0.0,0.0,0.0,0.0,0.0,0.0,0.0,0.0,0.0,0.0,0.0,0.0,0.0,0.0,0.0,0.0,0.0,0.0,0.0,0.0,0.0,0.0,-1.9483,-1.8644,-1.8957,0.0,0.0,0.0,0.0,0.0,0.0,-2.044,-2.0833,0.0,0.0,0.0,0.0,0.0,0.0,0.0,0.0,0.0,0.0,0.0,0.0,0.0,0.0,0.0,0.0,0.0,0.0,0.0,0.0,0.0,0.0,0.0,0.0,0.0,0.0,0.0,0.0,0.0,0.0,0.0,0.0,0.0,0.0,0.0,0.0,0.0,0.0,0.0,0.0,0.0,0.0,0.0,0.0,0.0,0.0,0.0,0.0,0.0,0.0,0.0,0.0,0.0,0.0,0.0,-2.192,-2.4349,-2.5338,-2.4594,-2.373,-2.3813,-2.4775,-2.1957,-2.103,0.0,0.0,0.0,0.0,0.0,0.0,0.0,0.0,0.0,0.0,0.0,0.0,0.0,0.0,0.0,0.0,0.0,0.0,0.0,0.0,0.0,0.0,0.0,0.0,0.0,0.0,0.0,0.0,0.0,0.0,0.0,0.0,0.0,0.0,0.0,0.0,0.0,0.0,0.0,0.0,0.0,-2.0989,-2.0804,-2.0519,0.0,0.0,0.0,0.0,-2.1755,-2.2747,0.0,0.0,0.0,0.0,0.0,0.0,0.0,0.0,0.0,0.0,0.0,0.0,0.0,0.0,0.0,0.0,0.0,0.0,0.0,0.0,0.0,0.0,0.0,0.0,0.0,0.0,0.0,0.0,0.0,0.0,0.0,0.0,0.0,0.0,0.0,0.0,0.0,0.0,0.0,0.0,0.0,0.0,0.0,0.0,0.0,0.0,0.0,0.0,0.0,0.0,0.0,0.0,0.0,0.0,0.0,0.0,-2.2849,-2.3671,-2.4471,-2.5238,-2.4614,-2.4123,-2.3945,-2.3134,-2.2217,0.0,0.0,0.0,0.0,0.0,0.0,0.0,0.0,0.0,0.0,0.0,0.0,0.0,0.0,0.0,0.0,0.0,0.0,0.0,0.0,0.0,0.0,0.0,0.0,0.0,0.0,0.0,0.0,0.0,0.0,0.0,0.0,0.0,0.0,0.0,0.0,0.0,0.0,0.0,0.0,0.0,-2.3171,-2.1354,-2.1981,-2.2684,0.0,0.0,-2.5953,-2.5948,-2.7325,0.0,0.0,0.0,0.0,0.0,0.0,0.0,0.0,0.0,0.0,0.0,0.0,0.0,0.0,0.0,0.0,0.0,0.0,0.0,0.0,0.0,0.0,0.0,0.0,0.0,0.0,0.0,0.0,0.0,0.0,0.0,0.0,0.0,0.0,0.0,0.0,0.0,0.0,0.0,0.0,0.0,0.0,0.0,0.0,0.0,0.0,0.0,0.0,0.0,0.0,0.0,0.0,0.0,0.0,0.0,-2.1378,-2.2608,-2.3981,-2.4968,-2.5361,-2.5091,-2.4723,-2.4277,-2.341,-2.2574,0.0,0.0,0.0,0.0,0.0,0.0,0.0,0.0,0.0,0.0,0.0,0.0,0.0,0.0,0.0,0.0,0.0,0.0,0.0,0.0,0.0,0.0,0.0,0.0,0.0,0.0,0.0,0.0,0.0,0.0,0.0,0.0,0.0,0.0,0.0,0.0,0.0,0.0,0.0,0.0,0.0,0.0,-2.4553,-2.49,0.0,0.0,0.0,-2.7854,-2.7629,0.0,0.0,0.0,0.0,0.0,0.0,0.0,0.0,0.0,0.0,0.0,0.0,0.0,0.0,0.0,0.0,0.0,0.0,0.0,0.0,0.0,0.0,0.0,0.0,0.0,0.0,0.0,0.0,0.0,0.0,0.0,0.0,0.0,0.0,0.0,0.0,0.0,0.0,0.0,0.0,0.0,0.0,0.0,0.0,0.0,0.0,0.0,0.0,0.0,0.0,0.0,0.0,0.0,0.0,0.0,0.0,0.0,-2.2779,-2.4694,-2.585,-2.6044,-2.584,-2.5445,-2.4872,-2.3798,0.0,0.0,0.0,0.0,0.0,0.0,0.0,0.0,0.0,0.0,0.0,0.0,0.0,0.0,0.0,0.0,0.0,0.0,0.0,0.0,0.0,0.0,0.0,0.0,0.0,0.0,0.0,-2.4112,0.0,0.0,0.0,0.0,0.0,0.0,0.0,0.0,0.0,0.0,0.0,0.0,0.0,0.0,-2.6264,-2.6979,-2.7577,-2.8398,0.0,0.0,-3.0056,-2.9764,-3.1021,-3.0965,0.0,0.0,0.0,0.0,0.0,0.0,0.0,0.0,0.0,0.0,0.0,0.0,0.0,0.0,0.0,0.0,0.0,0.0,0.0,0.0,0.0,0.0,0.0,0.0,0.0,0.0,0.0,0.0,0.0,0.0,0.0,0.0,0.0,0.0,0.0,0.0,0.0,0.0,0.0,0.0,0.0,0.0,0.0,0.0,0.0,0.0,0.0,0.0,0.0,0.0,0.0,0.0,0.0,0.0,-2.2788,-2.3891,-2.5576,-2.6877,-2.7855,-2.6928,-2.6117,-2.5525,-2.4647,-2.3319,0.0,0.0,0.0,0.0,0.0,0.0,0.0,0.0,0.0,0.0,0.0,0.0,0.0,0.0,0.0,0.0,0.0,0.0,0.0,0.0,0.0,0.0,0.0,0.0,0.0,0.0,0.0,0.0,0.0,0.0,0.0,0.0,0.0,0.0,0.0,0.0,0.0,0.0,0.0,0.0,0.0,-2.8499,-2.7055,-2.9565,-3.1628,0.0,-3.287,-3.3581,-3.3496,-3.5269,-3.4936,-2.9574,0.0,0.0,0.0,0.0,0.0,0.0,0.0,0.0,0.0,0.0,0.0,0.0,0.0,0.0,0.0,0.0,0.0,0.0,0.0,0.0,0.0,0.0,0.0,0.0,0.0,0.0,0.0,0.0,0.0,0.0,0.0,0.0,0.0,0.0,0.0,0.0,0.0,0.0,0.0,0.0,0.0,0.0,0.0,0.0,0.0,0.0,0.0,0.0,0.0,0.0,0.0,0.0,0.0,-2.2369,-2.3456,-2.4735,-2.595,-2.7032,-2.6691,-2.6213,-2.5604,-2.5265,-2.4135,0.0,0.0,0.0,0.0,0.0,0.0,0.0,0.0,0.0,0.0,0.0,0.0,0.0,0.0,0.0,0.0,0.0,0.0,0.0,0.0,0.0,0.0,0.0,0.0,0.0,0.0,0.0,0.0,-2.5707,-2.5513,-2.4589,0.0,0.0,0.0,0.0,0.0,0.0,0.0,0.0,0.0,0.0,-2.8775,-2.9956,-3.1415,0.0,0.0,-3.455,-3.474,-3.4424,-3.4537,-3.347,-3.0018,-2.8724,0.0,0.0,0.0,0.0,0.0,0.0,0.0,0.0,0.0,0.0,0.0,0.0,0.0,0.0,0.0,0.0,0.0,0.0,0.0,0.0,0.0,0.0,0.0,0.0,0.0,0.0,0.0,0.0,0.0,0.0,0.0,0.0,0.0,0.0,0.0,0.0,0.0,0.0,0.0,0.0,0.0,0.0,0.0,0.0,0.0,0.0,0.0,0.0,0.0,0.0,0.0,0.0,-2.2181,-2.3115,-2.4513,-2.5889,-2.6938,-2.6962,-2.6697,-2.6142,-2.5983,-2.4949,0.0,0.0,0.0,0.0,0.0,0.0,0.0,0.0,0.0,0.0,0.0,0.0,0.0,0.0,0.0,0.0,0.0,0.0,0.0,0.0,0.0,0.0,0.0,0.0,0.0,0.0,0.0,0.0,-2.5851,-2.5014,-2.3878,0.0,0.0,0.0,0.0,0.0,0.0,0.0,0.0,0.0,0.0,-2.9637,-3.187,-3.2696,-3.349,-3.4641,-3.4666,-3.4437,-3.4261,-3.3583,-3.2399,-3.0495,0.0,0.0,0.0,0.0,0.0,0.0,0.0,0.0,0.0,0.0,0.0,0.0,0.0,0.0,0.0,0.0,0.0,0.0,0.0,0.0,0.0,0.0,0.0,0.0,0.0,0.0,0.0,-1.972,0.0,0.0,-1.969,0.0,0.0,0.0,0.0,0.0,0.0,0.0,0.0,0.0,0.0,0.0,0.0,0.0,0.0,0.0,0.0,0.0,0.0,0.0,0.0,0.0,0.0,-2.2575,-2.3128,-2.5319,-2.6967,-2.7961,-2.8024,-2.7736,-2.7197,-2.6728,-2.5766,-2.4319,0.0,0.0,0.0,0.0,0.0,0.0,0.0,0.0,0.0,0.0,0.0,0.0,0.0,0.0,0.0,0.0,0.0,0.0,0.0,0.0,0.0,0.0,0.0,0.0,0.0,0.0,-2.5319,-2.4268,-2.3248,0.0,0.0,0.0,0.0,0.0,0.0,0.0,0.0,0.0,-2.6088,-2.9282,-3.1483,-3.2142,-3.3123,-3.3674,-3.3257,-3.2701,-3.2487,-3.3056,-3.3068,-3.2637,0.0,0.0,0.0,0.0,0.0,0.0,0.0,0.0,0.0,0.0,0.0,0.0,0.0,0.0,0.0,0.0,0.0,0.0,0.0,0.0,0.0,0.0,0.0,0.0,0.0,0.0,0.0,-2.2488,-2.1734,0.0,0.0,0.0,0.0,0.0,0.0,0.0,0.0,0.0,0.0,0.0,-2.4375,-2.4455,0.0,0.0,0.0,0.0,0.0,0.0,0.0,0.0,0.0,0.0,0.0,0.0,-2.2893,-2.3809,-2.5323,-2.6383,-2.7037,-2.7017,-2.6917,-2.6728,-2.6771,-2.6246,-2.5115,0.0,0.0,0.0,0.0,0.0,0.0,0.0,0.0,0.0,0.0,0.0,0.0,0.0,0.0,0.0,0.0,0.0,0.0,0.0,0.0,0.0,0.0,0.0,0.0,0.0,-2.5194,0.0,0.0,0.0,0.0,0.0,0.0,0.0,0.0,0.0,0.0,0.0,-2.5523,-2.7314,-2.9505,-3.1196,-3.211,-3.284,-3.3416,0.0,0.0,0.0,0.0,0.0,0.0,0.0,0.0,0.0,0.0,0.0,0.0,0.0,0.0,-3.3682,-3.0263,-2.9233,-2.8921,-2.8928,0.0,0.0,0.0,0.0,0.0,0.0,0.0,0.0,0.0,0.0,0.0,0.0,0.0,0.0,-2.41,-2.3712,-2.3456,0.0,0.0,0.0,0.0,0.0,0.0,0.0,0.0,-2.5887,-2.6592,-2.6649,-2.6897,-2.6529,0.0,-2.5908,-2.4652,0.0,0.0,0.0,0.0,0.0,0.0,0.0,0.0,-2.3073,-2.4169,-2.5146,-2.5944,-2.6534,-2.6611,-2.6713,-2.6879,-2.7413,-2.71,-2.5816,-2.466,-2.3422,0.0,0.0,0.0,0.0,0.0,0.0,0.0,0.0,0.0,0.0,0.0,0.0,0.0,0.0,0.0,0.0,0.0,0.0,0.0,0.0,0.0,0.0,0.0,-2.487,0.0,0.0,0.0,0.0,0.0,0.0,0.0,0.0,0.0,-2.5087,-2.6471,-2.8078,-2.9771,-3.133,-3.2369,-3.259,0.0,0.0,0.0,0.0,0.0,0.0,0.0,-3.2439,-3.2785,-3.3213,-3.3781,-3.4537,-3.6193,-3.6993,-3.5714,0.0,0.0,-3.2946,-3.1989,-3.1703,-3.1974,-3.2841,-3.3365,-3.2721,-3.3784,-3.4844,0.0,0.0,0.0,0.0,0.0,0.0,0.0,0.0,-2.6045,-2.5742,0.0,-2.5077,0.0,0.0,0.0,0.0,-2.3053,-2.5974,0.0,0.0,-2.8882,-2.977,-2.8595,-2.9267,-2.9295,-2.8771,-2.9849,-2.8757,-2.5642,-2.3789,0.0,0.0,0.0,0.0,0.0,0.0,-2.3169,-2.4383,-2.4978,-2.5704,-2.6696,-2.6826,-2.7167,-2.7683,-2.8647,-2.8297,-2.6529,-2.6474,-2.5405,-2.2892,-2.2143,0.0,0.0,0.0,0.0,0.0,0.0,0.0,0.0,0.0,0.0,0.0,0.0,0.0,0.0,0.0,0.0,0.0,0.0,0.0,0.0,-2.5596,0.0,0.0,0.0,0.0,0.0,0.0,0.0,0.0,0.0,0.0,-2.8655,-2.9501,-3.1026,-3.3204,0.0,0.0,0.0,0.0,-3.3413,-3.2365,-3.1435,-3.1376,-3.2922,-3.3171,-3.3788,-3.5697,0.0,0.0,-3.5672,-3.667,-3.7136,-3.5863,-3.6738,-3.7466,-3.7368,-3.62,-3.5621,-3.6216,-3.5893,-3.5833,-3.6387,-3.6821,-3.7602,-2.5127,0.0,0.0,0.0,0.0,-2.5766,-2.7343,-2.974,-2.861,-2.8209,-2.8429,-2.773,0.0,0.0,0.0,0.0,0.0,0.0,-2.7429,-2.8432,-2.9396,-3.0112,-3.0641,-3.0842,-3.0627,-2.9983,-3.0328,-2.9549,-2.7769,-2.6692,-2.4597,-2.1485,0.0,0.0,0.0,0.0,-2.4571,-2.5707,-2.6341,-2.6743,-2.6904,-2.6945,-2.733,-2.8138,-2.794,-2.7885,-2.7912,-2.7101,-2.6019,-2.4822,-2.367,0.0,0.0,0.0,0.0,0.0,0.0,0.0,0.0,0.0,0.0,0.0,0.0,0.0,0.0,0.0,0.0,0.0,0.0,0.0,-2.4724,-2.4849,-2.4699,0.0,0.0,0.0,0.0,0.0,0.0,0.0,0.0,0.0,-3.322,-3.2709,-3.2376,0.0,0.0,-3.3403,-3.3536,-3.3988,-3.4548,-3.5045,-3.5012,0.0,-3.5949,-3.5969,-3.6074,-3.6619,-3.7681,-3.8243,-3.7635,-3.8676,-3.9305,-3.8422,-3.8537,-3.8817,-3.8766,-3.776,-3.6998,-3.7103,-3.7345,-3.7599,-3.7838,-3.8377,-3.9078,-2.7155,-2.5862,-2.5294,-2.579,-2.6944,-2.6943,-2.842,-3.0856,-3.0192,-2.9939,-3.0017,-2.9822,-2.8515,-2.6396,-2.6228,0.0,0.0,0.0,-2.8292,-2.9481,-2.9746,-3.0463,-3.1437,-3.1467,-3.1258,-3.0926,-3.0911,-3.0372,-2.934,-2.8697,-2.6782,-2.3714,0.0,-2.346,-2.3475,-2.4492,-2.5482,-2.6374,-2.678,-2.7001,-2.7141,-2.7393,-2.7953,-2.8791,-2.8411,-2.8321,-2.8592,-2.7814,-2.6961,-2.6033,-2.4971,-2.3804,0.0,0.0,0.0,0.0,0.0,0.0,0.0,0.0,0.0,0.0,0.0,-2.3511,-2.2801,0.0,0.0,0.0,-2.4249,-2.4959,-2.5584,-2.5726,0.0,0.0,0.0,0.0,0.0,0.0,0.0,-3.0627,-3.2198,-3.3709,-3.5295,-3.509,-3.4816,-3.4909,-3.4903,-3.4915,-3.511,0.0,-3.5765,-3.6465,-3.6283,-3.6493,-3.7408,-3.7439,-3.7416,-3.7887,-3.875,-3.929,-3.8931,-3.9471,-3.9845,-3.9544,-3.9424,-3.9424,-3.9424,-3.8748,-3.8204,-3.8217,-3.8527,-3.8781,-3.8811,-3.9125,-3.9538,-2.9001,-2.8863,-2.7356,-2.7429,-2.8562,-2.8562,-2.936,-3.061,-3.0904,-3.0885,-3.0721,-3.1185,-3.0602,-2.9121,-2.8829,0.0,-2.6425,-2.8389,-2.9344,-2.9358,-3.0024,-3.0644,-3.1292,-3.1409,-3.1482,-3.1409,-3.1482,-3.121,-3.0582,-2.9894,-2.8637,-2.6826,-2.551,-2.4761,-2.4701,-2.536,-2.6004,-2.6662,-2.6638,-2.6823,-2.7317,-2.7921,-2.8645,-2.94,-2.937,-2.9041,-2.8457,-2.8427,-2.7844,-2.6572,-2.5929,-2.4986,-2.367,0.0,0.0,0.0,0.0,0.0,0.0,0.0,0.0,0.0,0.0,0.0,0.0,0.0,0.0,0.0,-2.5537,0.0,-2.7534,-2.7592,0.0,0.0,0.0,-2.6467,-2.7889,-2.9101,-3.0328,-3.1689,0.0,0.0,-3.5729,-3.6746,-3.7734,-3.8377,-3.8394,-3.8069,-3.7578,-3.7285,-3.7184,-3.7213,-3.6467,-3.6493,-3.8073,-3.8167,-3.8352,-3.9133,-3.9424,-3.9409,-3.9379,-3.9409,-3.9439,-3.9424,-3.9424,-3.9424,-3.9424,-3.9322,-3.9424,-3.9364,-3.9379,-3.9409,-3.9379,-3.9409,-3.9424,-2.9591,-2.9566,-2.9164,-2.8962,-2.8807,-2.8807,-2.9675,-3.0983,-3.0566,-3.0744,-3.1335,-3.0978,-3.0364,-2.9536,-2.9498,-2.9219,-2.8853,-2.9398,-2.9664,-2.97,-3.0093,-3.0072,-2.9642,-3.0896,-3.1161,-3.0644,-3.1204,-3.1392,-3.124,-3.0133,-2.934,-2.8816,-2.753,-2.6363,-2.5435,-2.6019,-2.6677,-2.737,-2.7333,-2.738,-2.7513,-2.7676,-2.7869,-2.809,-2.7575,-2.723,-2.7066,-2.7066,-2.6677,-2.5899,-2.5689,-2.5016,-2.3655,-2.2381,0.0,0.0,0.0,0.0,0.0,0.0,0.0,0.0,0.0,-2.4797,-2.3494,0.0,-2.5729,0.0,-2.7954,-2.8366,-2.767,-2.7567,0.0,0.0,-2.9415,-2.9535,-3.1824,-3.1928,-3.2512,-3.4367,-3.5115,-3.6073,-3.7524,-3.7973,-3.8407,-3.905,-3.8267,-3.7766,-3.8087,-3.8579,-3.9,-3.9399,-3.9639,-4.0064,-4.026,-4.0069,-3.9654,-3.9427,-3.9424,-3.9424,-3.9424,-3.9424,-3.9424,-3.9424,-3.9424,-3.9424,-3.9424,-3.9424,-3.9409,-3.9424,-3.9424,-3.9424,-3.9424,-3.9424,-3.9424,-2.9779,-2.9779,-2.9779,-2.9603,-2.9302,-2.9315,-2.9771,-3.0594,-3.0629,-3.0718,-3.0752,-3.0512,-3.0117,-2.9592,-2.9982,-2.9564,-2.8675,-2.904,-2.9092,-2.8901,-2.9027,-2.9066,-2.9066,-3.0201,-3.058,-3.0343,-3.1101,-3.1366,-3.1046,-3.0058,-2.9445,-2.9131,-2.8083,-2.72,-2.6527,-2.6841,-2.7215,-2.756,-2.756,-2.756,-2.756,-2.756,-2.749,-2.7141,-2.6782,-2.6452,-2.6153,-2.6153,-2.5989,-2.563,-2.56,-2.5136,-2.4118,-2.3082,-2.2203,0.0,0.0,0.0,0.0,0.0,0.0,0.0,0.0,0.0,0.0,0.0,-2.7247,-2.8791,-2.9831,-3.0224,-2.9852,-3.0066,-3.0792,-3.2258,-3.1764,-3.2018,-3.3754,-3.3604,-3.3933,-3.534,-3.5998,-3.6746,-3.7823,-3.8467,-3.8975,-3.9364,-3.8781,-3.8422,-3.8807,-3.917,-3.9514,-3.9884,-4.0246,-4.0516,-4.0516,-4.0202,-3.9843,-3.9514,-3.9424,-3.9424,-3.9424,-3.9424,-3.9424,-3.9424,-3.9424,-3.9424,-3.9409,-3.9107,-3.8968,-3.8901,-3.8721,-3.8766,-3.9305,-3.9424,-3.9349,-2.9779,-2.9779,-2.9779,-2.9779,-2.9779,-2.9779,-2.9779,-2.9869,-3.0696,-3.0558,-2.9831,-3.0041,-2.9836,-2.9371,-3.0033,-2.9323,-2.7452,-2.8084,-2.8101,-2.7655,-2.7709,-2.8051,-2.8698,-2.9378,-2.9791,-2.9979,-3.0887,-3.0984,-3.0324,-2.9824,-2.9265,-2.8592,-2.7904,-2.756,-2.756,-2.756,-2.756,-2.756,-2.756,-2.756,-2.756,-2.756,-2.726,-2.6617,-2.6512,-2.6153,-2.5525,-2.548,-2.545,-2.536,-2.542,-2.5181,-2.4492,-2.3836,-2.298,0.0,-2.2112,0.0,0.0,0.0,0.0,0.0,0.0,0.0,0.0,-2.8315,-2.9089,-3.0467,-3.1442,-3.2175,-3.268,-3.3213,-3.3543,-3.3619,-3.3619,-3.3873,-3.4517,-3.4607,-3.4861,-3.5564,-3.6686,-3.7434,-3.7614,-3.8646,-3.9424,-3.9424,-3.9364,-3.9305,-3.9394,-3.9409,-3.9439,-3.9424,-3.9424,-3.9589,-3.9544,-3.9484,-3.9454,-3.9424,-3.929,-3.929,-3.9245,-3.9173,-3.9086,-3.9083,-3.9083,-3.9071,-3.9113,-3.8677,-3.8325,-3.8282,-3.7868,-3.7868,-3.8766,-3.9035,-3.896,-2.9779,-2.9779,-2.9779,-2.9779,-2.9779,-2.9779,-2.9779,-2.9792,-2.9998,-2.9934,-2.9792,-2.982,-2.9517,-2.8999,-2.9122,-2.8743,-2.7921,-2.767,-2.7475,-2.7373,-2.7559,-2.7417,-2.7095,-2.8481,-2.8789,-2.8312,-2.9775,-3.0203,-2.9552,-2.9589,-2.925,-2.8592,-2.7904,-2.756,-2.756,0.0,0.0,0.0,-2.756,-2.756,-2.756,-2.756,-2.726,-2.6617,-2.6078,0.0,-2.4806,-2.4776,-2.4552,-2.4029,-2.4522,0.0,0.0,0.0,0.0,0.0,0.0,0.0,0.0,0.0,0.0,0.0,-2.8367,-2.8315,-2.8789,-3.0954,-3.2261,-3.2128,-3.3283,-3.3859,-3.3545,-3.3517,-3.3711,-3.4215,-3.4292,-3.4547,-3.5205,-3.5295,-3.5564,-3.6222,-3.6941,-3.7614,-3.8123,-3.8931,-3.9394,-3.9379,-3.9424,-3.9424,-3.9394,-3.9394,-3.9424,-3.9424,-3.9394,-3.9409,-3.9424,-3.9379,-3.929,-3.9364,-3.8916,-3.8616,-3.8586,-3.8186,-3.7792,-3.7819,-3.7801,-3.7807,-3.7829,-3.7698,-3.7578,-3.7584,-3.7479,-3.7479,-3.7734,-3.7793,-3.7749,-2.9779,-2.9779,-2.9779,-2.9779,0.0,-2.9779,-2.9779,-2.9779,-2.9779,-2.9779,-2.9779,-2.9779,-2.9478,-2.8925,-2.8925,-2.8473,-2.7682,-2.7406,-2.713,-2.6936,-2.7033,-2.6905,-2.6521,-2.7364,-2.7999,-2.8349,-2.9094,-2.9445,-2.9457,-2.9238,-2.8742,-2.8098,-2.7754,-2.756,-2.756,-2.756,-2.756,-2.756,-2.756,-2.756,-2.756,-2.756,-2.726,-2.6602,-2.5944,0.0,0.0,0.0,0.0,0.0,0.0,0.0,0.0,0.0,0.0,-2.4118,-2.4433,-2.467,-2.4868,-2.634,-2.7978,-2.9593,-3.0676,-3.1189,-3.1168,-3.322,-3.4509,-3.4638,-3.527,-3.5481,-3.5181,-3.4774,-3.4629,-3.4981,-3.4981,-3.5145,-3.5429,-3.5489,-3.5639,-3.5983,-3.6552,-3.7195,-3.7823,-3.8482,-3.8886,-3.8945,-3.9215,-3.9128,-3.8609,-3.9009,-3.9424,-3.9409,-3.9095,-3.8901,-3.8871,-3.8601,-3.8437,-3.8362,-3.8138,-3.7928,-3.7898,-3.7659,-3.7371,-3.7381,-3.7366,-3.7389,-3.7336,-3.7143,-3.6925,-3.6948,-3.6686,-3.6477,-3.6507,-3.6956,-3.73,-2.9779,-2.9779,-2.9779,-2.9779,-2.9779,-2.9779,-2.9779,-2.9779,-2.9779,0.0,0.0,-2.9779,-2.9415,-2.88,-2.8787,-2.8185,-2.7155,-2.7143,-2.6892,-2.6533,-2.6521,-2.6521,-2.6521,-2.6521,-2.7323,-2.8702,-2.8602,-2.8793,-2.9332,-2.8853,-2.8248,-2.7634,-2.756,-2.756,-2.756,-2.756,-2.756,-2.756,-2.756,-2.756,-2.756,-2.756,-2.731,-2.6617,-2.6078,-2.548,-2.4776,-2.4253,-2.3954,-2.3954,-2.3939,-2.4208,-2.4716,-2.4761,-2.4985,-2.5585,-2.6228,-2.6585,-2.6657,-2.8385,-2.9801,-3.062,-3.2433,-3.3561,-3.3617,-3.4857,-3.5929,-3.6686,-3.6693,-3.6704,-3.6669,-3.5968,-3.5489,-3.5489,-3.5489,-3.5489,-3.5489,-3.5489,-3.5504,-3.5564,-3.6118,-3.6671,-3.718,-3.7808,-3.8227,-3.8287,-3.8631,-3.871,-3.7808,-3.8322,-3.8916,-3.8874,-3.8471,-3.8212,-3.8153,-3.7838,-3.7419,-3.7509,-3.7375,-3.7255,-3.724,-3.715,-3.709,-3.6971,-3.702,-3.6975,-3.6978,-3.661,-3.6351,-3.6334,-3.5893,-3.5489,-3.5579,-3.6327,-3.6836,-2.9779,-2.9779,-2.9779,-2.9779,-2.9779,-2.9779,-2.9779,-2.9779,-2.9779,-2.9779,-2.9779,-2.9779,-2.9214,-2.8222,-2.8222,-2.762,-2.6672,-2.6647,-2.6596,-2.6521,-2.6521,-2.6521,-2.6521,-2.6521,-2.7016,-2.7889,-2.8284,-2.8468,-2.8494,-2.8595,-2.8233,-2.7685,-2.756,-2.756,-2.756,-2.756,-2.756,-2.756,-2.756,-2.756,-2.756,-2.756,-2.731,-2.6632,-2.6497,-2.6153,-2.5495,-2.5375,-2.533,-2.533,-2.533,-2.5375,-2.5465,-2.548,-2.5525,-2.563,-2.6228,-2.6831,-2.7409,-2.8701,-3.027,-3.203,-3.3042,-3.3795,-3.4324,-3.5152,-3.5993,-3.6621,-3.6687,-3.6648,-3.6601,-3.5946,-3.5489,-3.5489,-3.5489,-3.5489,-3.5489,-3.5489,-3.5489,-3.5519,-3.6088,-3.6477,-3.6686,-3.7165,-3.7554,-3.7569,-3.7644,-3.7614,-3.7455,-3.7533,-3.7683,-3.7699,-3.758,-3.7554,-3.7524,-3.7494,-3.7285,-3.7404,-3.6926,-3.6611,-3.6611,-3.6252,-3.5953,-3.5818,-3.5934,-3.5839,-3.5848,-3.5699,-3.5704,-3.5699,-3.5564,-3.5489,-3.5489,-3.5744,-3.5804,-2.9779,-2.9779,-2.9779,-2.9779,-2.9779,-2.9779,-2.9779,-2.9754,-2.9453,-2.9515,-2.9754,-2.9465,-2.8875,-2.8109,-2.7795,-2.7218,-2.6521,-2.6521,-2.6521,-2.6521,-2.6521,-2.6521,-2.6521,-2.6521,-2.6994,-2.7815,-2.7754,-2.7977,-2.8418,-2.8211,-2.7925,-2.7575,-2.756,-2.756,-2.756,-2.756,-2.756,-2.756,-2.756,-2.756,-2.756,-2.756,-2.7425,-2.7111,-2.6797,-2.6467,-2.6153,-2.5794,-2.56,-2.56,-2.56,-2.5764,-2.6108,-2.6138,-2.6318,-2.6647,-2.6961,-2.7425,-2.8098,-2.9705,-3.1362,-3.2921,-3.3061,-3.3316,-3.3988,-3.5067,-3.5821,-3.6161,-3.6425,-3.6621,-3.6597,-3.5958,-3.5489,-3.5489,-3.5489,-3.5489,-3.5489,-3.5489,-3.5489,-3.5519,-3.5774,-3.6088,-3.6447,-3.6746,-3.6911,-3.6881,-3.6641,-3.6485,-3.6796,-3.6626,-3.661,-3.7173,-3.7098,-3.6903,-3.6896,-3.6582,-3.6402,-3.6372,-3.6148,-3.5968,-3.5953,-3.5669,-3.5534,-3.5489,-3.5489,-3.5489,-3.5489,-3.5489,-3.5489,-3.5489,-3.5489,-3.5489,-3.5489,-3.5489,-3.5489,-2.9779,-2.9779,-2.9779,-2.9716,-2.9603,-2.9603,-2.9528,-2.9365,-2.8925,-2.9001,-2.9315,-2.8938,-2.8436,-2.7908,-2.7469,-2.6992,-2.6571,-2.6521,-2.6521,-2.6521,-2.6521,-2.6521,-2.6496,-2.6327,-2.6768,-2.7601,-2.7128,-2.7328,-2.8207,-2.7867,-2.756,-2.756,-2.756,-2.756,-2.756,-2.756,-2.756,-2.756,-2.756,-2.756,-2.756,-2.756,-2.756,-2.753,-2.7096,-2.6811,-2.6782,-2.6318,-2.6048,-2.6063,-2.6048,-2.6288,-2.6767,-2.6811,-2.7051,-2.755,-2.756,-2.7985,-2.8839,-3.054,-3.2028,-3.3014,-3.2625,-3.2571,-3.3118,-3.4392,-3.5252,-3.5443,-3.6124,-3.6562,-3.6292,-3.5831,-3.5489,-3.5489,-3.5489,-3.5489,-3.5489,-3.5489,-3.5489,-3.5489,-3.5489,-3.5729,-3.6118,-3.6267,-3.6252,-3.6178,-3.5818,-3.5783,-3.6075,-3.5791,-3.6014,-3.6542,-3.6571,-3.6276,-3.6252,-3.5893,-3.5609,-3.5489,-3.5519,-3.5549,-3.5549,-3.5519,-3.5489,-3.5489,-3.5489,-3.5489,-3.5489,-3.5489,-3.5489,-3.5489,-3.5489,-3.5489,-3.5489,-3.5489,-3.5489,-2.9779,-2.9779,-2.9767,-2.9478,-2.9026,-2.9001,-2.8737,-2.831,-2.8197,-2.821,-2.8273,-2.8197,-2.7871,-2.7406,-2.7293,-2.6954,-2.6546,-2.6521,-2.6521,-2.6521,-2.6521,-2.6521,-2.6377,-2.582,-2.6016,-2.6857,-2.6412,-2.668,-2.754,-2.7594,-2.756,-2.756,-2.756,-2.756,-2.756,-2.756,-2.756,-2.756,-2.756,-2.756,-2.756,-2.756,-2.756,-2.756,-2.7515,-2.7485,-2.749,-2.7475,-2.738,-2.738,-2.735,-2.7445,-2.7505,-2.752,-2.75,-2.756,-2.764,-2.8128,-2.9415,-3.0758,-3.1607,-3.1667,-3.1682,-3.1682,-3.1784,-3.2945,-3.3984,-3.4651,-3.5812,-3.624,-3.5706,-3.5554,-3.5489,-3.5489,-3.5489,-3.5489,-3.5489,-3.5489,-3.5489,-3.5489,-3.5489,-3.5549,-3.5639,-3.5669,-3.5639,-3.5684,-3.5609,-3.5549,-3.5648,-3.5603,-3.5504,-3.5674,-3.5624,-3.5654,-3.5639,-3.5579,-3.5489,-3.5489,-3.5489,-3.5489,-3.5489,-3.5489,-3.5489,-3.5489,-3.5379,-3.5365,-3.5415,-3.5489,-3.5415,-3.522,-3.5265,-3.5429,-3.5474,-3.5429,-3.5415,-2.9779,-2.9754,-2.9428,-2.8963,-2.8473,-2.8436,-2.8323,-2.8084,-2.7758,-2.762,-2.757,-2.7281,-2.7168,-2.7256,-2.6954,-2.6653,-2.6533,-2.6521,-2.6521,-2.6521,-2.6521,-2.6276,-2.5925,-2.5699,-2.5646,-2.5833,-2.5593,-2.5988,-2.6831,-2.7373,-2.756,-2.756,-2.756,-2.756,-2.756,-2.756,-2.756,-2.756,-2.756,-2.756,-2.756,-2.756,-2.756,-2.756,-2.756,-2.756,-2.756,-2.756,-2.756,-2.756,-2.756,-2.756,-2.756,-2.756,-2.756,-2.767,-2.8338,-2.916,-3.0073,-3.1016,-3.1467,-3.1467,-3.1467,-3.1467,-3.1526,-3.2736,-3.3653,-3.4001,-3.5126,-3.5809,-3.5524,-3.5489,-3.5489,-3.5489,-3.5489,-3.5489,-3.5489,-3.5489,-3.5489,-3.5489,-3.5489,-3.5489,-3.5489,-3.5489,-3.5489,-3.5489,-3.5489,-3.5489,-3.5489,-3.5489,-3.5489,-3.5489,-3.5489,-3.5489,-3.5489,-3.5489,-3.5489,-3.5489,-3.5489,-3.5489,-3.5444,-3.5489,-3.5489,-3.5459,-3.5121,-3.4897,-3.4895,-3.4543,-3.4345,-3.4379,-3.4367,-3.4412,-3.4801,-3.4891,-3.5026,-2.9327,-2.9264,-2.8863,-2.8398,-2.7883,-2.7883,-2.7783,-2.7607,-2.7218,-2.7067,-2.7005,-2.6628,-2.6678,-2.6954,-2.6697,-2.6521,-2.6521,-2.6521,-2.6521,-2.6521,-2.6521,-2.6151,-2.5624,-2.5435,-2.5176,-2.4885,-2.4849,-2.5469,-2.6412,-2.7026,-2.7408,-2.7575,-2.756,-2.756,-2.756,-2.7408,-2.7408,-2.756,-2.7408,-2.7393,-2.7575,-2.756,-2.756,-2.756,-2.756,-2.756,-2.756,-2.756,-2.756,-2.756,-2.756,-2.756,-2.756,-2.756,-2.7649,-2.7919,-2.8936,-2.9849,-3.0477,-3.115,-3.1467,-3.1467,-3.1467,-3.1467,-3.1749,-3.2751,-3.3455,-3.3589,-3.4726,-3.5539,-3.5489,-3.5489,-3.5489,-3.5489,-3.5489,-3.5489,-3.5489,-3.5489,-3.5489,-3.5489,-3.5489,-3.5489,-3.5489,-3.5489,-3.5459,-3.522,-3.5355,-3.5365,-3.532,-3.5335,-3.5444,-3.5235,-3.5175,-3.528,-3.5429,-3.5489,-3.5474,-3.5235,-3.516,-3.5085,-3.504,-3.4902,-3.4946,-3.4554,-3.4367,-3.4267,-3.422,-3.3799,-3.3449,-3.3483,-3.3514,-3.3619,-3.4128,-3.4203,-3.4397,-2.8185,-2.8197,-2.8147,-2.7821,-2.7318,-2.7318,-2.7042,-2.664,-2.654,-2.6584,-2.6609,-2.6546,-2.6533,-2.6584,-2.6546,-2.6521,-2.6521,-2.6521,-2.6521,-2.6521,-2.6508,-2.6138,-2.5586,-2.5096,-2.4569,-2.4116,-2.4201,-2.5032,-2.6418,-2.6563,-2.6878,-2.756,-2.756,-2.756,-2.7458,-2.693,-2.693,-2.7408,-2.693,-2.6878,-2.7509,-2.756,-2.756,-2.756,-2.756,-2.756,-2.756,-2.756,-2.756,-2.756,-2.756,-2.756,-2.756,-2.756,-2.7859,-2.8532,-2.919,-2.9864,-3.0507,-3.1165,-3.1467,-3.1467,-3.1467,-3.1467,-3.1541,-3.2677,-3.3395,-3.3514,-3.4681,-3.5379,-3.5489,-3.5489,-3.5489,-3.5489,-3.5489,-3.5489,-3.5489,-3.5489,-3.5489,-3.5489,-3.5489,-3.5489,-3.5489,-3.5489,-3.522,-3.4921,-3.51,-3.5245,-3.4723,-3.5061,-3.51,-3.476,-3.4658,-3.473,-3.5295,-3.5175,-3.4981,-3.4756,-3.4472,-3.4382,-3.3901,-3.3585,-3.3657,-3.3654,-3.3612,-3.3572,-3.3517,-3.3457,-3.3291,-3.3246,-3.3185,-3.335,-3.3484,-3.3529,-3.3724,-2.7896,-2.7582,-2.757,-2.7268,-2.6779,-2.6823,-2.671,-2.6533,-2.6521,-2.6521,-2.6521,-2.6521,-2.6521,-2.6521,-2.6521,-2.6521,-2.6521,-2.6521,-2.6521,-2.6483,-2.6088,-2.5624,-2.5096,-2.4556,-2.3991,-2.3538,-2.3526,-2.4337,-2.5728,-2.6283,-2.6878,-2.7458,-2.756,-2.7408,-2.693,-2.6616,-2.6669,-2.6826,-2.6616,-2.6826,-2.7494,-2.756,-2.756,-2.756,-2.756,-2.756,-2.756,-2.756,-2.756,-2.756,-2.756,-2.756,-2.756,-2.756,-2.8083,-2.9101,-2.9445,-3.0043,-3.1001,-3.139,-3.1467,-3.1467,-3.1467,-3.1467,-3.1616,-3.2347,-3.3021,-3.3559,-3.4267,-3.4981,-3.5379,-3.5489,-3.5489,-3.5489,-3.5489,-3.5489,-3.5489,-3.5489,-3.5489,-3.5489,-3.5489,-3.5489,-3.5415,-3.5489,-3.5245,-3.4684,-3.4688,-3.4528,-3.4062,-3.4122,-3.4271,-3.437,-3.4179,-3.4119,-3.479,-3.4412,-3.4098,-3.3963,-3.3814,-3.3784,-3.3453,-3.3333,-3.3376,-3.3272,-3.3093,-3.287,-3.2841,-3.2571,-3.2526,-3.2451,-3.2422,-3.2691,-3.2781,-3.2841,-3.308,-2.7356,-2.7042,-2.7017,-2.6804,-2.6546,-2.6521,-2.6521,-2.6521,-2.6521,-2.6521,-2.6521,-2.6521,-2.6521,-2.6483,-2.6345,-2.637,-2.6508,-2.6521,-2.6521,-2.6471,-2.5862,-2.5322,-2.4808,-2.4255,-2.3703,-2.3213,-2.3125,-2.3872,-2.5287,-2.5892,-2.6654,-2.7509,-2.7408,-2.6982,-2.6563,-2.6297,-2.6244,-2.6375,-2.6083,-2.6217,-2.6849,-2.6757,-2.6668,-2.6748,-2.7026,-2.7415,-2.7545,-2.756,-2.756,-2.756,-2.756,-2.756,-2.756,-2.756,-2.8068,-2.9116,-2.946,-3.0043,-3.1031,-3.1347,-3.1467,-3.1467,-3.1467,-3.1467,-3.1511,-3.2079,-3.2691,-3.3184,-3.3809,-3.4416,-3.4763,-3.5006,-3.5265,-3.5429,-3.5489,-3.5489,-3.5489,-3.5489,-3.5385,-3.5175,-3.5115,-3.5055,-3.4921,-3.4842,-3.446,-3.3962,-3.4035,-3.3875,-3.3366,-3.3378,-3.3526,-3.3785,-3.3457,-3.3261,-3.332,-3.3036,-3.317,-3.3125,-3.3155,-3.314,-3.3021,-3.2991,-3.2946,-3.2796,-3.2602,-3.2332,-3.2033,-3.1777,-3.1599,-3.1539,-3.1704,-3.2033,-3.2108,-3.2183,-3.2407,-2.649,-2.6559,-2.6533,-2.6502,-2.6521,-2.6521,-2.6521,-2.6521,-2.6521,-2.6521,-2.6521,-2.6521,-2.6427,-2.6382,-2.5887,-2.5912,-2.6239,-2.6395,-2.6433,-2.6382,-2.5799,-2.5247,-2.4732,-2.4155,-2.364,-2.309,-2.3125,-2.3872,-2.5231,-2.5398,-2.6054,-2.7137,-2.6774,-2.64,-2.6414,-2.5671,-2.5699,-2.5973,-2.5173,-2.4934,-2.5459,-2.5276,-2.5107,-2.5136,-2.6105,-2.6961,-2.753,-2.756,-2.756,-2.756,-2.756,-2.756,-2.756,-2.756,-2.7889,-2.8622,-2.9235,-2.9864,-3.0507,-3.118,-3.1467,-3.1467,-3.1467,-3.1467,-3.1556,-3.2078,-3.2482,-3.2706,-3.3155,-3.3572,-3.3776,-3.42,-3.4756,-3.5355,-3.5459,-3.5489,-3.5489,-3.5474,-3.5235,-3.4696,-3.4517,-3.4203,-3.3722,-3.3719,-3.3553,-3.3047,-3.314,-3.3231,-3.2704,-3.2871,-3.3051,-3.2811,-3.2572,-3.2497,-3.2033,-3.1571,-3.2018,-3.2317,-3.2422,-3.2452,-3.2183,-3.2063,-3.2138,-3.2019,-3.2049,-3.1824,-3.1839,-3.1569,-3.1569,-3.1467,-3.1482,-3.1497,-3.1631,-3.175,-3.1661,-2.6521,-2.6521,-2.6521,-2.6521,-2.6521,-2.6521,-2.6521,-2.6521,-2.6521,-2.6521,-2.6521,-2.6521,-2.6251,-2.59,-2.5661,-2.5498,-2.5372,-2.5674,-2.5862,-2.5762,-2.531,-2.4795,-2.4243,-2.369,-2.3301,-2.3163,-2.3125,-2.359,-2.4509,-2.4667,-2.5161,-2.5837,-2.5906,-2.549,-2.5087,-2.4409,-2.4354,-2.4932,-2.4325,-2.4431,-2.5438,-2.5405,-2.5494,-2.5986,-2.6385,-2.6901,-2.755,-2.756,-2.756,-2.756,-2.756,-2.756,-2.756,-2.756,-2.7889,-2.8562,-2.922,-2.9864,-3.0462,-3.112,-3.1437,-3.1467,-3.1467,-3.1467,-3.1467,-3.1719,-3.2063,-3.2407,-3.2736,-3.314,-3.3933,-3.3918,-3.411,-3.4753,-3.5195,-3.5415,-3.5325,-3.5055,-3.4741,-3.4472,-3.4083,-3.3724,-3.3544,-3.3483,-3.3092,-3.2553,-3.2691,-3.2526,-3.2062,-3.2107,-3.2333,-3.2363,-3.2154,-3.1959,-3.1855,-3.1631,-3.1719,-3.1928,-3.1973,-3.2018,-3.1689,-3.1467,-3.1467,-3.1467,-3.1467,-3.1467,-3.1467,-3.1467,-3.1467,-3.1467,-3.1482,-3.1482,-3.1467,-3.1467,-3.1467,-2.6521,-2.6521,-2.6521,-2.6521,-2.6427,-2.6239,-2.6138,-2.6168,-2.5937,-2.585,-2.5837,-2.5837,-2.5661,-2.5322,-2.5096,-2.4946,-2.482,-2.4983,-2.4996,-2.5021,-2.4946,-2.4519,-2.3979,-2.3401,-2.3125,-2.3125,-2.3125,-2.3531,-2.4279,-2.4337,-2.4681,-2.5287,-2.5119,-2.4788,-2.4299,-2.3752,-2.3757,-2.424,-2.3682,-2.3681,-2.4336,-2.4508,-2.4487,-2.4534,-2.515,-2.557,-2.5818,-2.5988,-2.6484,-2.7034,-2.7203,-2.7306,-2.756,-2.7625,-2.782,-2.8218,-2.8846,-2.9475,-3.0118,-3.0746,-3.1285,-3.1465,-3.1467,-3.1467,-3.1467,-3.1467,-3.1691,-3.2048,-3.2153,-3.2467,-3.3141,-3.3275,-3.3319,-3.3737,-3.4304,-3.4711,-3.4696,-3.4382,-3.3978,-3.3709,-3.335,-3.308,-3.2841,-3.2766,-3.2617,-3.2184,-3.2139,-3.2078,-3.1586,-3.1554,-3.184,-3.196,-3.181,-3.181,-3.196,-3.181,-3.1511,-3.1526,-3.1629,-3.1674,-3.1497,-3.1467,-3.1467,-3.1467,-3.1467,-3.1467,-3.1467,-3.1467,-3.1467,-3.1467,-3.1467,-3.1467,-3.1467,-3.1467,-3.1467,-2.6414,-2.6445,-2.6389,-2.6327,-2.6226,-2.5762,-2.5561,-2.5473,-2.5109,-2.4946,-2.4921,-2.4983,-2.487,-2.4682,-2.4356,-2.433,-2.4569,-2.433,-2.4104,-2.4192,-2.4406,-2.4393,-2.3828,-2.329,-2.3138,-2.3125,-2.3125,-2.3471,-2.406,-2.4118,-2.4553,-2.4951,-2.4429,-2.4173,-2.39,-2.3527,-2.346,-2.3758,-2.3164,-2.2867,-2.2923,-2.2851,-2.2544,-2.1689,-2.3011,-2.3669,-2.3667,-2.3923,-2.4713,-2.6093,-2.6438,-2.6826,-2.7291,-2.7509,-2.759,-2.7643,-2.8181,-2.8876,-2.952,-3.0238,-3.0806,-3.13,-3.1392,-3.1467,-3.1467,-3.1467,-3.1497,-3.1629,-3.1571,-3.1659,-3.1884,-3.2153,-3.2436,-3.2538,-3.3306,-3.3649,-3.3559,-3.3514,-3.3245,-3.2781,-3.2497,-3.2273,-3.1735,-3.1661,-3.1631,-3.1601,-3.1586,-3.1556,-3.1511,-3.1467,-3.1467,-3.1497,-3.1541,-3.1601,-3.1795,-3.175,-3.1467,-3.1467,-3.1467,-3.1467,-3.1467,-3.1467,-3.1467,-3.1467,-3.1467,-3.1467,-3.1467,-3.1467,-3.1467,-3.1467,-3.1467,-3.1467,-3.1467,-3.1467,-3.1467,-2.5988,-2.5322,-2.5661,-2.5611,-2.5272,-2.5071,-2.5021,-2.5008,-2.487,-2.4745,-2.4808,-2.4833,-2.4556,-2.4217,-2.4067,-2.3866,-2.3728,-2.3879,-2.3728,-2.3502,-2.3954,-2.3879,-2.3452,-2.3165,-2.3125,-2.3125,-2.3125,-2.3185,-2.3424,-2.3446,-2.3551,-2.3682,-2.3199,-2.2871,-2.2808,-2.2364,-2.2175,-2.2435,-2.2701,-2.2676,-2.2662,-2.2732,-2.3045,-2.3632,-2.3183,-2.3384,-2.395,-2.3683,-2.3933,-2.4987,-2.5987,-2.6297,-2.6162,-2.6967,-2.7306,-2.7033,-2.7846,-2.8637,-2.9011,-2.9849,-3.0522,-3.0791,-3.121,-3.1467,-3.1467,-3.1467,-3.1467,-3.1467,-3.1539,-3.1702,-3.2028,-3.1927,-3.1852,-3.1912,-3.2751,-3.338,-3.3335,-3.3066,-3.2677,-3.2497,-3.2093,-3.1706,-3.1541,-3.1467,-3.1467,-3.1467,-3.1467,-3.1467,-3.1467,-3.1467,-3.1467,-3.1467,-3.1482,-3.1482,-3.1497,-3.1497,-3.1467,-3.1467,-3.1467,-3.1467,-3.1467,-3.1467,-3.1467,-3.1467,-3.1467,-3.1467,-3.1467,-3.1467,-3.1467,-3.1467,-3.1467,-3.1467,-3.1467,-3.1467,-3.1467,-2.5398,-2.4845,-2.5146,-2.5109,-2.4795,-2.4582,-2.4469,-2.4418,-2.4205,-2.4117,-2.4104,-2.4117,-2.3941,-2.3653,-2.3627,-2.3464,-2.3213,-2.3489,-2.3439,-2.3203,-2.3489,-2.3439,-2.314,-2.3125,-2.3125,-2.3125,-2.3125,-2.3125,-2.3075,-2.2865,-2.2799,-2.2732,-2.2246,-2.2008,-2.2005,-2.1495,-2.1405,-2.17,-2.208,-2.23,-2.23,-2.2815,-2.2793,-2.3077,-2.2408,-2.2554,-2.2615,-2.2392,-2.3001,-2.4477,-2.5369,-2.5508,-2.5508,-2.6162,-2.6496,-2.6082,-2.7099,-2.783,-2.8252,-2.9163,-2.9939,-3.0432,-3.0941,-3.121,-3.1377,-3.1467,-3.1467,-3.1467,-3.1467,-3.1702,-3.188,-3.1717,-3.1554,-3.1629,-3.2228,-3.2677,-3.2677,-3.2317,-3.2123,-3.2003,-3.1735,-3.1467,-3.1467,-3.1467,-3.1467,-3.1467,-3.1467,-3.1467,-3.1467,-3.1467,-3.1467,-3.1467,-3.1465,-3.142,-3.142,-3.1377,-3.1405,-3.142,-3.1332,-3.1347,-3.136,-3.139,-3.1467,-3.1467,-3.1467,-3.1467,-3.1467,-3.1467,-3.1467,-3.1467,-3.1467,-3.1467,-3.1467,-3.1467,-3.1467,-2.4757,-2.4657,-2.4707,-2.4695,-2.4531,-2.413,-2.3904,-2.3816,-2.3452,-2.3226,-2.3238,-2.3175,-2.3263,-2.3125,-2.3238,-2.315,-2.3125,-2.3201,-2.3175,-2.3138,-2.3201,-2.315,-2.315,-2.3125,-2.3125,-2.3125,-2.3125,-2.3062,-2.2912,-2.2535,-2.2297,-2.2121,-2.1681,-2.143,-2.1357,-2.1006,-2.1041,-2.1414,-2.1835,-2.196,-2.1993,-2.256,-2.2526,-2.1616,-2.1595,-2.1189,-2.072,-2.0724,-2.1988,-2.4832,-2.449,-2.456,-2.5051,-2.5175,-2.5453,-2.5618,-2.6247,-2.6973,-2.7515,-2.8381,-2.9101,-2.9968,-3.0283,-3.0702,-3.1165,-3.1243,-3.136,-3.1467,-3.1467,-3.1554,-3.1569,-3.1539,-3.1539,-3.1497,-3.1556,-3.1497,-3.1467,-3.1467,-3.1467,-3.1467,-3.1482,-3.1467,-3.1467,-3.1467,-3.1467,-3.1467,-3.1467,-3.1467,-3.1467,-3.1467,-3.1467,-3.1467,-3.142,-3.1342,-3.13,-3.1273,-3.1285,-3.1255,-3.1195,-3.115,-3.1031,-3.1106,-3.1405,-3.1467,-3.1467,-3.1467,-3.1467,-3.1467,-3.1422,-3.1467,-3.1467,-3.1467,-3.1467,-3.1467,-3.1467,-2.4305,-2.3478,-2.3979,-2.3916,-2.3453,-2.3303,-2.3326,-2.3314,-2.3201,-2.3125,-2.3125,-2.3125,-2.3125,-2.3125,-2.304,-2.3125,-2.3075,-2.305,-2.3125,-2.3125,-2.3125,-2.3125,-2.304,-2.299,-2.304,-2.3088,-2.3113,-2.2887,-2.2535,-2.2284,-2.2058,-2.1619,-2.1142,-2.0894,-2.0819,-2.0797,-2.0793,-2.1153,-2.1888,-2.2067,-2.171,-2.1932,-2.1993,-2.1376,-2.1161,-2.0832,-2.0652,-2.0655,-2.1259,-2.2197,-2.3132,-2.3581,-2.3877,-2.4711,-2.5175,-2.5398,-2.6,-2.6794,-2.7521,-2.8122,-2.8682,-2.9071,-2.9564,-3.0058,-3.0627,-3.0761,-3.1016,-3.136,-3.1467,-3.1467,-3.1467,-3.1467,-3.1467,-3.1467,-3.1467,-3.1467,-3.1467,-3.1467,-3.1467,-3.1467,-3.1467,-3.1467,-3.1467,-3.1467,-3.1467,-3.1467,-3.1452,-3.1452,-3.145,-3.1375,-3.1225,-3.1076,-3.0934,-3.0764,-3.0769,-3.0758,-3.0746,-3.0746,-3.0746,-3.0717,-3.0597,-3.0746,-3.1016,-3.1285,-3.1467,-3.1422,-3.1213,-3.1273,-3.1198,-3.1317,-3.142,-3.133,-3.127,-3.136,-3.1467,-2.3678,-2.3115,-2.3477,-2.3414,-2.3163,-2.3125,-2.3125,-2.3125,-2.3125,-2.3125,-2.3125,-2.3125,-2.3125,-2.31,-2.2827,-2.2736,-2.2661,-2.246,-2.2498,-2.2598,-2.251,-2.2347,-2.2359,-2.241,-2.246,-2.2648,-2.2447,-2.2171,-2.1945,-2.1681,-2.1355,-2.1091,-2.0552,-2.0288,-2.0263,-2.0361,-2.0283,-2.0472,-2.1272,-2.1595,-2.1342,-2.1568,-2.152,-2.1197,-2.0683,-2.0335,-2.0253,-2.0238,-2.0564,-2.1188,-2.201,-2.2603,-2.2816,-2.3729,-2.4253,-2.4483,-2.5453,-2.6054,-2.6625,-2.7513,-2.8248,-2.8577,-2.8951,-2.9624,-3.0208,-3.0492,-3.0836,-3.133,-3.1467,-3.1467,-3.1467,-3.1467,-3.1467,-3.1467,-3.1467,-3.1467,-3.1467,-3.1467,-3.1467,-3.1467,-3.1467,-3.1467,-3.1467,-3.1435,-3.1392,-3.1362,-3.0936,-3.0891,-3.0794,-3.0704,-3.0458,-3.0333,-3.0187,-3.0105,-3.0111,-3.0078,-3.0073,-3.0088,-3.0088,-3.0043,-2.9953,-3.0253,-3.0597,-3.0821,-3.0929,-3.0869,-3.0735,-3.0768,-3.072,-3.0481,-3.0507,-3.0731,-3.0881,-3.0923,-3.1165,-2.3125,-2.3125,-2.3125,-2.3125,-2.3125,-2.3125,-2.3125,-2.3125,-2.3125,-2.3125,-2.304,-2.3002,-2.2924,-2.2815,-2.2422,-2.2209,-2.2071,-2.1845,-2.1882,-2.2108,-2.1832,-2.1707,-2.1631,-2.1581,-2.1619,-2.1983,-2.1794,-2.1543,-2.128,-2.0983,-2.0752,-2.0501,-2.01,-1.9924,-1.9836,-1.9811,-2.0003,-2.0245,-2.0696,-2.0993,-2.0944,-2.1293,-2.121,-2.0633,-2.0194,-1.9914,-1.9886,-1.9911,-2.0062,-2.0526,-2.1142,-2.1681,-2.2184,-2.2727,-2.3185,-2.3352,-2.4667,-2.5398,-2.6054,-2.6832,-2.772,-2.8375,-2.8442,-2.8981,-2.9804,-3.0103,-3.0477,-3.1061,-3.1332,-3.1467,-3.1467,-3.1467,-3.1467,-3.1467,-3.1467,-3.1467,-3.1467,-3.1467,-3.1467,-3.1467,-3.1452,-3.1422,-3.133,-3.1195,-3.1255,-3.1168,-3.0671,-3.0359,-3.0188,-3.0045,-2.9885,-2.9726,-2.9637,-2.9448,-2.944,-2.9417,-2.94,-2.9415,-2.9415,-2.9295,-2.922,-2.919,-2.946,-3.0048,-3.0227,-3.0142,-3.0138,-3.0148,-2.9968,-2.9609,-2.9729,-3.0118,-3.0338,-3.0453,-3.087,-2.3125,-2.3125,-2.3125,-2.3125,-2.3065,-2.3065,-2.3027,-2.3125,-2.2977,-2.3065,-2.3037,-2.2661,-2.2447,-2.2309,-2.187,-2.1631,-2.1568,-2.1393,-2.1443,-2.1594,-2.1405,-2.1343,-2.1242,-2.0941,-2.0891,-2.1029,-2.1142,-2.1142,-2.0865,-2.0743,-2.0376,-2.0024,-1.9874,-1.9798,-1.9798,-1.985,-2.0055,-2.0308,-2.061,-2.0709,-2.0746,-2.0782,-2.0683,-2.0156,-1.9901,-1.985,-1.9798,-1.9798,-1.9849,-2.0037,-2.0953,-2.143,-2.182,-2.2548,-2.32,-2.3884,-2.4363,-2.5104,-2.6014,-2.651,-2.7093,-2.7571,-2.7799,-2.8128,-2.8771,-2.9071,-2.9699,-3.0552,-3.1153,-3.1452,-3.1467,-3.142,-3.148,-3.1495,-3.139,-3.139,-3.139,-3.136,-3.133,-3.124,-3.1243,-3.1273,-3.1061,-3.0776,-3.0582,-3.0391,-3.0012,-2.9748,-2.9654,-2.9562,-2.9492,-2.9282,-2.9109,-2.8899,-2.8734,-2.8764,-2.8742,-2.8757,-2.8697,-2.8487,-2.8323,-2.803,-2.8218,-2.8988,-2.951,-2.9575,-2.954,-2.9514,-2.9379,-2.9154,-2.9364,-2.9549,-2.984,-3.013,-3.0768,-2.2491,-2.3065,-2.3125,-2.271,-2.2175,-2.2163,-2.1979,-2.1687,-2.1734,-2.1922,-2.2093,-2.2008,-2.1882,-2.1732,-2.1305,-2.1066,-2.1016,-2.0715,-2.0803,-2.0941,-2.0778,-2.0614,-2.0652,-2.0326,-2.025,-2.0288,-2.0476,-2.0539,-2.025,-2.0213,-2.0075,-1.9899,-1.9798,-1.9798,-1.9798,-1.9798,-1.9952,-2.0258,-2.0308,-2.0308,-2.0295,-2.0295,-2.0055,-1.9901,-1.9798,-1.9798,-1.9798,-1.9798,-1.9798,-1.9962,-2.0614,-2.1129,-2.1556,-2.2027,-2.2736,-2.3566,-2.4345,-2.5046,-2.6014,-2.6496,-2.7269,-2.7524,-2.756,-2.7904,-2.8382,-2.8757,-2.916,-3.0138,-3.0696,-3.1142,-3.1437,-3.1147,-3.1024,-3.0911,-3.0776,-3.0597,-3.0552,-3.0567,-3.0612,-3.0687,-3.0717,-3.0687,-3.0642,-3.0313,-2.9939,-2.96,-2.9292,-2.9182,-2.9086,-2.8944,-2.8885,-2.8677,-2.8432,-2.8402,-2.824,-2.8203,-2.8233,-2.8218,-2.8173,-2.7949,-2.7814,-2.7715,-2.7805,-2.8233,-2.8554,-2.886,-2.8838,-2.8764,-2.8704,-2.8629,-2.8651,-2.8763,-2.9331,-2.9899,-3.0569,-2.1416,-2.2369,-2.2309,-2.174,-2.0914,-2.0807,-2.0582,-2.0239,-2.0228,-2.0656,-2.1232,-2.1157,-2.1151,-2.1167,-2.0857,-2.0542,-2.0451,-2.0012,-2.015,-2.0326,-2.0112,-1.9849,-1.9823,-1.9798,-1.9849,-1.9911,-1.9924,-1.9798,-1.9874,-1.9874,-1.9823,-1.9798,-1.9798,-1.9798,-1.9798,-1.9798,-1.9798,-1.9798,-1.9798,-1.9798,-1.9798,-1.9798,-1.9798,-1.9798,-1.9798,-1.9798,-1.9798,-1.9798,-1.9798,-1.9962,-2.0376,-2.0932,-2.1267,-2.1412,-2.1888,-2.2837,-2.4173,-2.4896,-2.5548,-2.652,-2.7255,-2.7575,-2.756,-2.7889,-2.8218,-2.8517,-2.9011,-2.9899,-3.0288,-3.048,-3.0795,-3.0614,-3.0373,-3.0233,-2.9939,-2.9639,-2.9744,-2.9804,-2.9864,-2.9939,-3.0028,-2.9953,-2.9804,-2.9654,-2.9235,-2.8816,-2.851,-2.8465,-2.8353,-2.8113,-2.8011,-2.787,-2.776,-2.776,-2.7775,-2.782,-2.7799,-2.7829,-2.7829,-2.7724,-2.7649,-2.759,-2.7724,-2.7844,-2.7829,-2.8113,-2.8038,-2.8053,-2.812,-2.8015,-2.7846,-2.8106,-2.8866,-2.9687,-3.0417,-1.9604,-1.978,-1.9792,-1.9627,-1.9511,-1.9511,-1.9477,-1.9386,-1.9329,-1.9843,-2.0439,-2.0113,-2.0305,-2.0519,-2.02,-1.9949,-1.9899,-1.9899,-1.9861,-1.9974,-1.9861,-1.9798,-1.9798,-1.9798,-1.9798,-1.9798,-1.9798,-1.9798,-1.9798,-1.9798,-1.9798,-1.9798,-1.9798,-1.9798,-1.9798,-1.9798,-1.9798,-1.9798,-1.9798,-1.9798,-1.9798,-1.9798,-1.9798,-1.9798,-1.9798,-1.9798,-1.9798,-1.9798,-1.9798,-1.9874,-2.0338,-2.0706,-2.0865,-2.1232,-2.1462,-2.2015,-2.2851,-2.3903,-2.4624,-2.594,-2.6894,-2.7268,-2.753,-2.7604,-2.7859,-2.8248,-2.8622,-2.8704,-2.9359,-2.9805,-2.9963,-2.9798,-2.9723,-2.9648,-2.9445,-2.937,-2.94,-2.9026,-2.9101,-2.9086,-2.9146,-2.8981,-2.8831,-2.8697,-2.8502,-2.8098,-2.7784,-2.7784,-2.7769,-2.77,-2.7625,-2.7625,-2.756,-2.756,-2.756,-2.756,-2.756,-2.756,-2.756,-2.756,-2.756,-2.756,-2.756,-2.7634,-2.761,-2.761,-2.7775,-2.779,-2.764,-2.781,-2.8091,-2.8271,-2.8477,-2.9357,-3.0368,-1.7975,-1.9301,-1.9301,-1.8896,-1.8239,-1.8228,-1.8017,-1.7868,-1.8169,-1.8736,-1.938,-1.969,-1.9899,-2.0125,-1.9874,-1.9811,-1.9798,-1.9798,-1.9798,-1.9798,-1.9798,-1.9798,-1.9798,-1.9798,-1.9798,-1.9798,-1.9798,-1.9798,-1.9786,-1.9773,-1.9798,-1.9798,-1.9798,-1.9798,-1.9798,-1.9798,-1.9798,-1.9798,-1.9798,-1.9798,-1.9798,-1.9798,-1.9798,-1.9798,-1.9798,-1.9798,-1.9798,-1.9798,-1.9798,-1.9836,-2.01,-2.0338,-2.0514,-2.0661,-2.0673,-2.1134,-2.194,-2.2751,-2.35,-2.5381,-2.6283,-2.6696,-2.7119,-2.7575,-2.7634,-2.7844,-2.8263,-2.8622,-2.8823,-2.9137,-2.934,-2.9215,-2.9072,-2.9012,-2.8854,-2.8637,-2.8577,-2.8457,-2.8293,-2.8263,-2.8263,-2.8218,-2.8173,-2.8113,-2.8068,-2.7889,-2.7664,-2.7664,-2.7664,-2.7604,-2.7625,-2.7575,-2.756,-2.756,-2.756,-2.756,-2.756,-2.756,-2.756,-2.756,-2.756,-2.756,-2.756,-2.761,-2.7595,-2.761,-2.761,-2.786,-2.8042,-2.8334,-2.8606,-2.8873,-2.918,-2.9572,-3.0514,-1.654,-1.8272,-1.8342,-1.7771,-1.6926,-1.6867,-1.6643,-1.6353,-1.6786,-1.7534,-1.8501,-1.9331,-1.9823,-1.9798,-1.9811,-1.9798,-1.9798,-1.9798,-1.9798,-1.9798,-1.9798,-1.9798,-1.9798,-1.9798,-1.9798,-1.9773,-1.9585,-1.9535,-1.9522,-1.9434,-1.9422,-1.9773,-1.9798,-1.9798,-1.9798,-1.9798,-1.9798,-1.9798,-1.9798,-1.9798,-1.9798,-1.9798,-1.9798,-1.9798,-1.9798,-1.9798,-1.9798,-1.9798,-1.9798,-1.9811,-1.9823,-2.0062,-2.0288,-2.0162,-2.0137,-2.0545,-2.1224,-2.1681,-2.2841,-2.4375,-2.5687,-2.6258,-2.6775,-2.756,-2.7575,-2.759,-2.7694,-2.8248,-2.8276,-2.8606,-2.8832,-2.8559,-2.8447,-2.8195,-2.7993,-2.7724,-2.759,-2.7784,-2.794,-2.7889,-2.7874,-2.7769,-2.7724,-2.7649,-2.7619,-2.759,-2.756,-2.756,-2.756,-2.756,-2.756,-2.756,-2.756,-2.756,-2.756,-2.756,-2.756,-2.756,-2.756,-2.756,-2.756,-2.756,-2.756,-2.761,-2.7665,-2.77,-2.7735,-2.8158,-2.8527,-2.8654,-2.8919,-2.9585,-3.0021,-3.0293,-3.0593,-1.5508,-1.5673,-1.5751,-1.5751,-1.5595,-1.5576,-1.5566,-1.57,-1.569,-1.6631,-1.8112,-1.9085,-1.9798,-1.9798,-1.9798,-1.9798,-1.9798,-1.9798,-1.9798,-1.9798,-1.9786,-1.971,-1.9673,-1.9648,-1.966,-1.961,-1.9296,-1.9069,-1.898,-1.8729,-1.9058,-1.9635,-1.951,-1.9685,-1.9736,-1.966,-1.9673,-1.9698,-1.9748,-1.9798,-1.9798,-1.9798,-1.9798,-1.9798,-1.9798,-1.9798,-1.9798,-1.9798,-1.9798,-1.9798,-1.9798,-1.9811,-1.9949,-1.9874,-1.9911,-2.0128,-2.0484,-2.0888,-2.1652,-2.365,-2.5379,-2.6054,-2.6775,-2.756,-2.756,-2.756,-2.7649,-2.7739,-2.784,-2.784,-2.788,-2.7715,-2.7805,-2.779,-2.7709,-2.7664,-2.756,-2.7575,-2.7649,-2.759,-2.756,-2.756,-2.756,-2.756,-2.756,-2.756,-2.756,-2.756,-2.756,-2.756,-2.756,-2.756,-2.756,-2.756,-2.756,-2.756,-2.756,-2.756,-2.756,-2.756,-2.756,-2.756,-2.7625,-2.7853,-2.8003,-2.7905,-2.7969,-2.8591,-2.8966,-2.8919,-2.9225,-3.0081,-3.0518,-3.0699,-3.0878,-1.542,-1.542,-1.542,-1.542,-1.542,-1.542,-1.5633,-1.6151,-1.6574,-1.7556,-1.8939,-1.9527,-1.9798,-1.9786,-1.9798,-1.9798,-1.9798,-1.9798,-1.9761,-1.9673,-1.9535,-1.9359,-1.9246,-1.9008,-1.8808,-1.8821,-1.862,-1.8513,-1.8452,-1.8185,-1.8355,-1.8731,-1.8832,-1.907,-1.9171,-1.9359,-1.9359,-1.9447,-1.9635,-1.9798,-1.9798,-1.9798,-1.9798,-1.9798,-1.9798,-1.9798,-1.9798,-1.9798,-1.9798,-1.9798,-1.9798,-1.9798,-1.9798,-1.9798,-1.9798,-1.9798,-2.0087,-2.0219,-2.0732,-2.2862,-2.4818,-2.6267,-2.7056,-2.756,-2.756,-2.756,-2.756,-2.7575,-2.756,-2.756,-2.7625,-2.764,-2.7655,-2.7575,-2.756,-2.756,-2.756,-2.756,-2.756,-2.756,-2.756,-2.756,-2.756,-2.756,-2.756,-2.756,-2.756,-2.756,-2.756,-2.756,-2.756,-2.756,-2.756,-2.756,-2.756,-2.756,-2.7545,-2.758,-2.7615,-2.7595,-2.7569,-2.7625,-2.7695,-2.8003,-2.8358,-2.8498,-2.8761,-2.9268,-2.9451,-2.9361,-2.9892,-3.0699,-3.0975,-3.1055,-3.1112,-1.5293,-1.5391,-1.5273,-1.5293,-1.54,-1.542,-1.57,-1.6265,-1.6912,-1.8112,-1.9463,-1.9506,-1.9572,-1.9547,-1.9346,-1.9284,-1.9221,-1.9246,-1.9284,-1.9158,-1.8932,-1.8745,-1.8643,-1.8505,-1.8367,-1.8172,-1.8006,-1.7979,-1.7952,-1.7814,-1.7802,-1.7865,-1.784,-1.8103,-1.8706,-1.8908,-1.902,-1.9158,-1.9497,-1.9786,-1.9798,-1.9798,-1.9798,-1.9798,-1.9798,-1.9798,-1.9798,-1.9798,-1.9798,-1.9798,-1.9798,-1.9798,-1.9798,-1.9798,-1.9798,-1.9798,-1.985,-1.9888,-2.082,-2.2326,-2.4639,-2.6594,-2.726,-2.758,-2.756,-2.756,-2.756,-2.756,-2.756,-2.756,-2.756,-2.756,-2.756,-2.756,-2.756,-2.756,-2.756,-2.756,-2.756,-2.756,-2.756,-2.756,-2.756,-2.7545,-2.7515,-2.753,-2.756,-2.756,-2.756,-2.756,-2.756,-2.756,-2.756,-2.756,-2.756,-2.7305,-2.7195,-2.7783,-2.7771,-2.7607,-2.7607,-2.764,-2.7847,-2.8186,-2.8595,-2.9006,-2.9447,-2.9843,-2.9848,-2.9761,-3.0435,-3.1112,-3.1112,-3.1112,-3.1151,-1.5019,-1.5342,-1.4961,-1.5019,-1.5303,-1.5391,-1.5409,-1.577,-1.6458,-1.7499,-1.8762,-1.8957,-1.9045,-1.8908,-1.8643,-1.8518,-1.8493,-1.843,-1.8417,-1.843,-1.8329,-1.8242,-1.8179,-1.8066,-1.7836,-1.8007,-1.7688,-1.7416,-1.7411,-1.7055,-1.7049,-1.7149,-1.7124,-1.7225,-1.8179,-1.8744,-1.8933,-1.907,-1.9434,-1.9572,-1.9585,-1.956,-1.9535,-1.9535,-1.9635,-1.9648,-1.9648,-1.9773,-1.9786,-1.9798,-1.9798,-1.9798,-1.9798,-1.9798,-1.9798,-1.9798,-1.9798,-2.0383,-2.1595,-2.2976,-2.4683,-2.6614,-2.6991,-2.7415,-2.7535,-2.7545,-2.756,-2.756,-2.756,-2.756,-2.756,-2.7535,-2.7475,-2.753,-2.753,-2.75,-2.7485,-2.756,-2.756,-2.7485,-2.75,-2.758,-2.758,-2.753,-2.747,-2.7485,-2.7545,-2.756,-2.753,-2.761,-2.761,-2.7455,-2.744,-2.7275,-2.7171,-2.6797,-2.6808,-2.7531,-2.7736,-2.7442,-2.7565,-2.772,-2.8014,-2.8331,-2.886,-2.9344,-2.9831,-3.0318,-3.0335,-3.0393,-3.0699,-3.1151,-3.119,-3.119,-3.119,-1.4434,-1.4551,-1.4414,-1.4434,-1.4561,-1.4561,-1.5043,-1.6041,-1.7094,-1.7929,-1.8302,-1.8482,-1.848,-1.8392,-1.8292,-1.8129,-1.8154,-1.8204,-1.8204,-1.8129,-1.7827,-1.7689,-1.7589,-1.735,-1.7156,-1.7074,-1.6823,-1.6867,-1.6789,-1.6547,-1.6584,-1.6685,-1.6697,-1.6691,-1.7137,-1.7601,-1.7928,-1.8028,-1.8392,-1.8719,-1.8744,-1.8781,-1.8794,-1.8832,-1.912,-1.9284,-1.9309,-1.9497,-1.9648,-1.966,-1.9648,-1.9673,-1.9685,-1.9698,-1.9723,-1.9761,-1.9837,-2.0641,-2.1817,-2.2992,-2.3757,-2.5291,-2.6467,-2.6871,-2.6916,-2.7365,-2.7485,-2.7515,-2.739,-2.7455,-2.756,-2.7112,-2.6992,-2.7355,-2.7395,-2.7335,-2.7335,-2.7485,-2.7545,-2.738,-2.7335,-2.7036,-2.6916,-2.6916,-2.6916,-2.7036,-2.7081,-2.732,-2.7365,-2.75,-2.7595,-2.74,-2.723,-2.7006,-2.6752,-2.6369,-2.6426,-2.7041,-2.7176,-2.6972,-2.7203,-2.7734,-2.7897,-2.8119,-2.8876,-2.9649,-2.9999,-3.0389,-3.0834,-3.1072,-3.1151,-3.119,-3.119,-3.119,-3.119,-1.3941,-1.4111,-1.3922,-1.3863,-1.3936,-1.4072,-1.4788,-1.5913,-1.7034,-1.7642,-1.7834,-1.7887,-1.7915,-1.7865,-1.7714,-1.7626,-1.7626,-1.7614,-1.7601,-1.7576,-1.7275,-1.7112,-1.6936,-1.6735,-1.6697,-1.6534,-1.6534,-1.6534,-1.6547,-1.6534,-1.6559,-1.6559,-1.6534,-1.6529,-1.6785,-1.7124,-1.7463,-1.7652,-1.8016,-1.8317,-1.8304,-1.8279,-1.8254,-1.8355,-1.8543,-1.8695,-1.8832,-1.9032,-1.9271,-1.9284,-1.9271,-1.9271,-1.9271,-1.9271,-1.9258,-1.9246,-1.9811,-2.0667,-2.1855,-2.2614,-2.3371,-2.4283,-2.5478,-2.6153,-2.6288,-2.6557,-2.6707,-2.6826,-2.6981,-2.6922,-2.6841,-2.6391,-2.6449,-2.6801,-2.6752,-2.6677,-2.6722,-2.6841,-2.6871,-2.6767,-2.6722,-2.6452,-2.6243,-2.6243,-2.6243,-2.6408,-2.6572,-2.6797,-2.6971,-2.7171,-2.716,-2.6924,-2.6696,-2.6441,-2.6176,-2.5909,-2.6121,-2.6611,-2.6623,-2.654,-2.7195,-2.7755,-2.7828,-2.7942,-2.8665,-2.9343,-2.9947,-3.0408,-3.0712,-3.0982,-3.119,-3.119,-3.119,-3.119,-3.119,-1.373,-1.3951,-1.3662,-1.3486,-1.3555,-1.3857,-1.4415,-1.5213,-1.5925,-1.6573,-1.7159,-1.7214,-1.7157,-1.7102,-1.6723,-1.6573,-1.6623,-1.6654,-1.6722,-1.6654,-1.671,-1.6635,-1.6622,-1.6559,-1.6534,-1.6534,-1.6534,-1.6534,-1.6534,-1.6534,-1.6534,-1.6534,-1.6534,-1.6534,-1.671,-1.6923,-1.7187,-1.7338,-1.7551,-1.7777,-1.7777,-1.7915,-1.7852,-1.7915,-1.8053,-1.8166,-1.8242,-1.8355,-1.8392,-1.8367,-1.8329,-1.8292,-1.8254,-1.8216,-1.8216,-1.851,-1.9396,-2.0447,-2.1492,-2.2193,-2.2946,-2.3733,-2.4762,-2.533,-2.5659,-2.5794,-2.6019,-2.6027,-2.6065,-2.5905,-2.5685,-2.5659,-2.5648,-2.5751,-2.5719,-2.5734,-2.5779,-2.5839,-2.5854,-2.5839,-2.5869,-2.5734,-2.56,-2.557,-2.557,-2.563,-2.5704,-2.5553,-2.5851,-2.64,-2.6348,-2.6104,-2.5907,-2.577,-2.5576,-2.554,-2.5858,-2.6397,-2.6338,-2.6325,-2.7081,-2.7584,-2.7494,-2.77,-2.839,-2.9024,-2.9556,-3.004,-3.0429,-3.07,-3.097,-3.119,-3.119,-3.119,-3.119,-1.3125,-1.3223,-1.3105,-1.3057,-1.3086,-1.3193,-1.361,-1.4312,-1.5289,-1.573,-1.5498,-1.5942,-1.5987,-1.5497,-1.5703,-1.582,-1.5996,-1.6238,-1.6461,-1.6479,-1.6479,-1.6479,-1.6534,-1.6534,-1.6534,-1.6534,-1.6534,-1.6534,-1.6534,-1.6534,-1.6534,-1.6534,-1.6534,-1.6534,-1.6584,-1.6685,-1.6773,-1.6873,-1.7087,-1.7149,-1.7149,-1.7162,-1.7149,-1.72,-1.7488,-1.7576,-1.7639,-1.794,-1.8041,-1.8129,-1.8166,-1.8179,-1.8204,-1.8204,-1.8216,-1.8267,-1.8958,-1.983,-2.0959,-2.1662,-2.2455,-2.3348,-2.4073,-2.4403,-2.4822,-2.5211,-2.5435,-2.5357,-2.5292,-2.5252,-2.512,-2.5077,-2.5077,-2.5121,-2.5091,-2.5031,-2.5106,-2.5241,-2.5241,-2.5241,-2.5255,-2.5106,-2.4986,-2.4896,-2.4911,-2.4911,-2.4806,-2.4672,-2.479,-2.5446,-2.5693,-2.544,-2.5391,-2.5329,-2.5392,-2.5404,-2.5767,-2.6075,-2.6125,-2.6225,-2.6739,-2.708,-2.7046,-2.7301,-2.7811,-2.8458,-2.9149,-2.9499,-2.9786,-3.0362,-3.0683,-3.097,-3.119,-3.1157,-3.1173,-1.2666,-1.2881,-1.2891,-1.2891,-1.2891,-1.2891,-1.3152,-1.36,-1.4457,-1.4641,-1.4468,-1.4983,-1.5062,-1.4869,-1.5119,-1.5276,-1.532,-1.582,-1.6095,-1.6139,-1.6343,-1.6479,-1.6534,-1.6497,-1.6534,-1.6522,-1.6509,-1.6534,-1.6509,-1.6522,-1.6534,-1.6534,-1.6534,-1.6534,-1.6547,-1.6572,-1.6559,-1.6572,-1.6572,-1.6534,-1.6534,-1.6534,-1.6534,-1.6597,-1.6961,-1.7024,-1.7087,-1.7488,-1.7539,-1.7551,-1.7539,-1.7526,-1.7513,-1.7501,-1.7714,-1.7777,-1.8113,-1.935,-2.0617,-2.119,-2.2183,-2.3142,-2.3595,-2.3834,-2.4103,-2.4433,-2.4582,-2.4612,-2.4686,-2.4732,-2.4627,-2.4536,-2.4597,-2.4702,-2.4552,-2.4403,-2.4552,-2.4717,-2.4747,-2.4732,-2.4657,-2.4507,-2.4388,-2.4313,-2.4223,-2.4208,-2.4193,-2.4118,-2.4283,-2.476,-2.5032,-2.493,-2.4945,-2.4989,-2.5145,-2.5472,-2.5816,-2.6158,-2.6327,-2.6453,-2.6657,-2.6725,-2.686,-2.6962,-2.7114,-2.7757,-2.8416,-2.8738,-2.9076,-2.9651,-3.0176,-3.048,-3.0768,-3.1055,-3.1089,-1.2295,-1.2891,-1.2891,-1.2891,-1.2891,-1.2891,-1.2929,-1.2978,-1.3552,-1.3732,-1.3826,-1.4376,-1.456,-1.434,-1.4514,-1.4606,-1.4778,-1.5231,-1.5632,-1.5584,-1.588,-1.615,-1.6278,-1.6358,-1.6082,-1.6258,-1.6321,-1.6132,-1.6396,-1.6484,-1.6534,-1.6522,-1.6534,-1.6534,-1.6534,-1.6534,-1.6534,-1.6534,-1.6534,-1.6534,-1.6534,-1.6534,-1.6534,-1.6534,-1.6572,-1.6584,-1.6572,-1.6572,-1.6534,-1.6547,-1.6572,-1.6647,-1.6672,-1.6815,-1.708,-1.7301,-1.7624,-1.8771,-2.0003,-2.0667,-2.1808,-2.279,-2.3537,-2.3611,-2.3732,-2.3909,-2.4044,-2.4073,-2.4148,-2.4148,-2.4058,-2.4013,-2.4103,-2.4118,-2.4044,-2.3969,-2.4044,-2.4148,-2.4148,-2.4148,-2.4118,-2.3984,-2.3969,-2.3909,-2.3939,-2.3729,-2.3684,-2.367,-2.3995,-2.4372,-2.4559,-2.4673,-2.4863,-2.5089,-2.5458,-2.5745,-2.6007,-2.6279,-2.6436,-2.6556,-2.6657,-2.6708,-2.6708,-2.681,-2.6911,-2.7131,-2.7604,-2.8027,-2.845,-2.8839,-2.9364,-2.9837,-3.0243,-3.0581,-3.1004,-1.2725,-1.2891,-1.2891,-1.2891,-1.2881,-1.2891,-1.2871,-1.2929,-1.3017,-1.3112,-1.3238,-1.3684,-1.3789,-1.3515,-1.382,-1.3939,-1.4136,-1.4553,-1.5163,-1.5274,-1.5453,-1.5645,-1.5724,-1.5593,-1.5404,-1.5266,-1.5329,-1.5593,-1.5894,-1.622,-1.6509,-1.6497,-1.6509,-1.6534,-1.6534,-1.6534,-1.6534,-1.6534,-1.6534,-1.6534,-1.6534,-1.6534,-1.6534,-1.6534,-1.6534,-1.6534,-1.6534,-1.6534,-1.6534,-1.6534,-1.6534,-1.6547,-1.6534,-1.6879,-1.6944,-1.6921,-1.7483,-1.8472,-1.9249,-2.0038,-2.1041,-2.2193,-2.295,-2.3215,-2.3436,-2.3508,-2.3595,-2.3595,-2.3595,-2.3595,-2.3595,-2.3595,-2.3595,-2.3595,-2.358,-2.358,-2.358,-2.355,-2.355,-2.355,-2.355,-2.3565,-2.3565,-2.3565,-2.3595,-2.361,-2.361,-2.3711,-2.407,-2.4487,-2.4656,-2.4791,-2.5021,-2.5297,-2.5697,-2.6033,-2.6297,-2.6401,-2.659,-2.6657,-2.6708,-2.6708,-2.6708,-2.6708,-2.6793,-2.6979,-2.7199,-2.7571,-2.796,-2.8197,-2.8619,-2.9127,-2.9482,-2.9803,-3.048,-1.1667,-1.2034,-1.2415,-1.2471,-1.2344,-1.251,-1.248,-1.2361,-1.2341,-1.2332,-1.2439,-1.3027,-1.318,-1.2803,-1.3094,-1.3289,-1.3422,-1.3839,-1.4284,-1.4617,-1.4886,-1.5097,-1.5074,-1.4965,-1.5054,-1.4916,-1.4928,-1.5128,-1.5379,-1.5819,-1.612,-1.622,-1.6321,-1.6509,-1.6509,-1.6522,-1.6497,-1.6534,-1.6454,-1.6429,-1.6429,-1.6509,-1.6522,-1.6534,-1.6534,-1.6534,-1.6534,-1.6534,-1.6534,-1.6534,-1.6534,-1.6723,-1.6837,-1.7105,-1.7105,-1.7125,-1.746,-1.8089,-1.8663,-1.9249,-2.0106,-2.1309,-2.2294,-2.2527,-2.3084,-2.3231,-2.3551,-2.3595,-2.3595,-2.3595,-2.3595,-2.3595,-2.3595,-2.3595,-2.3535,-2.349,-2.3281,-2.3071,-2.3071,-2.3086,-2.3146,-2.3295,-2.3266,-2.3161,-2.3278,-2.3561,-2.3576,-2.3751,-2.4148,-2.4418,-2.461,-2.4837,-2.5067,-2.5597,-2.6199,-2.6436,-2.6556,-2.6657,-2.6708,-2.6708,-2.6708,-2.6708,-2.6708,-2.6708,-2.6708,-2.6742,-2.6979,-2.7249,-2.7249,-2.7351,-2.7875,-2.845,-2.8738,-2.9059,-2.9719,-1.0363,-1.0982,-1.1801,-1.1934,-1.1694,-1.1973,-1.1953,-1.1675,-1.1626,-1.1636,-1.1753,-1.242,-1.2676,-1.2568,-1.2363,-1.2564,-1.2717,-1.2892,-1.3304,-1.3813,-1.4189,-1.4338,-1.4483,-1.4588,-1.4488,-1.4525,-1.4601,-1.4689,-1.4815,-1.5279,-1.5643,-1.5768,-1.6082,-1.6434,-1.6471,-1.6409,-1.6321,-1.6203,-1.6111,-1.6123,-1.6266,-1.6459,-1.6509,-1.6534,-1.6534,-1.6534,-1.6534,-1.6534,-1.6534,-1.6565,-1.6637,-1.6993,-1.7353,-1.7585,-1.7381,-1.7434,-1.7447,-1.7864,-1.8116,-1.8266,-1.9287,-2.0277,-2.1197,-2.1888,-2.238,-2.2878,-2.3182,-2.3325,-2.3325,-2.3402,-2.3402,-2.3295,-2.3295,-2.3295,-2.3221,-2.3146,-2.2832,-2.2589,-2.2589,-2.2589,-2.2682,-2.2847,-2.2832,-2.2727,-2.296,-2.3299,-2.3579,-2.3819,-2.4045,-2.4268,-2.4447,-2.4749,-2.5029,-2.5697,-2.6488,-2.6607,-2.6623,-2.6708,-2.6708,-2.6708,-2.6708,-2.6708,-2.6708,-2.6708,-2.6708,-2.6708,-2.6708,-2.6877,-2.681,-2.6793,-2.7165,-2.7706,-2.7892,-2.8264,-2.8924,-1.0918,-1.1475,-1.166,-1.1665,-1.1606,-1.1694,-1.1675,-1.1606,-1.1567,-1.1596,-1.1587,-1.1675,-1.1861,-1.1861,-1.1802,-1.1943,-1.2164,-1.2141,-1.232,-1.2762,-1.3177,-1.3332,-1.3603,-1.3827,-1.3599,-1.3747,-1.4023,-1.4223,-1.4324,-1.4751,-1.5254,-1.5593,-1.5693,-1.6019,-1.6358,-1.6183,-1.5831,-1.5686,-1.5302,-1.5073,-1.5552,-1.5881,-1.6459,-1.6534,-1.6534,-1.6534,-1.6534,-1.6534,-1.6534,-1.6637,-1.687,-1.7274,-1.7693,-1.8025,-1.7907,-1.7585,-1.7639,-1.7556,-1.7655,-1.7588,-1.8442,-1.9214,-2.0047,-2.0656,-2.1198,-2.1836,-2.2114,-2.2338,-2.2458,-2.2748,-2.2691,-2.2357,-2.2263,-2.2263,-2.2218,-2.2143,-2.1964,-2.1889,-2.1889,-2.1889,-2.1919,-2.2039,-2.2113,-2.2124,-2.2239,-2.2536,-2.277,-2.3101,-2.3813,-2.4055,-2.4305,-2.4597,-2.4938,-2.5678,-2.6387,-2.6488,-2.6522,-2.6623,-2.6708,-2.6708,-2.6708,-2.6708,-2.6708,-2.6708,-2.6708,-2.6708,-2.6708,-2.6708,-2.6708,-2.6742,-2.6725,-2.6962,-2.7148,-2.7486,-2.8146]}]]